<?xml version="1.0" encoding="UTF-8" standalone="no" ?>
<gpx xmlns="http://www.topografix.com/GPX/1/1" xmlns:xsi="http://www.w3.org/2001/XMLSchema-instance" xsi:schemaLocation="http://www.topografix.com/GPX/1/1 http://www.topografix.com/GPX/1/1/gpx.xsd" version="1.1" creator="VisuGPX - https://www.visugpx.com">
  <metadata>
    <name>LE PILAT Véranne</name>
  </metadata>
  <trk>
    <name><![CDATA[LE PILAT]]></name>
    <trkseg>
      <trkpt lat="45.3684" lon="4.66317">
        <ele>560.52</ele>
        <time>2021-06-09T06:42:26Z</time>
      </trkpt>
      <trkpt lat="45.36837" lon="4.66317">
        <ele>560.92</ele>
        <time>2021-06-09T06:42:49Z</time>
      </trkpt>
      <trkpt lat="45.36838" lon="4.66318">
        <ele>560.78</ele>
        <time>2021-06-09T06:43:16Z</time>
      </trkpt>
      <trkpt lat="45.36841" lon="4.66317">
        <ele>561.03</ele>
        <time>2021-06-09T06:43:47Z</time>
      </trkpt>
      <trkpt lat="45.3684" lon="4.66317">
        <ele>560.89</ele>
        <time>2021-06-09T06:44:18Z</time>
      </trkpt>
      <trkpt lat="45.36839" lon="4.66317">
        <ele>560.57</ele>
        <time>2021-06-09T06:44:48Z</time>
      </trkpt>
      <trkpt lat="45.3684" lon="4.66316">
        <ele>561.16</ele>
        <time>2021-06-09T06:45:16Z</time>
      </trkpt>
      <trkpt lat="45.36838" lon="4.6632">
        <ele>561.02</ele>
        <time>2021-06-09T06:45:42Z</time>
      </trkpt>
      <trkpt lat="45.36835" lon="4.66321">
        <ele>561.33</ele>
        <time>2021-06-09T06:45:59Z</time>
      </trkpt>
      <trkpt lat="45.36831" lon="4.66321">
        <ele>562.11</ele>
        <time>2021-06-09T06:46:16Z</time>
      </trkpt>
      <trkpt lat="45.36825" lon="4.66319">
        <ele>562.02</ele>
        <time>2021-06-09T06:46:35Z</time>
      </trkpt>
      <trkpt lat="45.36828" lon="4.66318">
        <ele>562.76</ele>
        <time>2021-06-09T06:46:57Z</time>
      </trkpt>
      <trkpt lat="45.36831" lon="4.66316">
        <ele>562.53</ele>
        <time>2021-06-09T06:47:19Z</time>
      </trkpt>
      <trkpt lat="45.36829" lon="4.66315">
        <ele>562.6</ele>
        <time>2021-06-09T06:47:45Z</time>
      </trkpt>
      <trkpt lat="45.36856" lon="4.66307">
        <ele>562.65</ele>
        <time>2021-06-09T06:47:50Z</time>
      </trkpt>
      <trkpt lat="45.36849" lon="4.66312">
        <ele>562.72</ele>
        <time>2021-06-09T06:47:56Z</time>
      </trkpt>
      <trkpt lat="45.36846" lon="4.66313">
        <ele>562.66</ele>
        <time>2021-06-09T06:48:00Z</time>
      </trkpt>
      <trkpt lat="45.36845" lon="4.66313">
        <ele>562.72</ele>
        <time>2021-06-09T06:48:01Z</time>
      </trkpt>
      <trkpt lat="45.36844" lon="4.66313">
        <ele>562.72</ele>
        <time>2021-06-09T06:48:02Z</time>
      </trkpt>
      <trkpt lat="45.36837" lon="4.6631">
        <ele>563.02</ele>
        <time>2021-06-09T06:48:23Z</time>
      </trkpt>
      <trkpt lat="45.36835" lon="4.66299">
        <ele>563.06</ele>
        <time>2021-06-09T06:48:40Z</time>
      </trkpt>
      <trkpt lat="45.36837" lon="4.66295">
        <ele>563.37</ele>
        <time>2021-06-09T06:48:57Z</time>
      </trkpt>
      <trkpt lat="45.36848" lon="4.66284">
        <ele>563.68</ele>
        <time>2021-06-09T06:49:15Z</time>
      </trkpt>
      <trkpt lat="45.36852" lon="4.6628">
        <ele>564.3</ele>
        <time>2021-06-09T06:49:26Z</time>
      </trkpt>
      <trkpt lat="45.36857" lon="4.66272">
        <ele>564.55</ele>
        <time>2021-06-09T06:49:34Z</time>
      </trkpt>
      <trkpt lat="45.36868" lon="4.66255">
        <ele>565.19</ele>
        <time>2021-06-09T06:49:48Z</time>
      </trkpt>
      <trkpt lat="45.36874" lon="4.66242">
        <ele>565.78</ele>
        <time>2021-06-09T06:50:04Z</time>
      </trkpt>
      <trkpt lat="45.3688" lon="4.66233">
        <ele>566.47</ele>
        <time>2021-06-09T06:50:16Z</time>
      </trkpt>
      <trkpt lat="45.3688" lon="4.66235">
        <ele>566.4</ele>
        <time>2021-06-09T06:50:17Z</time>
      </trkpt>
      <trkpt lat="45.36879" lon="4.66236">
        <ele>566.5</ele>
        <time>2021-06-09T06:50:18Z</time>
      </trkpt>
      <trkpt lat="45.36878" lon="4.66237">
        <ele>566.29</ele>
        <time>2021-06-09T06:50:19Z</time>
      </trkpt>
      <trkpt lat="45.36877" lon="4.66239">
        <ele>566.21</ele>
        <time>2021-06-09T06:50:20Z</time>
      </trkpt>
      <trkpt lat="45.36857" lon="4.66274">
        <ele>564.71</ele>
        <time>2021-06-09T06:50:43Z</time>
      </trkpt>
      <trkpt lat="45.3684" lon="4.663">
        <ele>563.55</ele>
        <time>2021-06-09T06:51:01Z</time>
      </trkpt>
      <trkpt lat="45.36839" lon="4.66313">
        <ele>563.45</ele>
        <time>2021-06-09T06:51:15Z</time>
      </trkpt>
      <trkpt lat="45.36837" lon="4.66312">
        <ele>563.79</ele>
        <time>2021-06-09T06:51:28Z</time>
      </trkpt>
      <trkpt lat="45.36837" lon="4.66311">
        <ele>563.9</ele>
        <time>2021-06-09T06:51:29Z</time>
      </trkpt>
      <trkpt lat="45.36837" lon="4.6631">
        <ele>563.8</ele>
        <time>2021-06-09T06:51:30Z</time>
      </trkpt>
      <trkpt lat="45.36837" lon="4.66308">
        <ele>563.88</ele>
        <time>2021-06-09T06:51:31Z</time>
      </trkpt>
      <trkpt lat="45.36837" lon="4.66307">
        <ele>564.06</ele>
        <time>2021-06-09T06:51:32Z</time>
      </trkpt>
      <trkpt lat="45.36838" lon="4.66306">
        <ele>564.07</ele>
        <time>2021-06-09T06:51:33Z</time>
      </trkpt>
      <trkpt lat="45.36838" lon="4.66304">
        <ele>564.02</ele>
        <time>2021-06-09T06:51:34Z</time>
      </trkpt>
      <trkpt lat="45.36846" lon="4.66288">
        <ele>564.19</ele>
        <time>2021-06-09T06:51:44Z</time>
      </trkpt>
      <trkpt lat="45.36846" lon="4.66286">
        <ele>564.39</ele>
        <time>2021-06-09T06:51:45Z</time>
      </trkpt>
      <trkpt lat="45.36847" lon="4.66285">
        <ele>564.5</ele>
        <time>2021-06-09T06:51:46Z</time>
      </trkpt>
      <trkpt lat="45.36848" lon="4.66282">
        <ele>564.64</ele>
        <time>2021-06-09T06:51:48Z</time>
      </trkpt>
      <trkpt lat="45.36849" lon="4.66279">
        <ele>564.8</ele>
        <time>2021-06-09T06:51:50Z</time>
      </trkpt>
      <trkpt lat="45.3685" lon="4.66278">
        <ele>564.82</ele>
        <time>2021-06-09T06:51:51Z</time>
      </trkpt>
      <trkpt lat="45.36851" lon="4.66277">
        <ele>564.97</ele>
        <time>2021-06-09T06:51:52Z</time>
      </trkpt>
      <trkpt lat="45.36852" lon="4.66275">
        <ele>564.75</ele>
        <time>2021-06-09T06:51:53Z</time>
      </trkpt>
      <trkpt lat="45.36853" lon="4.66274">
        <ele>564.89</ele>
        <time>2021-06-09T06:51:54Z</time>
      </trkpt>
      <trkpt lat="45.36854" lon="4.66272">
        <ele>565.04</ele>
        <time>2021-06-09T06:51:55Z</time>
      </trkpt>
      <trkpt lat="45.36863" lon="4.66261">
        <ele>565.66</ele>
        <time>2021-06-09T06:52:05Z</time>
      </trkpt>
      <trkpt lat="45.36864" lon="4.6626">
        <ele>565.57</ele>
        <time>2021-06-09T06:52:06Z</time>
      </trkpt>
      <trkpt lat="45.36865" lon="4.6626">
        <ele>565.68</ele>
        <time>2021-06-09T06:52:07Z</time>
      </trkpt>
      <trkpt lat="45.36866" lon="4.66258">
        <ele>565.84</ele>
        <time>2021-06-09T06:52:08Z</time>
      </trkpt>
      <trkpt lat="45.36868" lon="4.66253">
        <ele>565.9</ele>
        <time>2021-06-09T06:52:11Z</time>
      </trkpt>
      <trkpt lat="45.36868" lon="4.66251">
        <ele>565.91</ele>
        <time>2021-06-09T06:52:12Z</time>
      </trkpt>
      <trkpt lat="45.3687" lon="4.6625">
        <ele>566.06</ele>
        <time>2021-06-09T06:52:13Z</time>
      </trkpt>
      <trkpt lat="45.36871" lon="4.66248">
        <ele>566.13</ele>
        <time>2021-06-09T06:52:14Z</time>
      </trkpt>
      <trkpt lat="45.36872" lon="4.66246">
        <ele>566.08</ele>
        <time>2021-06-09T06:52:15Z</time>
      </trkpt>
      <trkpt lat="45.36883" lon="4.66227">
        <ele>566.97</ele>
        <time>2021-06-09T06:52:28Z</time>
      </trkpt>
      <trkpt lat="45.36893" lon="4.66215">
        <ele>567.39</ele>
        <time>2021-06-09T06:52:40Z</time>
      </trkpt>
      <trkpt lat="45.369" lon="4.6621">
        <ele>568.28</ele>
        <time>2021-06-09T06:52:49Z</time>
      </trkpt>
      <trkpt lat="45.36911" lon="4.66204">
        <ele>569.13</ele>
        <time>2021-06-09T06:52:54Z</time>
      </trkpt>
      <trkpt lat="45.36912" lon="4.66202">
        <ele>569.29</ele>
        <time>2021-06-09T06:52:55Z</time>
      </trkpt>
      <trkpt lat="45.36927" lon="4.66224">
        <ele>571.74</ele>
        <time>2021-06-09T06:53:18Z</time>
      </trkpt>
      <trkpt lat="45.36927" lon="4.66247">
        <ele>572.3</ele>
        <time>2021-06-09T06:53:29Z</time>
      </trkpt>
      <trkpt lat="45.36944" lon="4.66264">
        <ele>572.64</ele>
        <time>2021-06-09T06:53:41Z</time>
      </trkpt>
      <trkpt lat="45.3695" lon="4.66286">
        <ele>573.77</ele>
        <time>2021-06-09T06:53:57Z</time>
      </trkpt>
      <trkpt lat="45.36952" lon="4.66288">
        <ele>574.02</ele>
        <time>2021-06-09T06:54:02Z</time>
      </trkpt>
      <trkpt lat="45.36955" lon="4.66292">
        <ele>574.72</ele>
        <time>2021-06-09T06:54:06Z</time>
      </trkpt>
      <trkpt lat="45.36956" lon="4.66292">
        <ele>574.96</ele>
        <time>2021-06-09T06:54:07Z</time>
      </trkpt>
      <trkpt lat="45.36966" lon="4.66307">
        <ele>576.96</ele>
        <time>2021-06-09T06:54:22Z</time>
      </trkpt>
      <trkpt lat="45.36979" lon="4.6631">
        <ele>578.64</ele>
        <time>2021-06-09T06:54:37Z</time>
      </trkpt>
      <trkpt lat="45.36987" lon="4.66302">
        <ele>580.53</ele>
        <time>2021-06-09T06:54:55Z</time>
      </trkpt>
      <trkpt lat="45.36992" lon="4.66299">
        <ele>581.45</ele>
        <time>2021-06-09T06:55:15Z</time>
      </trkpt>
      <trkpt lat="45.36991" lon="4.66297">
        <ele>581.22</ele>
        <time>2021-06-09T06:55:39Z</time>
      </trkpt>
      <trkpt lat="45.36993" lon="4.66295">
        <ele>582.01</ele>
        <time>2021-06-09T06:56:00Z</time>
      </trkpt>
      <trkpt lat="45.36995" lon="4.66285">
        <ele>583.5</ele>
        <time>2021-06-09T06:56:18Z</time>
      </trkpt>
      <trkpt lat="45.36997" lon="4.66272">
        <ele>585.62</ele>
        <time>2021-06-09T06:56:34Z</time>
      </trkpt>
      <trkpt lat="45.37003" lon="4.66258">
        <ele>587.83</ele>
        <time>2021-06-09T06:56:48Z</time>
      </trkpt>
      <trkpt lat="45.37013" lon="4.66255">
        <ele>590.01</ele>
        <time>2021-06-09T06:57:02Z</time>
      </trkpt>
      <trkpt lat="45.37029" lon="4.66256">
        <ele>593.1</ele>
        <time>2021-06-09T06:57:22Z</time>
      </trkpt>
      <trkpt lat="45.3704" lon="4.66259">
        <ele>595.73</ele>
        <time>2021-06-09T06:57:41Z</time>
      </trkpt>
      <trkpt lat="45.37056" lon="4.66261">
        <ele>597.84</ele>
        <time>2021-06-09T06:57:59Z</time>
      </trkpt>
      <trkpt lat="45.37066" lon="4.66268">
        <ele>598.54</ele>
        <time>2021-06-09T06:58:18Z</time>
      </trkpt>
      <trkpt lat="45.37074" lon="4.66277">
        <ele>599.81</ele>
        <time>2021-06-09T06:58:40Z</time>
      </trkpt>
      <trkpt lat="45.37078" lon="4.66282">
        <ele>600.58</ele>
        <time>2021-06-09T06:58:47Z</time>
      </trkpt>
      <trkpt lat="45.37085" lon="4.66293">
        <ele>602.23</ele>
        <time>2021-06-09T06:59:02Z</time>
      </trkpt>
      <trkpt lat="45.37098" lon="4.66308">
        <ele>604.54</ele>
        <time>2021-06-09T06:59:23Z</time>
      </trkpt>
      <trkpt lat="45.3711" lon="4.66323">
        <ele>607.31</ele>
        <time>2021-06-09T06:59:44Z</time>
      </trkpt>
      <trkpt lat="45.3712" lon="4.66338">
        <ele>610.38</ele>
        <time>2021-06-09T07:00:06Z</time>
      </trkpt>
      <trkpt lat="45.37142" lon="4.66343">
        <ele>613.23</ele>
        <time>2021-06-09T07:00:31Z</time>
      </trkpt>
      <trkpt lat="45.3716" lon="4.66345">
        <ele>615.54</ele>
        <time>2021-06-09T07:00:51Z</time>
      </trkpt>
      <trkpt lat="45.3717" lon="4.66343">
        <ele>616.38</ele>
        <time>2021-06-09T07:01:02Z</time>
      </trkpt>
      <trkpt lat="45.37184" lon="4.66337">
        <ele>617.61</ele>
        <time>2021-06-09T07:01:18Z</time>
      </trkpt>
      <trkpt lat="45.37199" lon="4.66329">
        <ele>619.38</ele>
        <time>2021-06-09T07:01:38Z</time>
      </trkpt>
      <trkpt lat="45.37214" lon="4.6633">
        <ele>622.08</ele>
        <time>2021-06-09T07:01:58Z</time>
      </trkpt>
      <trkpt lat="45.37227" lon="4.66339">
        <ele>623.74</ele>
        <time>2021-06-09T07:02:14Z</time>
      </trkpt>
      <trkpt lat="45.37241" lon="4.66344">
        <ele>624.63</ele>
        <time>2021-06-09T07:02:26Z</time>
      </trkpt>
      <trkpt lat="45.37258" lon="4.66354">
        <ele>625.47</ele>
        <time>2021-06-09T07:02:43Z</time>
      </trkpt>
      <trkpt lat="45.3727" lon="4.66361">
        <ele>626.65</ele>
        <time>2021-06-09T07:02:58Z</time>
      </trkpt>
      <trkpt lat="45.37282" lon="4.66369">
        <ele>628.03</ele>
        <time>2021-06-09T07:03:11Z</time>
      </trkpt>
      <trkpt lat="45.37292" lon="4.66376">
        <ele>629.06</ele>
        <time>2021-06-09T07:03:23Z</time>
      </trkpt>
      <trkpt lat="45.37307" lon="4.66388">
        <ele>631.98</ele>
        <time>2021-06-09T07:03:43Z</time>
      </trkpt>
      <trkpt lat="45.37319" lon="4.66397">
        <ele>633.84</ele>
        <time>2021-06-09T07:04:02Z</time>
      </trkpt>
      <trkpt lat="45.37331" lon="4.66402">
        <ele>635.76</ele>
        <time>2021-06-09T07:04:19Z</time>
      </trkpt>
      <trkpt lat="45.37342" lon="4.66407">
        <ele>637.28</ele>
        <time>2021-06-09T07:04:37Z</time>
      </trkpt>
      <trkpt lat="45.37363" lon="4.66404">
        <ele>639.12</ele>
        <time>2021-06-09T07:05:01Z</time>
      </trkpt>
      <trkpt lat="45.37373" lon="4.66403">
        <ele>640.57</ele>
        <time>2021-06-09T07:05:13Z</time>
      </trkpt>
      <trkpt lat="45.37387" lon="4.66401">
        <ele>641.85</ele>
        <time>2021-06-09T07:05:34Z</time>
      </trkpt>
      <trkpt lat="45.37414" lon="4.66405">
        <ele>642.66</ele>
        <time>2021-06-09T07:05:53Z</time>
      </trkpt>
      <trkpt lat="45.37431" lon="4.66399">
        <ele>644.42</ele>
        <time>2021-06-09T07:06:17Z</time>
      </trkpt>
      <trkpt lat="45.37433" lon="4.6638">
        <ele>647.47</ele>
        <time>2021-06-09T07:06:35Z</time>
      </trkpt>
      <trkpt lat="45.37429" lon="4.66366">
        <ele>648.73</ele>
        <time>2021-06-09T07:06:55Z</time>
      </trkpt>
      <trkpt lat="45.37418" lon="4.6635">
        <ele>651.96</ele>
        <time>2021-06-09T07:07:14Z</time>
      </trkpt>
      <trkpt lat="45.37415" lon="4.66338">
        <ele>652.72</ele>
        <time>2021-06-09T07:07:24Z</time>
      </trkpt>
      <trkpt lat="45.3741" lon="4.66316">
        <ele>654.17</ele>
        <time>2021-06-09T07:07:43Z</time>
      </trkpt>
      <trkpt lat="45.3741" lon="4.663">
        <ele>654.96</ele>
        <time>2021-06-09T07:07:57Z</time>
      </trkpt>
      <trkpt lat="45.37414" lon="4.66276">
        <ele>657.17</ele>
        <time>2021-06-09T07:08:19Z</time>
      </trkpt>
      <trkpt lat="45.37419" lon="4.66271">
        <ele>658.13</ele>
        <time>2021-06-09T07:08:25Z</time>
      </trkpt>
      <trkpt lat="45.3742" lon="4.6627">
        <ele>658.26</ele>
        <time>2021-06-09T07:08:26Z</time>
      </trkpt>
      <trkpt lat="45.3743" lon="4.66266">
        <ele>660.9</ele>
        <time>2021-06-09T07:08:43Z</time>
      </trkpt>
      <trkpt lat="45.3744" lon="4.66274">
        <ele>662.22</ele>
        <time>2021-06-09T07:09:00Z</time>
      </trkpt>
      <trkpt lat="45.37448" lon="4.66279">
        <ele>664.17</ele>
        <time>2021-06-09T07:09:16Z</time>
      </trkpt>
      <trkpt lat="45.37462" lon="4.66281">
        <ele>666.75</ele>
        <time>2021-06-09T07:09:37Z</time>
      </trkpt>
      <trkpt lat="45.37469" lon="4.66279">
        <ele>667.31</ele>
        <time>2021-06-09T07:09:53Z</time>
      </trkpt>
      <trkpt lat="45.37472" lon="4.66277">
        <ele>667.82</ele>
        <time>2021-06-09T07:09:57Z</time>
      </trkpt>
      <trkpt lat="45.3748" lon="4.66276">
        <ele>670.45</ele>
        <time>2021-06-09T07:10:15Z</time>
      </trkpt>
      <trkpt lat="45.375" lon="4.66278">
        <ele>672.94</ele>
        <time>2021-06-09T07:10:34Z</time>
      </trkpt>
      <trkpt lat="45.37513" lon="4.6628">
        <ele>674.5</ele>
        <time>2021-06-09T07:10:52Z</time>
      </trkpt>
      <trkpt lat="45.37523" lon="4.66289">
        <ele>676.67</ele>
        <time>2021-06-09T07:11:11Z</time>
      </trkpt>
      <trkpt lat="45.37535" lon="4.66301">
        <ele>676.94</ele>
        <time>2021-06-09T07:11:23Z</time>
      </trkpt>
      <trkpt lat="45.37544" lon="4.66314">
        <ele>679.11</ele>
        <time>2021-06-09T07:11:38Z</time>
      </trkpt>
      <trkpt lat="45.37559" lon="4.66328">
        <ele>681.85</ele>
        <time>2021-06-09T07:11:58Z</time>
      </trkpt>
      <trkpt lat="45.37569" lon="4.66326">
        <ele>683.37</ele>
        <time>2021-06-09T07:12:07Z</time>
      </trkpt>
      <trkpt lat="45.37576" lon="4.66313">
        <ele>685.84</ele>
        <time>2021-06-09T07:12:23Z</time>
      </trkpt>
      <trkpt lat="45.37578" lon="4.66304">
        <ele>687.45</ele>
        <time>2021-06-09T07:12:34Z</time>
      </trkpt>
      <trkpt lat="45.37598" lon="4.66287">
        <ele>690.49</ele>
        <time>2021-06-09T07:12:54Z</time>
      </trkpt>
      <trkpt lat="45.37609" lon="4.66286">
        <ele>691.54</ele>
        <time>2021-06-09T07:13:04Z</time>
      </trkpt>
      <trkpt lat="45.3762" lon="4.66292">
        <ele>693.14</ele>
        <time>2021-06-09T07:13:21Z</time>
      </trkpt>
      <trkpt lat="45.37622" lon="4.66295">
        <ele>693.55</ele>
        <time>2021-06-09T07:13:25Z</time>
      </trkpt>
      <trkpt lat="45.37626" lon="4.66302">
        <ele>693.83</ele>
        <time>2021-06-09T07:13:47Z</time>
      </trkpt>
      <trkpt lat="45.37629" lon="4.66303">
        <ele>694.38</ele>
        <time>2021-06-09T07:14:21Z</time>
      </trkpt>
      <trkpt lat="45.37623" lon="4.66309">
        <ele>694.05</ele>
        <time>2021-06-09T07:14:53Z</time>
      </trkpt>
      <trkpt lat="45.37629" lon="4.66306">
        <ele>694.65</ele>
        <time>2021-06-09T07:15:22Z</time>
      </trkpt>
      <trkpt lat="45.37643" lon="4.66321">
        <ele>696.75</ele>
        <time>2021-06-09T07:15:43Z</time>
      </trkpt>
      <trkpt lat="45.37652" lon="4.6634">
        <ele>697.9</ele>
        <time>2021-06-09T07:16:01Z</time>
      </trkpt>
      <trkpt lat="45.37657" lon="4.66351">
        <ele>700.51</ele>
        <time>2021-06-09T07:16:17Z</time>
      </trkpt>
      <trkpt lat="45.37664" lon="4.66362">
        <ele>701.76</ele>
        <time>2021-06-09T07:16:32Z</time>
      </trkpt>
      <trkpt lat="45.37669" lon="4.66381">
        <ele>704.41</ele>
        <time>2021-06-09T07:16:48Z</time>
      </trkpt>
      <trkpt lat="45.3769" lon="4.66398">
        <ele>705.93</ele>
        <time>2021-06-09T07:17:09Z</time>
      </trkpt>
      <trkpt lat="45.37705" lon="4.66416">
        <ele>707.04</ele>
        <time>2021-06-09T07:17:30Z</time>
      </trkpt>
      <trkpt lat="45.3772" lon="4.6644">
        <ele>708.15</ele>
        <time>2021-06-09T07:17:54Z</time>
      </trkpt>
      <trkpt lat="45.37728" lon="4.66442">
        <ele>708.15</ele>
        <time>2021-06-09T07:18:03Z</time>
      </trkpt>
      <trkpt lat="45.37736" lon="4.66448">
        <ele>709.05</ele>
        <time>2021-06-09T07:18:16Z</time>
      </trkpt>
      <trkpt lat="45.37749" lon="4.66454">
        <ele>709.81</ele>
        <time>2021-06-09T07:18:35Z</time>
      </trkpt>
      <trkpt lat="45.3776" lon="4.66459">
        <ele>710.28</ele>
        <time>2021-06-09T07:18:53Z</time>
      </trkpt>
      <trkpt lat="45.37779" lon="4.66462">
        <ele>711.44</ele>
        <time>2021-06-09T07:19:15Z</time>
      </trkpt>
      <trkpt lat="45.37794" lon="4.66459">
        <ele>713.44</ele>
        <time>2021-06-09T07:19:35Z</time>
      </trkpt>
      <trkpt lat="45.37819" lon="4.66442">
        <ele>715.72</ele>
        <time>2021-06-09T07:19:57Z</time>
      </trkpt>
      <trkpt lat="45.37833" lon="4.66425">
        <ele>717.1</ele>
        <time>2021-06-09T07:20:16Z</time>
      </trkpt>
      <trkpt lat="45.37842" lon="4.66401">
        <ele>718.52</ele>
        <time>2021-06-09T07:20:36Z</time>
      </trkpt>
      <trkpt lat="45.3785" lon="4.66373">
        <ele>721.54</ele>
        <time>2021-06-09T07:20:59Z</time>
      </trkpt>
      <trkpt lat="45.3786" lon="4.6635">
        <ele>723.13</ele>
        <time>2021-06-09T07:21:21Z</time>
      </trkpt>
      <trkpt lat="45.3786" lon="4.66339">
        <ele>723.74</ele>
        <time>2021-06-09T07:21:42Z</time>
      </trkpt>
      <trkpt lat="45.37858" lon="4.66333">
        <ele>723.97</ele>
        <time>2021-06-09T07:22:01Z</time>
      </trkpt>
      <trkpt lat="45.37851" lon="4.66331">
        <ele>725.47</ele>
        <time>2021-06-09T07:22:26Z</time>
      </trkpt>
      <trkpt lat="45.37841" lon="4.66329">
        <ele>727.67</ele>
        <time>2021-06-09T07:22:44Z</time>
      </trkpt>
      <trkpt lat="45.37828" lon="4.66328">
        <ele>728.84</ele>
        <time>2021-06-09T07:23:04Z</time>
      </trkpt>
      <trkpt lat="45.37819" lon="4.66325">
        <ele>730.41</ele>
        <time>2021-06-09T07:23:17Z</time>
      </trkpt>
      <trkpt lat="45.37805" lon="4.66315">
        <ele>732.27</ele>
        <time>2021-06-09T07:23:36Z</time>
      </trkpt>
      <trkpt lat="45.37794" lon="4.66287">
        <ele>734.36</ele>
        <time>2021-06-09T07:23:59Z</time>
      </trkpt>
      <trkpt lat="45.3779" lon="4.66262">
        <ele>736.75</ele>
        <time>2021-06-09T07:24:21Z</time>
      </trkpt>
      <trkpt lat="45.37789" lon="4.66234">
        <ele>738.66</ele>
        <time>2021-06-09T07:24:42Z</time>
      </trkpt>
      <trkpt lat="45.37789" lon="4.6621">
        <ele>741.02</ele>
        <time>2021-06-09T07:25:04Z</time>
      </trkpt>
      <trkpt lat="45.3779" lon="4.66181">
        <ele>742.72</ele>
        <time>2021-06-09T07:25:27Z</time>
      </trkpt>
      <trkpt lat="45.37785" lon="4.66167">
        <ele>743.58</ele>
        <time>2021-06-09T07:25:40Z</time>
      </trkpt>
      <trkpt lat="45.37772" lon="4.66149">
        <ele>745</ele>
        <time>2021-06-09T07:26:00Z</time>
      </trkpt>
      <trkpt lat="45.37763" lon="4.66126">
        <ele>745.9</ele>
        <time>2021-06-09T07:26:22Z</time>
      </trkpt>
      <trkpt lat="45.37765" lon="4.66105">
        <ele>748.31</ele>
        <time>2021-06-09T07:26:41Z</time>
      </trkpt>
      <trkpt lat="45.37762" lon="4.66083">
        <ele>750.97</ele>
        <time>2021-06-09T07:27:01Z</time>
      </trkpt>
      <trkpt lat="45.37762" lon="4.66059">
        <ele>753.48</ele>
        <time>2021-06-09T07:27:19Z</time>
      </trkpt>
      <trkpt lat="45.37757" lon="4.66044">
        <ele>754.33</ele>
        <time>2021-06-09T07:27:37Z</time>
      </trkpt>
      <trkpt lat="45.37751" lon="4.66027">
        <ele>754.53</ele>
        <time>2021-06-09T07:27:52Z</time>
      </trkpt>
      <trkpt lat="45.37751" lon="4.66025">
        <ele>756.14</ele>
        <time>2021-06-09T07:28:18Z</time>
      </trkpt>
      <trkpt lat="45.3775" lon="4.66016">
        <ele>757.3</ele>
        <time>2021-06-09T07:28:36Z</time>
      </trkpt>
      <trkpt lat="45.37758" lon="4.66002">
        <ele>760.35</ele>
        <time>2021-06-09T07:29:00Z</time>
      </trkpt>
      <trkpt lat="45.37768" lon="4.6599">
        <ele>762.46</ele>
        <time>2021-06-09T07:29:19Z</time>
      </trkpt>
      <trkpt lat="45.37777" lon="4.65972">
        <ele>764.7</ele>
        <time>2021-06-09T07:29:41Z</time>
      </trkpt>
      <trkpt lat="45.37788" lon="4.65956">
        <ele>767.92</ele>
        <time>2021-06-09T07:30:01Z</time>
      </trkpt>
      <trkpt lat="45.37782" lon="4.65938">
        <ele>771.09</ele>
        <time>2021-06-09T07:30:20Z</time>
      </trkpt>
      <trkpt lat="45.37775" lon="4.65916">
        <ele>773.93</ele>
        <time>2021-06-09T07:30:39Z</time>
      </trkpt>
      <trkpt lat="45.37776" lon="4.65895">
        <ele>776.48</ele>
        <time>2021-06-09T07:31:01Z</time>
      </trkpt>
      <trkpt lat="45.37772" lon="4.65869">
        <ele>778.26</ele>
        <time>2021-06-09T07:31:23Z</time>
      </trkpt>
      <trkpt lat="45.37765" lon="4.65846">
        <ele>780.16</ele>
        <time>2021-06-09T07:31:42Z</time>
      </trkpt>
      <trkpt lat="45.37759" lon="4.65838">
        <ele>780.58</ele>
        <time>2021-06-09T07:32:00Z</time>
      </trkpt>
      <trkpt lat="45.37754" lon="4.65823">
        <ele>782.88</ele>
        <time>2021-06-09T07:32:22Z</time>
      </trkpt>
      <trkpt lat="45.37748" lon="4.65808">
        <ele>784.9</ele>
        <time>2021-06-09T07:32:39Z</time>
      </trkpt>
      <trkpt lat="45.37744" lon="4.65794">
        <ele>785.79</ele>
        <time>2021-06-09T07:32:50Z</time>
      </trkpt>
      <trkpt lat="45.37741" lon="4.6577">
        <ele>786.15</ele>
        <time>2021-06-09T07:33:03Z</time>
      </trkpt>
      <trkpt lat="45.37737" lon="4.65751">
        <ele>787.12</ele>
        <time>2021-06-09T07:33:18Z</time>
      </trkpt>
      <trkpt lat="45.37734" lon="4.65732">
        <ele>789.05</ele>
        <time>2021-06-09T07:33:33Z</time>
      </trkpt>
      <trkpt lat="45.37731" lon="4.65713">
        <ele>789.9</ele>
        <time>2021-06-09T07:33:46Z</time>
      </trkpt>
      <trkpt lat="45.37727" lon="4.65695">
        <ele>791.17</ele>
        <time>2021-06-09T07:33:59Z</time>
      </trkpt>
      <trkpt lat="45.37724" lon="4.6568">
        <ele>792.16</ele>
        <time>2021-06-09T07:34:12Z</time>
      </trkpt>
      <trkpt lat="45.37724" lon="4.65664">
        <ele>792.34</ele>
        <time>2021-06-09T07:34:25Z</time>
      </trkpt>
      <trkpt lat="45.37724" lon="4.65653">
        <ele>794.91</ele>
        <time>2021-06-09T07:34:33Z</time>
      </trkpt>
      <trkpt lat="45.37723" lon="4.65637">
        <ele>797.33</ele>
        <time>2021-06-09T07:34:49Z</time>
      </trkpt>
      <trkpt lat="45.37724" lon="4.65613">
        <ele>798.69</ele>
        <time>2021-06-09T07:35:12Z</time>
      </trkpt>
      <trkpt lat="45.37725" lon="4.65589">
        <ele>800.04</ele>
        <time>2021-06-09T07:35:31Z</time>
      </trkpt>
      <trkpt lat="45.37724" lon="4.65572">
        <ele>801</ele>
        <time>2021-06-09T07:35:47Z</time>
      </trkpt>
      <trkpt lat="45.37725" lon="4.65558">
        <ele>801.83</ele>
        <time>2021-06-09T07:35:57Z</time>
      </trkpt>
      <trkpt lat="45.3772" lon="4.65543">
        <ele>804.5</ele>
        <time>2021-06-09T07:36:14Z</time>
      </trkpt>
      <trkpt lat="45.37712" lon="4.6554">
        <ele>807.19</ele>
        <time>2021-06-09T07:36:31Z</time>
      </trkpt>
      <trkpt lat="45.37707" lon="4.65533">
        <ele>809.3</ele>
        <time>2021-06-09T07:36:47Z</time>
      </trkpt>
      <trkpt lat="45.37707" lon="4.65529">
        <ele>810.13</ele>
        <time>2021-06-09T07:36:53Z</time>
      </trkpt>
      <trkpt lat="45.37706" lon="4.65513">
        <ele>812.23</ele>
        <time>2021-06-09T07:37:12Z</time>
      </trkpt>
      <trkpt lat="45.37705" lon="4.65489">
        <ele>815.3</ele>
        <time>2021-06-09T07:37:35Z</time>
      </trkpt>
      <trkpt lat="45.37708" lon="4.65472">
        <ele>818.28</ele>
        <time>2021-06-09T07:37:53Z</time>
      </trkpt>
      <trkpt lat="45.37706" lon="4.65458">
        <ele>820.47</ele>
        <time>2021-06-09T07:38:12Z</time>
      </trkpt>
      <trkpt lat="45.37704" lon="4.65432">
        <ele>821.8</ele>
        <time>2021-06-09T07:38:29Z</time>
      </trkpt>
      <trkpt lat="45.37703" lon="4.65411">
        <ele>822.69</ele>
        <time>2021-06-09T07:38:48Z</time>
      </trkpt>
      <trkpt lat="45.37704" lon="4.65388">
        <ele>823.74</ele>
        <time>2021-06-09T07:39:07Z</time>
      </trkpt>
      <trkpt lat="45.37707" lon="4.65364">
        <ele>824.52</ele>
        <time>2021-06-09T07:39:28Z</time>
      </trkpt>
      <trkpt lat="45.37707" lon="4.65338">
        <ele>824.67</ele>
        <time>2021-06-09T07:39:47Z</time>
      </trkpt>
      <trkpt lat="45.37708" lon="4.65306">
        <ele>825.99</ele>
        <time>2021-06-09T07:40:12Z</time>
      </trkpt>
      <trkpt lat="45.37706" lon="4.65277">
        <ele>828.44</ele>
        <time>2021-06-09T07:40:37Z</time>
      </trkpt>
      <trkpt lat="45.37704" lon="4.65244">
        <ele>829.89</ele>
        <time>2021-06-09T07:41:00Z</time>
      </trkpt>
      <trkpt lat="45.37699" lon="4.65224">
        <ele>830.1</ele>
        <time>2021-06-09T07:41:24Z</time>
      </trkpt>
      <trkpt lat="45.37698" lon="4.6522">
        <ele>830.98</ele>
        <time>2021-06-09T07:41:46Z</time>
      </trkpt>
      <trkpt lat="45.37695" lon="4.65219">
        <ele>831.61</ele>
        <time>2021-06-09T07:42:12Z</time>
      </trkpt>
      <trkpt lat="45.37698" lon="4.65218">
        <ele>832.45</ele>
        <time>2021-06-09T07:42:39Z</time>
      </trkpt>
      <trkpt lat="45.377" lon="4.65217">
        <ele>831.82</ele>
        <time>2021-06-09T07:43:11Z</time>
      </trkpt>
      <trkpt lat="45.37702" lon="4.65217">
        <ele>832.09</ele>
        <time>2021-06-09T07:43:16Z</time>
      </trkpt>
      <trkpt lat="45.37706" lon="4.65219">
        <ele>831.71</ele>
        <time>2021-06-09T07:43:45Z</time>
      </trkpt>
      <trkpt lat="45.37697" lon="4.6521">
        <ele>832.82</ele>
        <time>2021-06-09T07:44:08Z</time>
      </trkpt>
      <trkpt lat="45.3769" lon="4.65187">
        <ele>832.9</ele>
        <time>2021-06-09T07:44:27Z</time>
      </trkpt>
      <trkpt lat="45.37691" lon="4.6518">
        <ele>832.66</ele>
        <time>2021-06-09T07:44:33Z</time>
      </trkpt>
      <trkpt lat="45.37691" lon="4.65174">
        <ele>832.55</ele>
        <time>2021-06-09T07:44:37Z</time>
      </trkpt>
      <trkpt lat="45.37691" lon="4.65145">
        <ele>833.24</ele>
        <time>2021-06-09T07:44:57Z</time>
      </trkpt>
      <trkpt lat="45.37691" lon="4.65143">
        <ele>832.97</ele>
        <time>2021-06-09T07:44:59Z</time>
      </trkpt>
      <trkpt lat="45.37689" lon="4.6512">
        <ele>833.5</ele>
        <time>2021-06-09T07:45:16Z</time>
      </trkpt>
      <trkpt lat="45.3769" lon="4.65103">
        <ele>833.09</ele>
        <time>2021-06-09T07:45:28Z</time>
      </trkpt>
      <trkpt lat="45.3769" lon="4.65099">
        <ele>833.17</ele>
        <time>2021-06-09T07:45:30Z</time>
      </trkpt>
      <trkpt lat="45.37682" lon="4.65072">
        <ele>834.47</ele>
        <time>2021-06-09T07:45:50Z</time>
      </trkpt>
      <trkpt lat="45.37675" lon="4.65049">
        <ele>835.04</ele>
        <time>2021-06-09T07:46:08Z</time>
      </trkpt>
      <trkpt lat="45.37669" lon="4.65018">
        <ele>834.25</ele>
        <time>2021-06-09T07:46:28Z</time>
      </trkpt>
      <trkpt lat="45.3767" lon="4.65002">
        <ele>834.09</ele>
        <time>2021-06-09T07:46:39Z</time>
      </trkpt>
      <trkpt lat="45.3767" lon="4.64977">
        <ele>833.74</ele>
        <time>2021-06-09T07:46:54Z</time>
      </trkpt>
      <trkpt lat="45.3767" lon="4.64961">
        <ele>834.1</ele>
        <time>2021-06-09T07:47:10Z</time>
      </trkpt>
      <trkpt lat="45.37667" lon="4.6493">
        <ele>834.12</ele>
        <time>2021-06-09T07:47:28Z</time>
      </trkpt>
      <trkpt lat="45.37661" lon="4.64893">
        <ele>833.46</ele>
        <time>2021-06-09T07:47:45Z</time>
      </trkpt>
      <trkpt lat="45.37654" lon="4.64866">
        <ele>832.83</ele>
        <time>2021-06-09T07:48:05Z</time>
      </trkpt>
      <trkpt lat="45.37654" lon="4.64863">
        <ele>832.42</ele>
        <time>2021-06-09T07:48:07Z</time>
      </trkpt>
      <trkpt lat="45.37653" lon="4.64839">
        <ele>832.44</ele>
        <time>2021-06-09T07:48:27Z</time>
      </trkpt>
      <trkpt lat="45.37652" lon="4.64827">
        <ele>832.27</ele>
        <time>2021-06-09T07:48:33Z</time>
      </trkpt>
      <trkpt lat="45.3765" lon="4.64815">
        <ele>832.02</ele>
        <time>2021-06-09T07:48:39Z</time>
      </trkpt>
      <trkpt lat="45.37649" lon="4.64786">
        <ele>831.54</ele>
        <time>2021-06-09T07:48:57Z</time>
      </trkpt>
      <trkpt lat="45.37654" lon="4.64764">
        <ele>833.13</ele>
        <time>2021-06-09T07:49:15Z</time>
      </trkpt>
      <trkpt lat="45.37653" lon="4.64764">
        <ele>832.72</ele>
        <time>2021-06-09T07:49:18Z</time>
      </trkpt>
      <trkpt lat="45.37654" lon="4.64745">
        <ele>833.29</ele>
        <time>2021-06-09T07:49:36Z</time>
      </trkpt>
      <trkpt lat="45.37657" lon="4.64732">
        <ele>833.52</ele>
        <time>2021-06-09T07:49:50Z</time>
      </trkpt>
      <trkpt lat="45.3766" lon="4.64717">
        <ele>834.06</ele>
        <time>2021-06-09T07:50:10Z</time>
      </trkpt>
      <trkpt lat="45.37664" lon="4.64704">
        <ele>833.99</ele>
        <time>2021-06-09T07:50:29Z</time>
      </trkpt>
      <trkpt lat="45.37664" lon="4.64703">
        <ele>834.04</ele>
        <time>2021-06-09T07:50:30Z</time>
      </trkpt>
      <trkpt lat="45.37669" lon="4.64684">
        <ele>834.1</ele>
        <time>2021-06-09T07:50:50Z</time>
      </trkpt>
      <trkpt lat="45.37669" lon="4.64683">
        <ele>833.51</ele>
        <time>2021-06-09T07:50:56Z</time>
      </trkpt>
      <trkpt lat="45.37669" lon="4.6468">
        <ele>833.45</ele>
        <time>2021-06-09T07:50:58Z</time>
      </trkpt>
      <trkpt lat="45.37674" lon="4.64661">
        <ele>832.68</ele>
        <time>2021-06-09T07:51:10Z</time>
      </trkpt>
      <trkpt lat="45.37674" lon="4.64635">
        <ele>831.15</ele>
        <time>2021-06-09T07:51:30Z</time>
      </trkpt>
      <trkpt lat="45.3768" lon="4.64608">
        <ele>829.74</ele>
        <time>2021-06-09T07:51:49Z</time>
      </trkpt>
      <trkpt lat="45.37682" lon="4.64581">
        <ele>827.4</ele>
        <time>2021-06-09T07:52:07Z</time>
      </trkpt>
      <trkpt lat="45.37684" lon="4.64574">
        <ele>826.44</ele>
        <time>2021-06-09T07:52:12Z</time>
      </trkpt>
      <trkpt lat="45.37688" lon="4.64547">
        <ele>825.31</ele>
        <time>2021-06-09T07:52:31Z</time>
      </trkpt>
      <trkpt lat="45.37692" lon="4.64525">
        <ele>824.01</ele>
        <time>2021-06-09T07:52:47Z</time>
      </trkpt>
      <trkpt lat="45.37694" lon="4.64516">
        <ele>823.51</ele>
        <time>2021-06-09T07:52:57Z</time>
      </trkpt>
      <trkpt lat="45.37697" lon="4.64503">
        <ele>822.99</ele>
        <time>2021-06-09T07:53:14Z</time>
      </trkpt>
      <trkpt lat="45.37701" lon="4.64486">
        <ele>822.44</ele>
        <time>2021-06-09T07:53:30Z</time>
      </trkpt>
      <trkpt lat="45.37705" lon="4.64465">
        <ele>821.47</ele>
        <time>2021-06-09T07:53:49Z</time>
      </trkpt>
      <trkpt lat="45.37707" lon="4.64455">
        <ele>820.34</ele>
        <time>2021-06-09T07:53:56Z</time>
      </trkpt>
      <trkpt lat="45.37712" lon="4.64439">
        <ele>818.79</ele>
        <time>2021-06-09T07:54:10Z</time>
      </trkpt>
      <trkpt lat="45.37715" lon="4.64421">
        <ele>816.39</ele>
        <time>2021-06-09T07:54:28Z</time>
      </trkpt>
      <trkpt lat="45.37717" lon="4.64399">
        <ele>814.02</ele>
        <time>2021-06-09T07:54:44Z</time>
      </trkpt>
      <trkpt lat="45.3772" lon="4.64378">
        <ele>811.79</ele>
        <time>2021-06-09T07:55:03Z</time>
      </trkpt>
      <trkpt lat="45.37721" lon="4.64372">
        <ele>811.56</ele>
        <time>2021-06-09T07:55:21Z</time>
      </trkpt>
      <trkpt lat="45.37722" lon="4.64372">
        <ele>811.42</ele>
        <time>2021-06-09T07:55:37Z</time>
      </trkpt>
      <trkpt lat="45.37724" lon="4.64359">
        <ele>809.02</ele>
        <time>2021-06-09T07:55:51Z</time>
      </trkpt>
      <trkpt lat="45.37718" lon="4.64332">
        <ele>805.74</ele>
        <time>2021-06-09T07:56:06Z</time>
      </trkpt>
      <trkpt lat="45.37716" lon="4.64323">
        <ele>804.26</ele>
        <time>2021-06-09T07:56:11Z</time>
      </trkpt>
      <trkpt lat="45.37716" lon="4.64315">
        <ele>803.15</ele>
        <time>2021-06-09T07:56:16Z</time>
      </trkpt>
      <trkpt lat="45.37714" lon="4.64295">
        <ele>801.38</ele>
        <time>2021-06-09T07:56:32Z</time>
      </trkpt>
      <trkpt lat="45.37709" lon="4.64266">
        <ele>800.84</ele>
        <time>2021-06-09T07:56:50Z</time>
      </trkpt>
      <trkpt lat="45.37708" lon="4.6426">
        <ele>800.73</ele>
        <time>2021-06-09T07:56:54Z</time>
      </trkpt>
      <trkpt lat="45.37704" lon="4.64225">
        <ele>800.11</ele>
        <time>2021-06-09T07:57:14Z</time>
      </trkpt>
      <trkpt lat="45.37702" lon="4.64184">
        <ele>799.05</ele>
        <time>2021-06-09T07:57:37Z</time>
      </trkpt>
      <trkpt lat="45.37702" lon="4.64152">
        <ele>796.93</ele>
        <time>2021-06-09T07:57:56Z</time>
      </trkpt>
      <trkpt lat="45.37708" lon="4.64123">
        <ele>796.37</ele>
        <time>2021-06-09T07:58:13Z</time>
      </trkpt>
      <trkpt lat="45.37716" lon="4.6408">
        <ele>796.35</ele>
        <time>2021-06-09T07:58:38Z</time>
      </trkpt>
      <trkpt lat="45.37719" lon="4.64052">
        <ele>797.67</ele>
        <time>2021-06-09T07:58:56Z</time>
      </trkpt>
      <trkpt lat="45.37711" lon="4.64026">
        <ele>798</ele>
        <time>2021-06-09T07:59:15Z</time>
      </trkpt>
      <trkpt lat="45.37711" lon="4.64023">
        <ele>797.86</ele>
        <time>2021-06-09T07:59:17Z</time>
      </trkpt>
      <trkpt lat="45.37712" lon="4.64017">
        <ele>798.09</ele>
        <time>2021-06-09T07:59:34Z</time>
      </trkpt>
      <trkpt lat="45.37712" lon="4.64015">
        <ele>798.28</ele>
        <time>2021-06-09T07:59:56Z</time>
      </trkpt>
      <trkpt lat="45.37711" lon="4.64006">
        <ele>798.31</ele>
        <time>2021-06-09T08:00:14Z</time>
      </trkpt>
      <trkpt lat="45.37709" lon="4.64001">
        <ele>798.16</ele>
        <time>2021-06-09T08:00:18Z</time>
      </trkpt>
      <trkpt lat="45.3771" lon="4.6399">
        <ele>798.75</ele>
        <time>2021-06-09T08:00:35Z</time>
      </trkpt>
      <trkpt lat="45.37709" lon="4.63988">
        <ele>798.84</ele>
        <time>2021-06-09T08:00:55Z</time>
      </trkpt>
      <trkpt lat="45.37706" lon="4.63985">
        <ele>798.9</ele>
        <time>2021-06-09T08:01:09Z</time>
      </trkpt>
      <trkpt lat="45.37707" lon="4.63985">
        <ele>798.51</ele>
        <time>2021-06-09T08:01:42Z</time>
      </trkpt>
      <trkpt lat="45.37708" lon="4.63985">
        <ele>798.95</ele>
        <time>2021-06-09T08:02:09Z</time>
      </trkpt>
      <trkpt lat="45.37708" lon="4.63984">
        <ele>799.54</ele>
        <time>2021-06-09T08:02:43Z</time>
      </trkpt>
      <trkpt lat="45.37709" lon="4.63984">
        <ele>799.44</ele>
        <time>2021-06-09T08:03:13Z</time>
      </trkpt>
      <trkpt lat="45.3771" lon="4.63984">
        <ele>799.7</ele>
        <time>2021-06-09T08:03:37Z</time>
      </trkpt>
      <trkpt lat="45.37707" lon="4.63964">
        <ele>799.08</ele>
        <time>2021-06-09T08:03:53Z</time>
      </trkpt>
      <trkpt lat="45.37702" lon="4.63938">
        <ele>799.05</ele>
        <time>2021-06-09T08:04:13Z</time>
      </trkpt>
      <trkpt lat="45.37699" lon="4.63925">
        <ele>799.04</ele>
        <time>2021-06-09T08:04:30Z</time>
      </trkpt>
      <trkpt lat="45.377" lon="4.63925">
        <ele>798.72</ele>
        <time>2021-06-09T08:04:56Z</time>
      </trkpt>
      <trkpt lat="45.37697" lon="4.63915">
        <ele>798.71</ele>
        <time>2021-06-09T08:05:16Z</time>
      </trkpt>
      <trkpt lat="45.37697" lon="4.63914">
        <ele>798.54</ele>
        <time>2021-06-09T08:05:17Z</time>
      </trkpt>
      <trkpt lat="45.37693" lon="4.639">
        <ele>798.43</ele>
        <time>2021-06-09T08:05:31Z</time>
      </trkpt>
      <trkpt lat="45.37691" lon="4.63895">
        <ele>798.41</ele>
        <time>2021-06-09T08:05:37Z</time>
      </trkpt>
      <trkpt lat="45.37687" lon="4.63879">
        <ele>798.2</ele>
        <time>2021-06-09T08:05:51Z</time>
      </trkpt>
      <trkpt lat="45.37681" lon="4.63864">
        <ele>798.28</ele>
        <time>2021-06-09T08:06:04Z</time>
      </trkpt>
      <trkpt lat="45.37675" lon="4.63845">
        <ele>797.79</ele>
        <time>2021-06-09T08:06:21Z</time>
      </trkpt>
      <trkpt lat="45.37668" lon="4.63831">
        <ele>797.72</ele>
        <time>2021-06-09T08:06:36Z</time>
      </trkpt>
      <trkpt lat="45.37665" lon="4.63822">
        <ele>798.01</ele>
        <time>2021-06-09T08:06:52Z</time>
      </trkpt>
      <trkpt lat="45.37662" lon="4.63814">
        <ele>797.85</ele>
        <time>2021-06-09T08:07:01Z</time>
      </trkpt>
      <trkpt lat="45.37657" lon="4.638">
        <ele>797.88</ele>
        <time>2021-06-09T08:07:11Z</time>
      </trkpt>
      <trkpt lat="45.37652" lon="4.63779">
        <ele>798.14</ele>
        <time>2021-06-09T08:07:26Z</time>
      </trkpt>
      <trkpt lat="45.37651" lon="4.63772">
        <ele>798.01</ele>
        <time>2021-06-09T08:07:31Z</time>
      </trkpt>
      <trkpt lat="45.37648" lon="4.63757">
        <ele>798.44</ele>
        <time>2021-06-09T08:07:46Z</time>
      </trkpt>
      <trkpt lat="45.37649" lon="4.63739">
        <ele>798.51</ele>
        <time>2021-06-09T08:08:04Z</time>
      </trkpt>
      <trkpt lat="45.37649" lon="4.63717">
        <ele>799.72</ele>
        <time>2021-06-09T08:08:20Z</time>
      </trkpt>
      <trkpt lat="45.37648" lon="4.63702">
        <ele>801.03</ele>
        <time>2021-06-09T08:08:32Z</time>
      </trkpt>
      <trkpt lat="45.37647" lon="4.63684">
        <ele>802.23</ele>
        <time>2021-06-09T08:08:46Z</time>
      </trkpt>
      <trkpt lat="45.37646" lon="4.63664">
        <ele>802.41</ele>
        <time>2021-06-09T08:09:00Z</time>
      </trkpt>
      <trkpt lat="45.37646" lon="4.63643">
        <ele>803.21</ele>
        <time>2021-06-09T08:09:15Z</time>
      </trkpt>
      <trkpt lat="45.37647" lon="4.63619">
        <ele>806.09</ele>
        <time>2021-06-09T08:09:35Z</time>
      </trkpt>
      <trkpt lat="45.37647" lon="4.636">
        <ele>807.68</ele>
        <time>2021-06-09T08:09:52Z</time>
      </trkpt>
      <trkpt lat="45.37646" lon="4.63583">
        <ele>809.49</ele>
        <time>2021-06-09T08:10:07Z</time>
      </trkpt>
      <trkpt lat="45.37646" lon="4.63578">
        <ele>809.97</ele>
        <time>2021-06-09T08:10:12Z</time>
      </trkpt>
      <trkpt lat="45.37647" lon="4.63569">
        <ele>810.74</ele>
        <time>2021-06-09T08:10:19Z</time>
      </trkpt>
      <trkpt lat="45.37647" lon="4.63564">
        <ele>810.96</ele>
        <time>2021-06-09T08:10:23Z</time>
      </trkpt>
      <trkpt lat="45.37648" lon="4.63557">
        <ele>812.06</ele>
        <time>2021-06-09T08:10:29Z</time>
      </trkpt>
      <trkpt lat="45.3765" lon="4.63537">
        <ele>813.85</ele>
        <time>2021-06-09T08:10:44Z</time>
      </trkpt>
      <trkpt lat="45.37649" lon="4.63512">
        <ele>815.1</ele>
        <time>2021-06-09T08:11:01Z</time>
      </trkpt>
      <trkpt lat="45.37651" lon="4.63489">
        <ele>816.54</ele>
        <time>2021-06-09T08:11:18Z</time>
      </trkpt>
      <trkpt lat="45.37651" lon="4.63486">
        <ele>816.8</ele>
        <time>2021-06-09T08:11:21Z</time>
      </trkpt>
      <trkpt lat="45.37652" lon="4.63466">
        <ele>817.89</ele>
        <time>2021-06-09T08:11:36Z</time>
      </trkpt>
      <trkpt lat="45.37655" lon="4.63449">
        <ele>819.55</ele>
        <time>2021-06-09T08:11:49Z</time>
      </trkpt>
      <trkpt lat="45.37657" lon="4.63426">
        <ele>820.7</ele>
        <time>2021-06-09T08:12:06Z</time>
      </trkpt>
      <trkpt lat="45.37659" lon="4.63402">
        <ele>822.2</ele>
        <time>2021-06-09T08:12:22Z</time>
      </trkpt>
      <trkpt lat="45.37661" lon="4.63381">
        <ele>823.42</ele>
        <time>2021-06-09T08:12:39Z</time>
      </trkpt>
      <trkpt lat="45.37661" lon="4.63364">
        <ele>824.49</ele>
        <time>2021-06-09T08:12:52Z</time>
      </trkpt>
      <trkpt lat="45.37662" lon="4.63343">
        <ele>825.74</ele>
        <time>2021-06-09T08:13:06Z</time>
      </trkpt>
      <trkpt lat="45.37662" lon="4.63316">
        <ele>826.96</ele>
        <time>2021-06-09T08:13:23Z</time>
      </trkpt>
      <trkpt lat="45.37665" lon="4.63298">
        <ele>827.57</ele>
        <time>2021-06-09T08:13:37Z</time>
      </trkpt>
      <trkpt lat="45.37671" lon="4.63279">
        <ele>828.76</ele>
        <time>2021-06-09T08:13:52Z</time>
      </trkpt>
      <trkpt lat="45.37673" lon="4.63259">
        <ele>829.91</ele>
        <time>2021-06-09T08:14:07Z</time>
      </trkpt>
      <trkpt lat="45.37675" lon="4.63231">
        <ele>830.78</ele>
        <time>2021-06-09T08:14:23Z</time>
      </trkpt>
      <trkpt lat="45.37675" lon="4.63229">
        <ele>830.67</ele>
        <time>2021-06-09T08:14:24Z</time>
      </trkpt>
      <trkpt lat="45.37676" lon="4.63225">
        <ele>830.82</ele>
        <time>2021-06-09T08:14:27Z</time>
      </trkpt>
      <trkpt lat="45.3768" lon="4.63202">
        <ele>832.69</ele>
        <time>2021-06-09T08:14:44Z</time>
      </trkpt>
      <trkpt lat="45.37686" lon="4.63185">
        <ele>834.42</ele>
        <time>2021-06-09T08:14:58Z</time>
      </trkpt>
      <trkpt lat="45.37693" lon="4.63166">
        <ele>835.89</ele>
        <time>2021-06-09T08:15:12Z</time>
      </trkpt>
      <trkpt lat="45.377" lon="4.63144">
        <ele>836.17</ele>
        <time>2021-06-09T08:15:28Z</time>
      </trkpt>
      <trkpt lat="45.37707" lon="4.63125">
        <ele>837.18</ele>
        <time>2021-06-09T08:15:42Z</time>
      </trkpt>
      <trkpt lat="45.37717" lon="4.63093">
        <ele>837.57</ele>
        <time>2021-06-09T08:16:05Z</time>
      </trkpt>
      <trkpt lat="45.37724" lon="4.63066">
        <ele>837.96</ele>
        <time>2021-06-09T08:16:28Z</time>
      </trkpt>
      <trkpt lat="45.3773" lon="4.63046">
        <ele>838.44</ele>
        <time>2021-06-09T08:16:48Z</time>
      </trkpt>
      <trkpt lat="45.37735" lon="4.6303">
        <ele>838.39</ele>
        <time>2021-06-09T08:17:03Z</time>
      </trkpt>
      <trkpt lat="45.37742" lon="4.63015">
        <ele>840.07</ele>
        <time>2021-06-09T08:17:17Z</time>
      </trkpt>
      <trkpt lat="45.37744" lon="4.6301">
        <ele>840.24</ele>
        <time>2021-06-09T08:17:31Z</time>
      </trkpt>
      <trkpt lat="45.3775" lon="4.63002">
        <ele>840.58</ele>
        <time>2021-06-09T08:17:48Z</time>
      </trkpt>
      <trkpt lat="45.37754" lon="4.62995">
        <ele>840.86</ele>
        <time>2021-06-09T08:17:54Z</time>
      </trkpt>
      <trkpt lat="45.37761" lon="4.62986">
        <ele>841.23</ele>
        <time>2021-06-09T08:18:06Z</time>
      </trkpt>
      <trkpt lat="45.37768" lon="4.62978">
        <ele>842.39</ele>
        <time>2021-06-09T08:18:20Z</time>
      </trkpt>
      <trkpt lat="45.37776" lon="4.62965">
        <ele>843.1</ele>
        <time>2021-06-09T08:18:36Z</time>
      </trkpt>
      <trkpt lat="45.37786" lon="4.62958">
        <ele>844.38</ele>
        <time>2021-06-09T08:18:47Z</time>
      </trkpt>
      <trkpt lat="45.3779" lon="4.62954">
        <ele>844.79</ele>
        <time>2021-06-09T08:18:52Z</time>
      </trkpt>
      <trkpt lat="45.37792" lon="4.62952">
        <ele>845.07</ele>
        <time>2021-06-09T08:18:54Z</time>
      </trkpt>
      <trkpt lat="45.37794" lon="4.62949">
        <ele>845.45</ele>
        <time>2021-06-09T08:18:57Z</time>
      </trkpt>
      <trkpt lat="45.37799" lon="4.62945">
        <ele>845.59</ele>
        <time>2021-06-09T08:19:09Z</time>
      </trkpt>
      <trkpt lat="45.37798" lon="4.62945">
        <ele>845.61</ele>
        <time>2021-06-09T08:19:21Z</time>
      </trkpt>
      <trkpt lat="45.37805" lon="4.62941">
        <ele>845.84</ele>
        <time>2021-06-09T08:19:35Z</time>
      </trkpt>
      <trkpt lat="45.37809" lon="4.62932">
        <ele>845.83</ele>
        <time>2021-06-09T08:19:50Z</time>
      </trkpt>
      <trkpt lat="45.3781" lon="4.62931">
        <ele>845.85</ele>
        <time>2021-06-09T08:19:51Z</time>
      </trkpt>
      <trkpt lat="45.37812" lon="4.62928">
        <ele>846.36</ele>
        <time>2021-06-09T08:19:54Z</time>
      </trkpt>
      <trkpt lat="45.37824" lon="4.62911">
        <ele>848.34</ele>
        <time>2021-06-09T08:20:10Z</time>
      </trkpt>
      <trkpt lat="45.37836" lon="4.62891">
        <ele>850.27</ele>
        <time>2021-06-09T08:20:28Z</time>
      </trkpt>
      <trkpt lat="45.37847" lon="4.62879">
        <ele>851.41</ele>
        <time>2021-06-09T08:20:44Z</time>
      </trkpt>
      <trkpt lat="45.37862" lon="4.62867">
        <ele>853.76</ele>
        <time>2021-06-09T08:21:06Z</time>
      </trkpt>
      <trkpt lat="45.37862" lon="4.62866">
        <ele>853.74</ele>
        <time>2021-06-09T08:21:11Z</time>
      </trkpt>
      <trkpt lat="45.37866" lon="4.62865">
        <ele>853.98</ele>
        <time>2021-06-09T08:21:20Z</time>
      </trkpt>
      <trkpt lat="45.37876" lon="4.62855">
        <ele>854.67</ele>
        <time>2021-06-09T08:21:38Z</time>
      </trkpt>
      <trkpt lat="45.37886" lon="4.62846">
        <ele>856.68</ele>
        <time>2021-06-09T08:21:54Z</time>
      </trkpt>
      <trkpt lat="45.37899" lon="4.62834">
        <ele>857.88</ele>
        <time>2021-06-09T08:22:14Z</time>
      </trkpt>
      <trkpt lat="45.37913" lon="4.62828">
        <ele>860.04</ele>
        <time>2021-06-09T08:22:31Z</time>
      </trkpt>
      <trkpt lat="45.37925" lon="4.62822">
        <ele>861.09</ele>
        <time>2021-06-09T08:22:48Z</time>
      </trkpt>
      <trkpt lat="45.37943" lon="4.62813">
        <ele>862.97</ele>
        <time>2021-06-09T08:23:09Z</time>
      </trkpt>
      <trkpt lat="45.37957" lon="4.62799">
        <ele>864.37</ele>
        <time>2021-06-09T08:23:28Z</time>
      </trkpt>
      <trkpt lat="45.37973" lon="4.62791">
        <ele>866.38</ele>
        <time>2021-06-09T08:23:48Z</time>
      </trkpt>
      <trkpt lat="45.37991" lon="4.62791">
        <ele>869.6</ele>
        <time>2021-06-09T08:24:09Z</time>
      </trkpt>
      <trkpt lat="45.38004" lon="4.62789">
        <ele>872.71</ele>
        <time>2021-06-09T08:24:27Z</time>
      </trkpt>
      <trkpt lat="45.38017" lon="4.62783">
        <ele>875.75</ele>
        <time>2021-06-09T08:24:42Z</time>
      </trkpt>
      <trkpt lat="45.38031" lon="4.62772">
        <ele>878.38</ele>
        <time>2021-06-09T08:25:02Z</time>
      </trkpt>
      <trkpt lat="45.38038" lon="4.6276">
        <ele>881.4</ele>
        <time>2021-06-09T08:25:18Z</time>
      </trkpt>
      <trkpt lat="45.38049" lon="4.6275">
        <ele>884.56</ele>
        <time>2021-06-09T08:25:38Z</time>
      </trkpt>
      <trkpt lat="45.38052" lon="4.62747">
        <ele>885.84</ele>
        <time>2021-06-09T08:25:44Z</time>
      </trkpt>
      <trkpt lat="45.38055" lon="4.62736">
        <ele>887.44</ele>
        <time>2021-06-09T08:26:05Z</time>
      </trkpt>
      <trkpt lat="45.3806" lon="4.62719">
        <ele>890.73</ele>
        <time>2021-06-09T08:26:23Z</time>
      </trkpt>
      <trkpt lat="45.38067" lon="4.62704">
        <ele>893.86</ele>
        <time>2021-06-09T08:26:39Z</time>
      </trkpt>
      <trkpt lat="45.38078" lon="4.62693">
        <ele>896.08</ele>
        <time>2021-06-09T08:26:56Z</time>
      </trkpt>
      <trkpt lat="45.38089" lon="4.62684">
        <ele>895.87</ele>
        <time>2021-06-09T08:27:16Z</time>
      </trkpt>
      <trkpt lat="45.38089" lon="4.62684">
        <ele>898.85</ele>
        <time>2021-06-09T08:27:20Z</time>
      </trkpt>
      <trkpt lat="45.38093" lon="4.62678">
        <ele>899.3</ele>
        <time>2021-06-09T08:27:39Z</time>
      </trkpt>
      <trkpt lat="45.38095" lon="4.62665">
        <ele>901.7</ele>
        <time>2021-06-09T08:28:00Z</time>
      </trkpt>
      <trkpt lat="45.381" lon="4.62662">
        <ele>903.1</ele>
        <time>2021-06-09T08:28:11Z</time>
      </trkpt>
      <trkpt lat="45.38113" lon="4.62652">
        <ele>906.26</ele>
        <time>2021-06-09T08:28:33Z</time>
      </trkpt>
      <trkpt lat="45.38125" lon="4.62641">
        <ele>908.63</ele>
        <time>2021-06-09T08:28:54Z</time>
      </trkpt>
      <trkpt lat="45.38131" lon="4.62622">
        <ele>911</ele>
        <time>2021-06-09T08:29:13Z</time>
      </trkpt>
      <trkpt lat="45.38147" lon="4.62596">
        <ele>912.22</ele>
        <time>2021-06-09T08:29:35Z</time>
      </trkpt>
      <trkpt lat="45.38155" lon="4.62591">
        <ele>913.65</ele>
        <time>2021-06-09T08:29:41Z</time>
      </trkpt>
      <trkpt lat="45.38163" lon="4.62576">
        <ele>914.75</ele>
        <time>2021-06-09T08:29:59Z</time>
      </trkpt>
      <trkpt lat="45.38173" lon="4.62557">
        <ele>916.99</ele>
        <time>2021-06-09T08:30:17Z</time>
      </trkpt>
      <trkpt lat="45.38178" lon="4.62538">
        <ele>918.48</ele>
        <time>2021-06-09T08:30:33Z</time>
      </trkpt>
      <trkpt lat="45.38181" lon="4.62526">
        <ele>919.47</ele>
        <time>2021-06-09T08:30:43Z</time>
      </trkpt>
      <trkpt lat="45.38182" lon="4.62523">
        <ele>919.73</ele>
        <time>2021-06-09T08:30:47Z</time>
      </trkpt>
      <trkpt lat="45.38181" lon="4.62504">
        <ele>921.45</ele>
        <time>2021-06-09T08:31:02Z</time>
      </trkpt>
      <trkpt lat="45.38182" lon="4.62498">
        <ele>921.85</ele>
        <time>2021-06-09T08:31:06Z</time>
      </trkpt>
      <trkpt lat="45.38199" lon="4.62494">
        <ele>924.06</ele>
        <time>2021-06-09T08:31:26Z</time>
      </trkpt>
      <trkpt lat="45.38203" lon="4.62488">
        <ele>925.81</ele>
        <time>2021-06-09T08:31:38Z</time>
      </trkpt>
      <trkpt lat="45.38208" lon="4.6248">
        <ele>928.26</ele>
        <time>2021-06-09T08:31:52Z</time>
      </trkpt>
      <trkpt lat="45.38215" lon="4.62469">
        <ele>931.01</ele>
        <time>2021-06-09T08:32:07Z</time>
      </trkpt>
      <trkpt lat="45.38216" lon="4.62453">
        <ele>934.11</ele>
        <time>2021-06-09T08:32:26Z</time>
      </trkpt>
      <trkpt lat="45.38218" lon="4.62444">
        <ele>936.51</ele>
        <time>2021-06-09T08:32:44Z</time>
      </trkpt>
      <trkpt lat="45.38236" lon="4.62448">
        <ele>937.82</ele>
        <time>2021-06-09T08:33:01Z</time>
      </trkpt>
      <trkpt lat="45.38243" lon="4.62447">
        <ele>937.48</ele>
        <time>2021-06-09T08:33:06Z</time>
      </trkpt>
      <trkpt lat="45.38255" lon="4.62455">
        <ele>938.72</ele>
        <time>2021-06-09T08:33:22Z</time>
      </trkpt>
      <trkpt lat="45.38266" lon="4.62464">
        <ele>939.47</ele>
        <time>2021-06-09T08:33:37Z</time>
      </trkpt>
      <trkpt lat="45.38276" lon="4.62465">
        <ele>939.98</ele>
        <time>2021-06-09T08:34:01Z</time>
      </trkpt>
      <trkpt lat="45.38288" lon="4.62472">
        <ele>941.25</ele>
        <time>2021-06-09T08:34:16Z</time>
      </trkpt>
      <trkpt lat="45.38294" lon="4.62486">
        <ele>942.53</ele>
        <time>2021-06-09T08:34:31Z</time>
      </trkpt>
      <trkpt lat="45.38293" lon="4.62486">
        <ele>942.62</ele>
        <time>2021-06-09T08:34:53Z</time>
      </trkpt>
      <trkpt lat="45.38292" lon="4.62484">
        <ele>941.74</ele>
        <time>2021-06-09T08:35:11Z</time>
      </trkpt>
      <trkpt lat="45.38293" lon="4.62475">
        <ele>942.03</ele>
        <time>2021-06-09T08:35:39Z</time>
      </trkpt>
      <trkpt lat="45.38294" lon="4.6248">
        <ele>942.85</ele>
        <time>2021-06-09T08:36:03Z</time>
      </trkpt>
      <trkpt lat="45.38297" lon="4.62479">
        <ele>942.91</ele>
        <time>2021-06-09T08:36:14Z</time>
      </trkpt>
      <trkpt lat="45.38295" lon="4.62475">
        <ele>942.9</ele>
        <time>2021-06-09T08:36:17Z</time>
      </trkpt>
      <trkpt lat="45.38281" lon="4.62481">
        <ele>943.09</ele>
        <time>2021-06-09T08:36:55Z</time>
      </trkpt>
      <trkpt lat="45.38277" lon="4.62487">
        <ele>942.85</ele>
        <time>2021-06-09T08:37:21Z</time>
      </trkpt>
      <trkpt lat="45.38275" lon="4.62483">
        <ele>943.44</ele>
        <time>2021-06-09T08:37:49Z</time>
      </trkpt>
      <trkpt lat="45.38281" lon="4.62486">
        <ele>944.83</ele>
        <time>2021-06-09T08:38:14Z</time>
      </trkpt>
      <trkpt lat="45.38288" lon="4.62488">
        <ele>945.67</ele>
        <time>2021-06-09T08:38:38Z</time>
      </trkpt>
      <trkpt lat="45.38292" lon="4.62481">
        <ele>945.66</ele>
        <time>2021-06-09T08:38:54Z</time>
      </trkpt>
      <trkpt lat="45.38285" lon="4.62465">
        <ele>944.83</ele>
        <time>2021-06-09T08:39:09Z</time>
      </trkpt>
      <trkpt lat="45.38278" lon="4.62448">
        <ele>945.45</ele>
        <time>2021-06-09T08:39:26Z</time>
      </trkpt>
      <trkpt lat="45.38277" lon="4.62438">
        <ele>947.98</ele>
        <time>2021-06-09T08:39:41Z</time>
      </trkpt>
      <trkpt lat="45.38277" lon="4.62431">
        <ele>948.85</ele>
        <time>2021-06-09T08:39:49Z</time>
      </trkpt>
      <trkpt lat="45.38278" lon="4.62415">
        <ele>951.45</ele>
        <time>2021-06-09T08:40:02Z</time>
      </trkpt>
      <trkpt lat="45.38281" lon="4.62402">
        <ele>953.77</ele>
        <time>2021-06-09T08:40:14Z</time>
      </trkpt>
      <trkpt lat="45.3829" lon="4.62389">
        <ele>955.95</ele>
        <time>2021-06-09T08:40:30Z</time>
      </trkpt>
      <trkpt lat="45.38304" lon="4.62398">
        <ele>957.44</ele>
        <time>2021-06-09T08:40:47Z</time>
      </trkpt>
      <trkpt lat="45.3831" lon="4.62403">
        <ele>958.25</ele>
        <time>2021-06-09T08:40:53Z</time>
      </trkpt>
      <trkpt lat="45.38339" lon="4.6242">
        <ele>961.22</ele>
        <time>2021-06-09T08:41:11Z</time>
      </trkpt>
      <trkpt lat="45.38351" lon="4.62433">
        <ele>963.18</ele>
        <time>2021-06-09T08:41:24Z</time>
      </trkpt>
      <trkpt lat="45.38362" lon="4.62441">
        <ele>964.14</ele>
        <time>2021-06-09T08:41:33Z</time>
      </trkpt>
      <trkpt lat="45.38365" lon="4.62444">
        <ele>964.61</ele>
        <time>2021-06-09T08:41:36Z</time>
      </trkpt>
      <trkpt lat="45.38369" lon="4.62449">
        <ele>964.79</ele>
        <time>2021-06-09T08:41:41Z</time>
      </trkpt>
      <trkpt lat="45.3837" lon="4.62454">
        <ele>964.79</ele>
        <time>2021-06-09T08:41:44Z</time>
      </trkpt>
      <trkpt lat="45.38372" lon="4.62461">
        <ele>965.35</ele>
        <time>2021-06-09T08:41:50Z</time>
      </trkpt>
      <trkpt lat="45.38372" lon="4.62471">
        <ele>965.45</ele>
        <time>2021-06-09T08:41:56Z</time>
      </trkpt>
      <trkpt lat="45.38371" lon="4.62476">
        <ele>966.66</ele>
        <time>2021-06-09T08:42:01Z</time>
      </trkpt>
      <trkpt lat="45.38367" lon="4.62498">
        <ele>968.4</ele>
        <time>2021-06-09T08:42:16Z</time>
      </trkpt>
      <trkpt lat="45.38368" lon="4.62517">
        <ele>970.02</ele>
        <time>2021-06-09T08:42:30Z</time>
      </trkpt>
      <trkpt lat="45.38369" lon="4.62519">
        <ele>970.12</ele>
        <time>2021-06-09T08:42:32Z</time>
      </trkpt>
      <trkpt lat="45.38374" lon="4.62519">
        <ele>971.42</ele>
        <time>2021-06-09T08:42:40Z</time>
      </trkpt>
      <trkpt lat="45.38386" lon="4.6251">
        <ele>973.24</ele>
        <time>2021-06-09T08:42:54Z</time>
      </trkpt>
      <trkpt lat="45.38396" lon="4.62506">
        <ele>976.46</ele>
        <time>2021-06-09T08:43:11Z</time>
      </trkpt>
      <trkpt lat="45.38404" lon="4.62524">
        <ele>978.73</ele>
        <time>2021-06-09T08:43:31Z</time>
      </trkpt>
      <trkpt lat="45.38406" lon="4.62536">
        <ele>979.63</ele>
        <time>2021-06-09T08:43:41Z</time>
      </trkpt>
      <trkpt lat="45.38401" lon="4.62558">
        <ele>981.11</ele>
        <time>2021-06-09T08:44:00Z</time>
      </trkpt>
      <trkpt lat="45.384" lon="4.62569">
        <ele>982.56</ele>
        <time>2021-06-09T08:44:08Z</time>
      </trkpt>
      <trkpt lat="45.38397" lon="4.62596">
        <ele>984.57</ele>
        <time>2021-06-09T08:44:28Z</time>
      </trkpt>
      <trkpt lat="45.38398" lon="4.6261">
        <ele>987.15</ele>
        <time>2021-06-09T08:44:47Z</time>
      </trkpt>
      <trkpt lat="45.38401" lon="4.62623">
        <ele>989.96</ele>
        <time>2021-06-09T08:45:06Z</time>
      </trkpt>
      <trkpt lat="45.38406" lon="4.62641">
        <ele>992.56</ele>
        <time>2021-06-09T08:45:27Z</time>
      </trkpt>
      <trkpt lat="45.38412" lon="4.62652">
        <ele>994.8</ele>
        <time>2021-06-09T08:45:46Z</time>
      </trkpt>
      <trkpt lat="45.38415" lon="4.62663">
        <ele>996.73</ele>
        <time>2021-06-09T08:46:07Z</time>
      </trkpt>
      <trkpt lat="45.38414" lon="4.62667">
        <ele>995.93</ele>
        <time>2021-06-09T08:46:16Z</time>
      </trkpt>
      <trkpt lat="45.38406" lon="4.62672">
        <ele>995.63</ele>
        <time>2021-06-09T08:46:44Z</time>
      </trkpt>
      <trkpt lat="45.38407" lon="4.6267">
        <ele>996.48</ele>
        <time>2021-06-09T08:47:05Z</time>
      </trkpt>
      <trkpt lat="45.3841" lon="4.6268">
        <ele>999.49</ele>
        <time>2021-06-09T08:47:19Z</time>
      </trkpt>
      <trkpt lat="45.38413" lon="4.62693">
        <ele>1002.11</ele>
        <time>2021-06-09T08:47:33Z</time>
      </trkpt>
      <trkpt lat="45.38421" lon="4.62715">
        <ele>1005.05</ele>
        <time>2021-06-09T08:47:52Z</time>
      </trkpt>
      <trkpt lat="45.38422" lon="4.62716">
        <ele>1005.09</ele>
        <time>2021-06-09T08:47:53Z</time>
      </trkpt>
      <trkpt lat="45.3843" lon="4.6274">
        <ele>1008.4</ele>
        <time>2021-06-09T08:48:11Z</time>
      </trkpt>
      <trkpt lat="45.38436" lon="4.62755">
        <ele>1010.67</ele>
        <time>2021-06-09T08:48:23Z</time>
      </trkpt>
      <trkpt lat="45.38439" lon="4.62768">
        <ele>1012.28</ele>
        <time>2021-06-09T08:48:35Z</time>
      </trkpt>
      <trkpt lat="45.38444" lon="4.62785">
        <ele>1014.93</ele>
        <time>2021-06-09T08:48:52Z</time>
      </trkpt>
      <trkpt lat="45.3845" lon="4.62801">
        <ele>1016.45</ele>
        <time>2021-06-09T08:49:07Z</time>
      </trkpt>
      <trkpt lat="45.38456" lon="4.62831">
        <ele>1018.67</ele>
        <time>2021-06-09T08:49:30Z</time>
      </trkpt>
      <trkpt lat="45.38463" lon="4.62848">
        <ele>1020.58</ele>
        <time>2021-06-09T08:49:46Z</time>
      </trkpt>
      <trkpt lat="45.38471" lon="4.62866">
        <ele>1023.22</ele>
        <time>2021-06-09T08:50:02Z</time>
      </trkpt>
      <trkpt lat="45.3848" lon="4.62877">
        <ele>1025.08</ele>
        <time>2021-06-09T08:50:16Z</time>
      </trkpt>
      <trkpt lat="45.38486" lon="4.6289">
        <ele>1027.21</ele>
        <time>2021-06-09T08:50:30Z</time>
      </trkpt>
      <trkpt lat="45.38488" lon="4.62893">
        <ele>1027.54</ele>
        <time>2021-06-09T08:50:34Z</time>
      </trkpt>
      <trkpt lat="45.38481" lon="4.62899">
        <ele>1027.15</ele>
        <time>2021-06-09T08:50:59Z</time>
      </trkpt>
      <trkpt lat="45.38488" lon="4.62909">
        <ele>1029.13</ele>
        <time>2021-06-09T08:51:13Z</time>
      </trkpt>
      <trkpt lat="45.38494" lon="4.62921">
        <ele>1029.7</ele>
        <time>2021-06-09T08:51:22Z</time>
      </trkpt>
      <trkpt lat="45.38502" lon="4.62931">
        <ele>1030.69</ele>
        <time>2021-06-09T08:51:43Z</time>
      </trkpt>
      <trkpt lat="45.38505" lon="4.62935">
        <ele>1030.32</ele>
        <time>2021-06-09T08:52:10Z</time>
      </trkpt>
      <trkpt lat="45.3851" lon="4.62939">
        <ele>1030.52</ele>
        <time>2021-06-09T08:52:34Z</time>
      </trkpt>
      <trkpt lat="45.38516" lon="4.62957">
        <ele>1032.36</ele>
        <time>2021-06-09T08:52:54Z</time>
      </trkpt>
      <trkpt lat="45.38521" lon="4.62987">
        <ele>1032.89</ele>
        <time>2021-06-09T08:53:15Z</time>
      </trkpt>
      <trkpt lat="45.38524" lon="4.63005">
        <ele>1033.74</ele>
        <time>2021-06-09T08:53:29Z</time>
      </trkpt>
      <trkpt lat="45.38527" lon="4.63014">
        <ele>1033.86</ele>
        <time>2021-06-09T08:53:36Z</time>
      </trkpt>
      <trkpt lat="45.38528" lon="4.63018">
        <ele>1033.58</ele>
        <time>2021-06-09T08:53:39Z</time>
      </trkpt>
      <trkpt lat="45.38527" lon="4.63052">
        <ele>1033.16</ele>
        <time>2021-06-09T08:54:00Z</time>
      </trkpt>
      <trkpt lat="45.38531" lon="4.63076">
        <ele>1032.35</ele>
        <time>2021-06-09T08:54:14Z</time>
      </trkpt>
      <trkpt lat="45.3853" lon="4.63079">
        <ele>1032.24</ele>
        <time>2021-06-09T08:54:16Z</time>
      </trkpt>
      <trkpt lat="45.38535" lon="4.63098">
        <ele>1032.05</ele>
        <time>2021-06-09T08:54:30Z</time>
      </trkpt>
      <trkpt lat="45.38538" lon="4.63109">
        <ele>1031.56</ele>
        <time>2021-06-09T08:54:38Z</time>
      </trkpt>
      <trkpt lat="45.38535" lon="4.63129">
        <ele>1031.51</ele>
        <time>2021-06-09T08:54:55Z</time>
      </trkpt>
      <trkpt lat="45.38535" lon="4.63117">
        <ele>1032.21</ele>
        <time>2021-06-09T08:55:12Z</time>
      </trkpt>
      <trkpt lat="45.38527" lon="4.63123">
        <ele>1031.98</ele>
        <time>2021-06-09T08:55:23Z</time>
      </trkpt>
      <trkpt lat="45.38526" lon="4.63124">
        <ele>1031.98</ele>
        <time>2021-06-09T08:55:38Z</time>
      </trkpt>
      <trkpt lat="45.38531" lon="4.63137">
        <ele>1032.09</ele>
        <time>2021-06-09T08:55:58Z</time>
      </trkpt>
      <trkpt lat="45.38528" lon="4.63136">
        <ele>1032</ele>
        <time>2021-06-09T08:56:23Z</time>
      </trkpt>
      <trkpt lat="45.38529" lon="4.63143">
        <ele>1032.06</ele>
        <time>2021-06-09T08:56:41Z</time>
      </trkpt>
      <trkpt lat="45.38529" lon="4.63146">
        <ele>1032.12</ele>
        <time>2021-06-09T08:56:47Z</time>
      </trkpt>
      <trkpt lat="45.38536" lon="4.6316">
        <ele>1032.52</ele>
        <time>2021-06-09T08:57:11Z</time>
      </trkpt>
      <trkpt lat="45.38541" lon="4.63163">
        <ele>1034.58</ele>
        <time>2021-06-09T08:57:30Z</time>
      </trkpt>
      <trkpt lat="45.38544" lon="4.63161">
        <ele>1037.66</ele>
        <time>2021-06-09T08:57:46Z</time>
      </trkpt>
      <trkpt lat="45.38545" lon="4.63161">
        <ele>1038.05</ele>
        <time>2021-06-09T08:57:48Z</time>
      </trkpt>
      <trkpt lat="45.38556" lon="4.63155">
        <ele>1041.35</ele>
        <time>2021-06-09T08:58:09Z</time>
      </trkpt>
      <trkpt lat="45.38562" lon="4.63148">
        <ele>1044.27</ele>
        <time>2021-06-09T08:58:27Z</time>
      </trkpt>
      <trkpt lat="45.3857" lon="4.63141">
        <ele>1047.39</ele>
        <time>2021-06-09T08:58:43Z</time>
      </trkpt>
      <trkpt lat="45.38578" lon="4.63134">
        <ele>1050.49</ele>
        <time>2021-06-09T08:59:00Z</time>
      </trkpt>
      <trkpt lat="45.38582" lon="4.63122">
        <ele>1053.09</ele>
        <time>2021-06-09T08:59:16Z</time>
      </trkpt>
      <trkpt lat="45.38587" lon="4.63118">
        <ele>1054.43</ele>
        <time>2021-06-09T08:59:24Z</time>
      </trkpt>
      <trkpt lat="45.38598" lon="4.63115">
        <ele>1057.49</ele>
        <time>2021-06-09T08:59:45Z</time>
      </trkpt>
      <trkpt lat="45.38603" lon="4.63111">
        <ele>1060.49</ele>
        <time>2021-06-09T09:00:06Z</time>
      </trkpt>
      <trkpt lat="45.38608" lon="4.63106">
        <ele>1063.23</ele>
        <time>2021-06-09T09:00:26Z</time>
      </trkpt>
      <trkpt lat="45.38612" lon="4.63106">
        <ele>1064.01</ele>
        <time>2021-06-09T09:00:31Z</time>
      </trkpt>
      <trkpt lat="45.38619" lon="4.63091">
        <ele>1066.55</ele>
        <time>2021-06-09T09:00:50Z</time>
      </trkpt>
      <trkpt lat="45.38627" lon="4.63082">
        <ele>1069.66</ele>
        <time>2021-06-09T09:01:06Z</time>
      </trkpt>
      <trkpt lat="45.38633" lon="4.63075">
        <ele>1072.79</ele>
        <time>2021-06-09T09:01:24Z</time>
      </trkpt>
      <trkpt lat="45.38639" lon="4.63071">
        <ele>1075.45</ele>
        <time>2021-06-09T09:01:42Z</time>
      </trkpt>
      <trkpt lat="45.38643" lon="4.63062">
        <ele>1077.7</ele>
        <time>2021-06-09T09:02:02Z</time>
      </trkpt>
      <trkpt lat="45.38647" lon="4.63058">
        <ele>1079.55</ele>
        <time>2021-06-09T09:02:25Z</time>
      </trkpt>
      <trkpt lat="45.3865" lon="4.63054">
        <ele>1081.22</ele>
        <time>2021-06-09T09:02:40Z</time>
      </trkpt>
      <trkpt lat="45.38658" lon="4.63055">
        <ele>1082.73</ele>
        <time>2021-06-09T09:03:04Z</time>
      </trkpt>
      <trkpt lat="45.38659" lon="4.63048">
        <ele>1085.51</ele>
        <time>2021-06-09T09:03:22Z</time>
      </trkpt>
      <trkpt lat="45.38664" lon="4.63044">
        <ele>1088.19</ele>
        <time>2021-06-09T09:03:40Z</time>
      </trkpt>
      <trkpt lat="45.38669" lon="4.63043">
        <ele>1091.24</ele>
        <time>2021-06-09T09:03:58Z</time>
      </trkpt>
      <trkpt lat="45.38673" lon="4.63036">
        <ele>1093.25</ele>
        <time>2021-06-09T09:04:15Z</time>
      </trkpt>
      <trkpt lat="45.38672" lon="4.63025">
        <ele>1095.53</ele>
        <time>2021-06-09T09:04:30Z</time>
      </trkpt>
      <trkpt lat="45.38678" lon="4.63023">
        <ele>1096.39</ele>
        <time>2021-06-09T09:04:50Z</time>
      </trkpt>
      <trkpt lat="45.38677" lon="4.63019">
        <ele>1096.22</ele>
        <time>2021-06-09T09:05:17Z</time>
      </trkpt>
      <trkpt lat="45.38674" lon="4.63018">
        <ele>1096.37</ele>
        <time>2021-06-09T09:05:45Z</time>
      </trkpt>
      <trkpt lat="45.38677" lon="4.63023">
        <ele>1096.71</ele>
        <time>2021-06-09T09:06:12Z</time>
      </trkpt>
      <trkpt lat="45.3868" lon="4.63027">
        <ele>1097.04</ele>
        <time>2021-06-09T09:06:40Z</time>
      </trkpt>
      <trkpt lat="45.38677" lon="4.63028">
        <ele>1097.22</ele>
        <time>2021-06-09T09:07:23Z</time>
      </trkpt>
      <trkpt lat="45.38674" lon="4.63029">
        <ele>1097.78</ele>
        <time>2021-06-09T09:07:51Z</time>
      </trkpt>
      <trkpt lat="45.38672" lon="4.63028">
        <ele>1098.32</ele>
        <time>2021-06-09T09:08:34Z</time>
      </trkpt>
      <trkpt lat="45.38672" lon="4.63031">
        <ele>1098.17</ele>
        <time>2021-06-09T09:09:07Z</time>
      </trkpt>
      <trkpt lat="45.38671" lon="4.63032">
        <ele>1098.79</ele>
        <time>2021-06-09T09:09:38Z</time>
      </trkpt>
      <trkpt lat="45.38678" lon="4.63026">
        <ele>1099.99</ele>
        <time>2021-06-09T09:10:16Z</time>
      </trkpt>
      <trkpt lat="45.38679" lon="4.63021">
        <ele>1103.19</ele>
        <time>2021-06-09T09:10:31Z</time>
      </trkpt>
      <trkpt lat="45.38684" lon="4.63017">
        <ele>1106.48</ele>
        <time>2021-06-09T09:10:49Z</time>
      </trkpt>
      <trkpt lat="45.3869" lon="4.63013">
        <ele>1109.19</ele>
        <time>2021-06-09T09:11:11Z</time>
      </trkpt>
      <trkpt lat="45.38693" lon="4.63009">
        <ele>1111.7</ele>
        <time>2021-06-09T09:11:33Z</time>
      </trkpt>
      <trkpt lat="45.387" lon="4.63004">
        <ele>1114.84</ele>
        <time>2021-06-09T09:11:50Z</time>
      </trkpt>
      <trkpt lat="45.38702" lon="4.62994">
        <ele>1117.78</ele>
        <time>2021-06-09T09:12:12Z</time>
      </trkpt>
      <trkpt lat="45.38705" lon="4.62982">
        <ele>1119.53</ele>
        <time>2021-06-09T09:12:32Z</time>
      </trkpt>
      <trkpt lat="45.38707" lon="4.62973">
        <ele>1122.1</ele>
        <time>2021-06-09T09:12:47Z</time>
      </trkpt>
      <trkpt lat="45.38712" lon="4.62966">
        <ele>1125.02</ele>
        <time>2021-06-09T09:13:08Z</time>
      </trkpt>
      <trkpt lat="45.38715" lon="4.62962">
        <ele>1127.99</ele>
        <time>2021-06-09T09:13:29Z</time>
      </trkpt>
      <trkpt lat="45.38721" lon="4.62956">
        <ele>1130.55</ele>
        <time>2021-06-09T09:13:48Z</time>
      </trkpt>
      <trkpt lat="45.38723" lon="4.62957">
        <ele>1132.89</ele>
        <time>2021-06-09T09:14:07Z</time>
      </trkpt>
      <trkpt lat="45.38727" lon="4.62958">
        <ele>1134.18</ele>
        <time>2021-06-09T09:14:27Z</time>
      </trkpt>
      <trkpt lat="45.38731" lon="4.62952">
        <ele>1137.19</ele>
        <time>2021-06-09T09:14:46Z</time>
      </trkpt>
      <trkpt lat="45.38736" lon="4.62949">
        <ele>1139.74</ele>
        <time>2021-06-09T09:15:03Z</time>
      </trkpt>
      <trkpt lat="45.38738" lon="4.62948">
        <ele>1140.05</ele>
        <time>2021-06-09T09:15:11Z</time>
      </trkpt>
      <trkpt lat="45.38743" lon="4.62944">
        <ele>1142.3</ele>
        <time>2021-06-09T09:15:31Z</time>
      </trkpt>
      <trkpt lat="45.38745" lon="4.62944">
        <ele>1143.61</ele>
        <time>2021-06-09T09:15:58Z</time>
      </trkpt>
      <trkpt lat="45.3875" lon="4.62941">
        <ele>1146.5</ele>
        <time>2021-06-09T09:16:19Z</time>
      </trkpt>
      <trkpt lat="45.38754" lon="4.62933">
        <ele>1149.34</ele>
        <time>2021-06-09T09:16:39Z</time>
      </trkpt>
      <trkpt lat="45.38754" lon="4.62917">
        <ele>1151.47</ele>
        <time>2021-06-09T09:16:59Z</time>
      </trkpt>
      <trkpt lat="45.38758" lon="4.62908">
        <ele>1154.04</ele>
        <time>2021-06-09T09:17:16Z</time>
      </trkpt>
      <trkpt lat="45.38763" lon="4.62905">
        <ele>1157.15</ele>
        <time>2021-06-09T09:17:38Z</time>
      </trkpt>
      <trkpt lat="45.38767" lon="4.62897">
        <ele>1160.32</ele>
        <time>2021-06-09T09:17:53Z</time>
      </trkpt>
      <trkpt lat="45.38773" lon="4.62888">
        <ele>1163.39</ele>
        <time>2021-06-09T09:18:09Z</time>
      </trkpt>
      <trkpt lat="45.38775" lon="4.62886">
        <ele>1164.95</ele>
        <time>2021-06-09T09:18:22Z</time>
      </trkpt>
      <trkpt lat="45.38777" lon="4.62885">
        <ele>1165.72</ele>
        <time>2021-06-09T09:18:42Z</time>
      </trkpt>
      <trkpt lat="45.38777" lon="4.62878">
        <ele>1167.63</ele>
        <time>2021-06-09T09:19:01Z</time>
      </trkpt>
      <trkpt lat="45.38772" lon="4.6287">
        <ele>1168.02</ele>
        <time>2021-06-09T09:19:20Z</time>
      </trkpt>
      <trkpt lat="45.38769" lon="4.62859">
        <ele>1168.02</ele>
        <time>2021-06-09T09:19:40Z</time>
      </trkpt>
      <trkpt lat="45.38772" lon="4.6286">
        <ele>1169.6</ele>
        <time>2021-06-09T09:19:54Z</time>
      </trkpt>
      <trkpt lat="45.38774" lon="4.62856">
        <ele>1171.14</ele>
        <time>2021-06-09T09:20:07Z</time>
      </trkpt>
      <trkpt lat="45.38778" lon="4.6285">
        <ele>1172.91</ele>
        <time>2021-06-09T09:20:20Z</time>
      </trkpt>
      <trkpt lat="45.3878" lon="4.62842">
        <ele>1174.05</ele>
        <time>2021-06-09T09:20:34Z</time>
      </trkpt>
      <trkpt lat="45.38777" lon="4.62836">
        <ele>1174.38</ele>
        <time>2021-06-09T09:20:48Z</time>
      </trkpt>
      <trkpt lat="45.38778" lon="4.62834">
        <ele>1174.84</ele>
        <time>2021-06-09T09:21:32Z</time>
      </trkpt>
      <trkpt lat="45.38778" lon="4.62834">
        <ele>1175.12</ele>
        <time>2021-06-09T09:21:48Z</time>
      </trkpt>
      <trkpt lat="45.38776" lon="4.62832">
        <ele>1174.34</ele>
        <time>2021-06-09T09:22:13Z</time>
      </trkpt>
      <trkpt lat="45.38778" lon="4.62823">
        <ele>1174.05</ele>
        <time>2021-06-09T09:22:29Z</time>
      </trkpt>
      <trkpt lat="45.38778" lon="4.62819">
        <ele>1173.87</ele>
        <time>2021-06-09T09:22:45Z</time>
      </trkpt>
      <trkpt lat="45.38775" lon="4.62816">
        <ele>1172.73</ele>
        <time>2021-06-09T09:23:00Z</time>
      </trkpt>
      <trkpt lat="45.38771" lon="4.62815">
        <ele>1170.66</ele>
        <time>2021-06-09T09:23:17Z</time>
      </trkpt>
      <trkpt lat="45.38767" lon="4.6281">
        <ele>1169.16</ele>
        <time>2021-06-09T09:23:30Z</time>
      </trkpt>
      <trkpt lat="45.38767" lon="4.62804">
        <ele>1167.36</ele>
        <time>2021-06-09T09:23:44Z</time>
      </trkpt>
      <trkpt lat="45.38768" lon="4.62793">
        <ele>1165.66</ele>
        <time>2021-06-09T09:23:59Z</time>
      </trkpt>
      <trkpt lat="45.38769" lon="4.62789">
        <ele>1165.5</ele>
        <time>2021-06-09T09:24:05Z</time>
      </trkpt>
      <trkpt lat="45.38768" lon="4.62778">
        <ele>1163.7</ele>
        <time>2021-06-09T09:24:20Z</time>
      </trkpt>
      <trkpt lat="45.3877" lon="4.62766">
        <ele>1163.38</ele>
        <time>2021-06-09T09:24:36Z</time>
      </trkpt>
      <trkpt lat="45.38777" lon="4.62759">
        <ele>1164.49</ele>
        <time>2021-06-09T09:24:51Z</time>
      </trkpt>
      <trkpt lat="45.38781" lon="4.62753">
        <ele>1164.85</ele>
        <time>2021-06-09T09:25:07Z</time>
      </trkpt>
      <trkpt lat="45.38782" lon="4.62752">
        <ele>1164.59</ele>
        <time>2021-06-09T09:25:15Z</time>
      </trkpt>
      <trkpt lat="45.38786" lon="4.62743">
        <ele>1164.53</ele>
        <time>2021-06-09T09:25:31Z</time>
      </trkpt>
      <trkpt lat="45.38791" lon="4.62736">
        <ele>1165.44</ele>
        <time>2021-06-09T09:25:43Z</time>
      </trkpt>
      <trkpt lat="45.38793" lon="4.62729">
        <ele>1165</ele>
        <time>2021-06-09T09:25:59Z</time>
      </trkpt>
      <trkpt lat="45.38793" lon="4.62724">
        <ele>1164.26</ele>
        <time>2021-06-09T09:26:15Z</time>
      </trkpt>
      <trkpt lat="45.38798" lon="4.62716">
        <ele>1164.8</ele>
        <time>2021-06-09T09:26:31Z</time>
      </trkpt>
      <trkpt lat="45.38801" lon="4.62713">
        <ele>1165.39</ele>
        <time>2021-06-09T09:26:44Z</time>
      </trkpt>
      <trkpt lat="45.38806" lon="4.62709">
        <ele>1165.75</ele>
        <time>2021-06-09T09:27:01Z</time>
      </trkpt>
      <trkpt lat="45.3881" lon="4.62706">
        <ele>1166.33</ele>
        <time>2021-06-09T09:27:14Z</time>
      </trkpt>
      <trkpt lat="45.38817" lon="4.62704">
        <ele>1168.58</ele>
        <time>2021-06-09T09:27:28Z</time>
      </trkpt>
      <trkpt lat="45.38823" lon="4.62703">
        <ele>1170.65</ele>
        <time>2021-06-09T09:27:44Z</time>
      </trkpt>
      <trkpt lat="45.38826" lon="4.62702">
        <ele>1171.77</ele>
        <time>2021-06-09T09:27:58Z</time>
      </trkpt>
      <trkpt lat="45.38833" lon="4.62697">
        <ele>1172.55</ele>
        <time>2021-06-09T09:28:12Z</time>
      </trkpt>
      <trkpt lat="45.38841" lon="4.62693">
        <ele>1173.4</ele>
        <time>2021-06-09T09:28:24Z</time>
      </trkpt>
      <trkpt lat="45.38845" lon="4.62684">
        <ele>1173.19</ele>
        <time>2021-06-09T09:28:39Z</time>
      </trkpt>
      <trkpt lat="45.38849" lon="4.62673">
        <ele>1173.8</ele>
        <time>2021-06-09T09:28:57Z</time>
      </trkpt>
      <trkpt lat="45.38849" lon="4.62666">
        <ele>1172.73</ele>
        <time>2021-06-09T09:29:10Z</time>
      </trkpt>
      <trkpt lat="45.38851" lon="4.62659">
        <ele>1172.7</ele>
        <time>2021-06-09T09:29:17Z</time>
      </trkpt>
      <trkpt lat="45.38859" lon="4.62651">
        <ele>1174.17</ele>
        <time>2021-06-09T09:29:32Z</time>
      </trkpt>
      <trkpt lat="45.38867" lon="4.62639">
        <ele>1174.65</ele>
        <time>2021-06-09T09:29:48Z</time>
      </trkpt>
      <trkpt lat="45.3887" lon="4.62637">
        <ele>1175.3</ele>
        <time>2021-06-09T09:29:52Z</time>
      </trkpt>
      <trkpt lat="45.38879" lon="4.62627">
        <ele>1176.5</ele>
        <time>2021-06-09T09:30:05Z</time>
      </trkpt>
      <trkpt lat="45.38886" lon="4.62612">
        <ele>1176.43</ele>
        <time>2021-06-09T09:30:23Z</time>
      </trkpt>
      <trkpt lat="45.38886" lon="4.62612">
        <ele>1176.53</ele>
        <time>2021-06-09T09:30:25Z</time>
      </trkpt>
      <trkpt lat="45.38887" lon="4.62607">
        <ele>1176.09</ele>
        <time>2021-06-09T09:30:28Z</time>
      </trkpt>
      <trkpt lat="45.38891" lon="4.62597">
        <ele>1175.97</ele>
        <time>2021-06-09T09:30:37Z</time>
      </trkpt>
      <trkpt lat="45.38891" lon="4.6259">
        <ele>1174.81</ele>
        <time>2021-06-09T09:30:42Z</time>
      </trkpt>
      <trkpt lat="45.38898" lon="4.62575">
        <ele>1175.76</ele>
        <time>2021-06-09T09:30:59Z</time>
      </trkpt>
      <trkpt lat="45.38901" lon="4.62558">
        <ele>1175.12</ele>
        <time>2021-06-09T09:31:13Z</time>
      </trkpt>
      <trkpt lat="45.38904" lon="4.62545">
        <ele>1175.82</ele>
        <time>2021-06-09T09:31:27Z</time>
      </trkpt>
      <trkpt lat="45.3891" lon="4.62536">
        <ele>1177.54</ele>
        <time>2021-06-09T09:31:42Z</time>
      </trkpt>
      <trkpt lat="45.38914" lon="4.62526">
        <ele>1178.27</ele>
        <time>2021-06-09T09:31:56Z</time>
      </trkpt>
      <trkpt lat="45.38914" lon="4.62524">
        <ele>1178.15</ele>
        <time>2021-06-09T09:31:57Z</time>
      </trkpt>
      <trkpt lat="45.38916" lon="4.62521">
        <ele>1178.32</ele>
        <time>2021-06-09T09:32:13Z</time>
      </trkpt>
      <trkpt lat="45.38916" lon="4.62519">
        <ele>1177.38</ele>
        <time>2021-06-09T09:32:39Z</time>
      </trkpt>
      <trkpt lat="45.38916" lon="4.62515">
        <ele>1177.82</ele>
        <time>2021-06-09T09:33:04Z</time>
      </trkpt>
      <trkpt lat="45.38916" lon="4.62517">
        <ele>1178.47</ele>
        <time>2021-06-09T09:33:30Z</time>
      </trkpt>
      <trkpt lat="45.38917" lon="4.62513">
        <ele>1180.25</ele>
        <time>2021-06-09T09:33:50Z</time>
      </trkpt>
      <trkpt lat="45.38916" lon="4.6251">
        <ele>1180.73</ele>
        <time>2021-06-09T09:34:13Z</time>
      </trkpt>
      <trkpt lat="45.38917" lon="4.62513">
        <ele>1180.39</ele>
        <time>2021-06-09T09:34:53Z</time>
      </trkpt>
      <trkpt lat="45.38918" lon="4.62512">
        <ele>1179.32</ele>
        <time>2021-06-09T09:35:19Z</time>
      </trkpt>
      <trkpt lat="45.38916" lon="4.62513">
        <ele>1180.43</ele>
        <time>2021-06-09T09:35:45Z</time>
      </trkpt>
      <trkpt lat="45.38915" lon="4.62516">
        <ele>1179.48</ele>
        <time>2021-06-09T09:36:00Z</time>
      </trkpt>
      <trkpt lat="45.38913" lon="4.62517">
        <ele>1179.44</ele>
        <time>2021-06-09T09:36:17Z</time>
      </trkpt>
      <trkpt lat="45.38912" lon="4.62511">
        <ele>1178.22</ele>
        <time>2021-06-09T09:36:31Z</time>
      </trkpt>
      <trkpt lat="45.38908" lon="4.62506">
        <ele>1175.12</ele>
        <time>2021-06-09T09:36:44Z</time>
      </trkpt>
      <trkpt lat="45.38903" lon="4.62502">
        <ele>1172.99</ele>
        <time>2021-06-09T09:37:00Z</time>
      </trkpt>
      <trkpt lat="45.38902" lon="4.62498">
        <ele>1171.08</ele>
        <time>2021-06-09T09:37:13Z</time>
      </trkpt>
      <trkpt lat="45.38897" lon="4.62487">
        <ele>1168.54</ele>
        <time>2021-06-09T09:37:28Z</time>
      </trkpt>
      <trkpt lat="45.389" lon="4.62477">
        <ele>1169.91</ele>
        <time>2021-06-09T09:37:43Z</time>
      </trkpt>
      <trkpt lat="45.38901" lon="4.6247">
        <ele>1170.73</ele>
        <time>2021-06-09T09:37:56Z</time>
      </trkpt>
      <trkpt lat="45.38902" lon="4.62461">
        <ele>1170.05</ele>
        <time>2021-06-09T09:38:09Z</time>
      </trkpt>
      <trkpt lat="45.38906" lon="4.62446">
        <ele>1170.52</ele>
        <time>2021-06-09T09:38:24Z</time>
      </trkpt>
      <trkpt lat="45.38905" lon="4.62437">
        <ele>1170.41</ele>
        <time>2021-06-09T09:38:37Z</time>
      </trkpt>
      <trkpt lat="45.38904" lon="4.62431">
        <ele>1170.47</ele>
        <time>2021-06-09T09:38:49Z</time>
      </trkpt>
      <trkpt lat="45.38904" lon="4.62431">
        <ele>1170.21</ele>
        <time>2021-06-09T09:39:07Z</time>
      </trkpt>
      <trkpt lat="45.38904" lon="4.62419">
        <ele>1170.65</ele>
        <time>2021-06-09T09:39:26Z</time>
      </trkpt>
      <trkpt lat="45.38904" lon="4.62407">
        <ele>1169.56</ele>
        <time>2021-06-09T09:39:39Z</time>
      </trkpt>
      <trkpt lat="45.38908" lon="4.62388">
        <ele>1169.95</ele>
        <time>2021-06-09T09:39:56Z</time>
      </trkpt>
      <trkpt lat="45.38911" lon="4.62379">
        <ele>1170.68</ele>
        <time>2021-06-09T09:40:10Z</time>
      </trkpt>
      <trkpt lat="45.38918" lon="4.62367">
        <ele>1171.76</ele>
        <time>2021-06-09T09:40:24Z</time>
      </trkpt>
      <trkpt lat="45.38919" lon="4.62366">
        <ele>1171.59</ele>
        <time>2021-06-09T09:40:29Z</time>
      </trkpt>
      <trkpt lat="45.38924" lon="4.62362">
        <ele>1171.88</ele>
        <time>2021-06-09T09:40:42Z</time>
      </trkpt>
      <trkpt lat="45.38925" lon="4.62362">
        <ele>1173.07</ele>
        <time>2021-06-09T09:41:07Z</time>
      </trkpt>
      <trkpt lat="45.38927" lon="4.6236">
        <ele>1173.35</ele>
        <time>2021-06-09T09:41:34Z</time>
      </trkpt>
      <trkpt lat="45.38932" lon="4.62357">
        <ele>1173.45</ele>
        <time>2021-06-09T09:41:48Z</time>
      </trkpt>
      <trkpt lat="45.38933" lon="4.62353">
        <ele>1172.19</ele>
        <time>2021-06-09T09:41:57Z</time>
      </trkpt>
      <trkpt lat="45.38927" lon="4.62343">
        <ele>1170.89</ele>
        <time>2021-06-09T09:42:11Z</time>
      </trkpt>
      <trkpt lat="45.38927" lon="4.62342">
        <ele>1170.6</ele>
        <time>2021-06-09T09:42:18Z</time>
      </trkpt>
      <trkpt lat="45.38927" lon="4.62327">
        <ele>1168.06</ele>
        <time>2021-06-09T09:42:31Z</time>
      </trkpt>
      <trkpt lat="45.38927" lon="4.62326">
        <ele>1167.99</ele>
        <time>2021-06-09T09:42:33Z</time>
      </trkpt>
      <trkpt lat="45.38925" lon="4.62315">
        <ele>1166.83</ele>
        <time>2021-06-09T09:42:43Z</time>
      </trkpt>
      <trkpt lat="45.38923" lon="4.62306">
        <ele>1166.51</ele>
        <time>2021-06-09T09:42:49Z</time>
      </trkpt>
      <trkpt lat="45.38926" lon="4.62286">
        <ele>1164.95</ele>
        <time>2021-06-09T09:43:01Z</time>
      </trkpt>
      <trkpt lat="45.38925" lon="4.62282">
        <ele>1164.21</ele>
        <time>2021-06-09T09:43:05Z</time>
      </trkpt>
      <trkpt lat="45.38923" lon="4.62278">
        <ele>1163.95</ele>
        <time>2021-06-09T09:43:09Z</time>
      </trkpt>
      <trkpt lat="45.38924" lon="4.62276">
        <ele>1162.97</ele>
        <time>2021-06-09T09:43:11Z</time>
      </trkpt>
      <trkpt lat="45.38922" lon="4.62265">
        <ele>1162.26</ele>
        <time>2021-06-09T09:43:18Z</time>
      </trkpt>
      <trkpt lat="45.38919" lon="4.62256">
        <ele>1162.53</ele>
        <time>2021-06-09T09:43:24Z</time>
      </trkpt>
      <trkpt lat="45.38916" lon="4.62244">
        <ele>1162.43</ele>
        <time>2021-06-09T09:43:32Z</time>
      </trkpt>
      <trkpt lat="45.38915" lon="4.62236">
        <ele>1161.99</ele>
        <time>2021-06-09T09:43:41Z</time>
      </trkpt>
      <trkpt lat="45.38916" lon="4.62231">
        <ele>1162.16</ele>
        <time>2021-06-09T09:43:48Z</time>
      </trkpt>
      <trkpt lat="45.38916" lon="4.62213">
        <ele>1160.9</ele>
        <time>2021-06-09T09:43:59Z</time>
      </trkpt>
      <trkpt lat="45.38918" lon="4.62205">
        <ele>1161.09</ele>
        <time>2021-06-09T09:44:04Z</time>
      </trkpt>
      <trkpt lat="45.38918" lon="4.62195">
        <ele>1160.96</ele>
        <time>2021-06-09T09:44:12Z</time>
      </trkpt>
      <trkpt lat="45.38915" lon="4.62189">
        <ele>1162.19</ele>
        <time>2021-06-09T09:44:16Z</time>
      </trkpt>
      <trkpt lat="45.38916" lon="4.6218">
        <ele>1164.57</ele>
        <time>2021-06-09T09:44:29Z</time>
      </trkpt>
      <trkpt lat="45.38917" lon="4.62176">
        <ele>1164.47</ele>
        <time>2021-06-09T09:44:56Z</time>
      </trkpt>
      <trkpt lat="45.38916" lon="4.62163">
        <ele>1167.78</ele>
        <time>2021-06-09T09:45:08Z</time>
      </trkpt>
      <trkpt lat="45.38914" lon="4.6216">
        <ele>1169.24</ele>
        <time>2021-06-09T09:45:11Z</time>
      </trkpt>
      <trkpt lat="45.38907" lon="4.6215">
        <ele>1171.75</ele>
        <time>2021-06-09T09:45:24Z</time>
      </trkpt>
      <trkpt lat="45.38904" lon="4.62141">
        <ele>1173.67</ele>
        <time>2021-06-09T09:45:39Z</time>
      </trkpt>
      <trkpt lat="45.38903" lon="4.62138">
        <ele>1174.35</ele>
        <time>2021-06-09T09:45:53Z</time>
      </trkpt>
      <trkpt lat="45.38903" lon="4.62132">
        <ele>1175.26</ele>
        <time>2021-06-09T09:46:18Z</time>
      </trkpt>
      <trkpt lat="45.38897" lon="4.62123">
        <ele>1176.49</ele>
        <time>2021-06-09T09:46:31Z</time>
      </trkpt>
      <trkpt lat="45.38896" lon="4.62115">
        <ele>1178.44</ele>
        <time>2021-06-09T09:46:43Z</time>
      </trkpt>
      <trkpt lat="45.38898" lon="4.62108">
        <ele>1178.18</ele>
        <time>2021-06-09T09:47:08Z</time>
      </trkpt>
      <trkpt lat="45.38898" lon="4.62108">
        <ele>1178.05</ele>
        <time>2021-06-09T09:47:41Z</time>
      </trkpt>
      <trkpt lat="45.38898" lon="4.62109">
        <ele>1178.38</ele>
        <time>2021-06-09T09:48:04Z</time>
      </trkpt>
      <trkpt lat="45.38898" lon="4.62098">
        <ele>1181</ele>
        <time>2021-06-09T09:48:15Z</time>
      </trkpt>
      <trkpt lat="45.38896" lon="4.62094">
        <ele>1180.96</ele>
        <time>2021-06-09T09:48:18Z</time>
      </trkpt>
      <trkpt lat="45.38896" lon="4.62086">
        <ele>1181.79</ele>
        <time>2021-06-09T09:48:23Z</time>
      </trkpt>
      <trkpt lat="45.38896" lon="4.62069">
        <ele>1184.85</ele>
        <time>2021-06-09T09:48:34Z</time>
      </trkpt>
      <trkpt lat="45.38895" lon="4.62066">
        <ele>1185.04</ele>
        <time>2021-06-09T09:48:37Z</time>
      </trkpt>
      <trkpt lat="45.3889" lon="4.6205">
        <ele>1186.65</ele>
        <time>2021-06-09T09:48:52Z</time>
      </trkpt>
      <trkpt lat="45.38885" lon="4.62042">
        <ele>1189.77</ele>
        <time>2021-06-09T09:49:06Z</time>
      </trkpt>
      <trkpt lat="45.38883" lon="4.62042">
        <ele>1191.7</ele>
        <time>2021-06-09T09:49:11Z</time>
      </trkpt>
      <trkpt lat="45.38883" lon="4.62042">
        <ele>1191.2</ele>
        <time>2021-06-09T09:49:26Z</time>
      </trkpt>
      <trkpt lat="45.38881" lon="4.62047">
        <ele>1194.02</ele>
        <time>2021-06-09T09:49:47Z</time>
      </trkpt>
      <trkpt lat="45.38878" lon="4.62044">
        <ele>1194.85</ele>
        <time>2021-06-09T09:50:24Z</time>
      </trkpt>
      <trkpt lat="45.38875" lon="4.6204">
        <ele>1195.9</ele>
        <time>2021-06-09T09:50:38Z</time>
      </trkpt>
      <trkpt lat="45.38872" lon="4.62038">
        <ele>1197.32</ele>
        <time>2021-06-09T09:50:44Z</time>
      </trkpt>
      <trkpt lat="45.38871" lon="4.62038">
        <ele>1197.39</ele>
        <time>2021-06-09T09:50:45Z</time>
      </trkpt>
      <trkpt lat="45.3886" lon="4.62034">
        <ele>1200.16</ele>
        <time>2021-06-09T09:50:59Z</time>
      </trkpt>
      <trkpt lat="45.38861" lon="4.62033">
        <ele>1201.02</ele>
        <time>2021-06-09T09:51:24Z</time>
      </trkpt>
      <trkpt lat="45.38862" lon="4.62032">
        <ele>1201.62</ele>
        <time>2021-06-09T09:51:33Z</time>
      </trkpt>
      <trkpt lat="45.38863" lon="4.62032">
        <ele>1201.49</ele>
        <time>2021-06-09T09:52:07Z</time>
      </trkpt>
      <trkpt lat="45.38862" lon="4.62032">
        <ele>1201.69</ele>
        <time>2021-06-09T09:52:45Z</time>
      </trkpt>
      <trkpt lat="45.38863" lon="4.62033">
        <ele>1202.01</ele>
        <time>2021-06-09T09:53:07Z</time>
      </trkpt>
      <trkpt lat="45.38863" lon="4.62034">
        <ele>1201.96</ele>
        <time>2021-06-09T09:53:40Z</time>
      </trkpt>
      <trkpt lat="45.38863" lon="4.62033">
        <ele>1202.45</ele>
        <time>2021-06-09T09:54:03Z</time>
      </trkpt>
      <trkpt lat="45.38862" lon="4.62027">
        <ele>1204.17</ele>
        <time>2021-06-09T09:54:29Z</time>
      </trkpt>
      <trkpt lat="45.38862" lon="4.62019">
        <ele>1207.37</ele>
        <time>2021-06-09T09:54:43Z</time>
      </trkpt>
      <trkpt lat="45.38862" lon="4.62015">
        <ele>1210.29</ele>
        <time>2021-06-09T09:55:00Z</time>
      </trkpt>
      <trkpt lat="45.38859" lon="4.6201">
        <ele>1211.57</ele>
        <time>2021-06-09T09:55:25Z</time>
      </trkpt>
      <trkpt lat="45.38857" lon="4.62009">
        <ele>1214</ele>
        <time>2021-06-09T09:55:41Z</time>
      </trkpt>
      <trkpt lat="45.38851" lon="4.62003">
        <ele>1216.53</ele>
        <time>2021-06-09T09:55:56Z</time>
      </trkpt>
      <trkpt lat="45.38847" lon="4.61994">
        <ele>1216.17</ele>
        <time>2021-06-09T09:56:08Z</time>
      </trkpt>
      <trkpt lat="45.38844" lon="4.61992">
        <ele>1216.95</ele>
        <time>2021-06-09T09:56:21Z</time>
      </trkpt>
      <trkpt lat="45.38845" lon="4.61992">
        <ele>1215.57</ele>
        <time>2021-06-09T09:56:43Z</time>
      </trkpt>
      <trkpt lat="45.38846" lon="4.61994">
        <ele>1216.55</ele>
        <time>2021-06-09T09:57:15Z</time>
      </trkpt>
      <trkpt lat="45.38845" lon="4.61989">
        <ele>1214.97</ele>
        <time>2021-06-09T09:57:31Z</time>
      </trkpt>
      <trkpt lat="45.38839" lon="4.61982">
        <ele>1213.01</ele>
        <time>2021-06-09T09:57:44Z</time>
      </trkpt>
      <trkpt lat="45.3884" lon="4.6198">
        <ele>1213.34</ele>
        <time>2021-06-09T09:57:48Z</time>
      </trkpt>
      <trkpt lat="45.38844" lon="4.6196">
        <ele>1211.11</ele>
        <time>2021-06-09T09:58:03Z</time>
      </trkpt>
      <trkpt lat="45.38847" lon="4.61947">
        <ele>1209.22</ele>
        <time>2021-06-09T09:58:16Z</time>
      </trkpt>
      <trkpt lat="45.38846" lon="4.61929">
        <ele>1209.2</ele>
        <time>2021-06-09T09:58:32Z</time>
      </trkpt>
      <trkpt lat="45.38845" lon="4.61919">
        <ele>1211.23</ele>
        <time>2021-06-09T09:58:47Z</time>
      </trkpt>
      <trkpt lat="45.38842" lon="4.61912">
        <ele>1212.01</ele>
        <time>2021-06-09T09:59:12Z</time>
      </trkpt>
      <trkpt lat="45.38839" lon="4.61908">
        <ele>1212.91</ele>
        <time>2021-06-09T09:59:31Z</time>
      </trkpt>
      <trkpt lat="45.3884" lon="4.6191">
        <ele>1212.68</ele>
        <time>2021-06-09T09:59:53Z</time>
      </trkpt>
      <trkpt lat="45.38842" lon="4.61911">
        <ele>1212.16</ele>
        <time>2021-06-09T10:00:14Z</time>
      </trkpt>
      <trkpt lat="45.38838" lon="4.61904">
        <ele>1214.98</ele>
        <time>2021-06-09T10:00:36Z</time>
      </trkpt>
      <trkpt lat="45.38833" lon="4.6189">
        <ele>1218.05</ele>
        <time>2021-06-09T10:00:54Z</time>
      </trkpt>
      <trkpt lat="45.38834" lon="4.61883">
        <ele>1219.51</ele>
        <time>2021-06-09T10:01:01Z</time>
      </trkpt>
      <trkpt lat="45.38836" lon="4.61873">
        <ele>1220.98</ele>
        <time>2021-06-09T10:01:24Z</time>
      </trkpt>
      <trkpt lat="45.38832" lon="4.61864">
        <ele>1224.3</ele>
        <time>2021-06-09T10:01:38Z</time>
      </trkpt>
      <trkpt lat="45.38821" lon="4.61854">
        <ele>1226.83</ele>
        <time>2021-06-09T10:01:56Z</time>
      </trkpt>
      <trkpt lat="45.38815" lon="4.61847">
        <ele>1229.01</ele>
        <time>2021-06-09T10:02:11Z</time>
      </trkpt>
      <trkpt lat="45.38817" lon="4.6184">
        <ele>1230.93</ele>
        <time>2021-06-09T10:02:24Z</time>
      </trkpt>
      <trkpt lat="45.38813" lon="4.61831">
        <ele>1232.58</ele>
        <time>2021-06-09T10:02:37Z</time>
      </trkpt>
      <trkpt lat="45.38813" lon="4.61822">
        <ele>1234.98</ele>
        <time>2021-06-09T10:02:52Z</time>
      </trkpt>
      <trkpt lat="45.38814" lon="4.61811">
        <ele>1235.69</ele>
        <time>2021-06-09T10:03:05Z</time>
      </trkpt>
      <trkpt lat="45.38815" lon="4.61809">
        <ele>1235.51</ele>
        <time>2021-06-09T10:03:06Z</time>
      </trkpt>
      <trkpt lat="45.38822" lon="4.61797">
        <ele>1235.15</ele>
        <time>2021-06-09T10:03:19Z</time>
      </trkpt>
      <trkpt lat="45.38829" lon="4.61784">
        <ele>1234.38</ele>
        <time>2021-06-09T10:03:34Z</time>
      </trkpt>
      <trkpt lat="45.38836" lon="4.61775">
        <ele>1232.44</ele>
        <time>2021-06-09T10:03:48Z</time>
      </trkpt>
      <trkpt lat="45.38836" lon="4.61763">
        <ele>1234.46</ele>
        <time>2021-06-09T10:04:01Z</time>
      </trkpt>
      <trkpt lat="45.38837" lon="4.61746">
        <ele>1235.19</ele>
        <time>2021-06-09T10:04:17Z</time>
      </trkpt>
      <trkpt lat="45.38833" lon="4.61724">
        <ele>1234.68</ele>
        <time>2021-06-09T10:04:33Z</time>
      </trkpt>
      <trkpt lat="45.38834" lon="4.61706">
        <ele>1233.22</ele>
        <time>2021-06-09T10:04:48Z</time>
      </trkpt>
      <trkpt lat="45.38833" lon="4.61691">
        <ele>1231.04</ele>
        <time>2021-06-09T10:05:03Z</time>
      </trkpt>
      <trkpt lat="45.38837" lon="4.61679">
        <ele>1229.41</ele>
        <time>2021-06-09T10:05:12Z</time>
      </trkpt>
      <trkpt lat="45.38838" lon="4.61676">
        <ele>1229.02</ele>
        <time>2021-06-09T10:05:14Z</time>
      </trkpt>
      <trkpt lat="45.38842" lon="4.61666">
        <ele>1228.72</ele>
        <time>2021-06-09T10:05:31Z</time>
      </trkpt>
      <trkpt lat="45.38848" lon="4.6166">
        <ele>1227.24</ele>
        <time>2021-06-09T10:05:51Z</time>
      </trkpt>
      <trkpt lat="45.38857" lon="4.61642">
        <ele>1226.69</ele>
        <time>2021-06-09T10:06:08Z</time>
      </trkpt>
      <trkpt lat="45.3887" lon="4.61628">
        <ele>1226.33</ele>
        <time>2021-06-09T10:06:24Z</time>
      </trkpt>
      <trkpt lat="45.38882" lon="4.61618">
        <ele>1225.91</ele>
        <time>2021-06-09T10:06:38Z</time>
      </trkpt>
      <trkpt lat="45.38891" lon="4.61606">
        <ele>1227.1</ele>
        <time>2021-06-09T10:06:50Z</time>
      </trkpt>
      <trkpt lat="45.38904" lon="4.61593">
        <ele>1229.16</ele>
        <time>2021-06-09T10:07:06Z</time>
      </trkpt>
      <trkpt lat="45.38905" lon="4.6159">
        <ele>1229.24</ele>
        <time>2021-06-09T10:07:08Z</time>
      </trkpt>
      <trkpt lat="45.38908" lon="4.61568">
        <ele>1230.97</ele>
        <time>2021-06-09T10:07:28Z</time>
      </trkpt>
      <trkpt lat="45.38908" lon="4.61565">
        <ele>1231.29</ele>
        <time>2021-06-09T10:07:49Z</time>
      </trkpt>
      <trkpt lat="45.38911" lon="4.61553">
        <ele>1233.17</ele>
        <time>2021-06-09T10:08:10Z</time>
      </trkpt>
      <trkpt lat="45.38912" lon="4.6154">
        <ele>1234.11</ele>
        <time>2021-06-09T10:08:30Z</time>
      </trkpt>
      <trkpt lat="45.38912" lon="4.61531">
        <ele>1233.96</ele>
        <time>2021-06-09T10:08:52Z</time>
      </trkpt>
      <trkpt lat="45.38911" lon="4.61523">
        <ele>1234.29</ele>
        <time>2021-06-09T10:09:11Z</time>
      </trkpt>
      <trkpt lat="45.38912" lon="4.61521">
        <ele>1234.9</ele>
        <time>2021-06-09T10:09:29Z</time>
      </trkpt>
      <trkpt lat="45.38911" lon="4.61524">
        <ele>1234.64</ele>
        <time>2021-06-09T10:09:48Z</time>
      </trkpt>
      <trkpt lat="45.3891" lon="4.61521">
        <ele>1233.78</ele>
        <time>2021-06-09T10:10:18Z</time>
      </trkpt>
      <trkpt lat="45.38909" lon="4.61526">
        <ele>1234.13</ele>
        <time>2021-06-09T10:10:37Z</time>
      </trkpt>
      <trkpt lat="45.38911" lon="4.61528">
        <ele>1233.91</ele>
        <time>2021-06-09T10:11:06Z</time>
      </trkpt>
      <trkpt lat="45.38909" lon="4.61527">
        <ele>1234.21</ele>
        <time>2021-06-09T10:11:37Z</time>
      </trkpt>
      <trkpt lat="45.38907" lon="4.61524">
        <ele>1234.08</ele>
        <time>2021-06-09T10:12:06Z</time>
      </trkpt>
      <trkpt lat="45.3891" lon="4.61526">
        <ele>1234.34</ele>
        <time>2021-06-09T10:12:39Z</time>
      </trkpt>
      <trkpt lat="45.3891" lon="4.61527">
        <ele>1234.12</ele>
        <time>2021-06-09T10:13:15Z</time>
      </trkpt>
      <trkpt lat="45.38907" lon="4.61528">
        <ele>1234.65</ele>
        <time>2021-06-09T10:13:49Z</time>
      </trkpt>
      <trkpt lat="45.3891" lon="4.61524">
        <ele>1234.97</ele>
        <time>2021-06-09T10:14:18Z</time>
      </trkpt>
      <trkpt lat="45.38908" lon="4.61525">
        <ele>1235.02</ele>
        <time>2021-06-09T10:14:50Z</time>
      </trkpt>
      <trkpt lat="45.38906" lon="4.61524">
        <ele>1234.97</ele>
        <time>2021-06-09T10:15:27Z</time>
      </trkpt>
      <trkpt lat="45.38902" lon="4.61528">
        <ele>1234.91</ele>
        <time>2021-06-09T10:16:01Z</time>
      </trkpt>
      <trkpt lat="45.38901" lon="4.61518">
        <ele>1234.69</ele>
        <time>2021-06-09T10:16:29Z</time>
      </trkpt>
      <trkpt lat="45.38908" lon="4.61517">
        <ele>1235.26</ele>
        <time>2021-06-09T10:17:01Z</time>
      </trkpt>
      <trkpt lat="45.38911" lon="4.61516">
        <ele>1235.33</ele>
        <time>2021-06-09T10:17:29Z</time>
      </trkpt>
      <trkpt lat="45.38906" lon="4.61518">
        <ele>1235.11</ele>
        <time>2021-06-09T10:17:58Z</time>
      </trkpt>
      <trkpt lat="45.38905" lon="4.61523">
        <ele>1235.35</ele>
        <time>2021-06-09T10:18:33Z</time>
      </trkpt>
      <trkpt lat="45.38907" lon="4.6152">
        <ele>1235.3</ele>
        <time>2021-06-09T10:19:11Z</time>
      </trkpt>
      <trkpt lat="45.3891" lon="4.61522">
        <ele>1235.77</ele>
        <time>2021-06-09T10:20:02Z</time>
      </trkpt>
      <trkpt lat="45.38911" lon="4.6152">
        <ele>1235.73</ele>
        <time>2021-06-09T10:20:36Z</time>
      </trkpt>
      <trkpt lat="45.38911" lon="4.6152">
        <ele>1236.05</ele>
        <time>2021-06-09T10:21:11Z</time>
      </trkpt>
      <trkpt lat="45.38909" lon="4.6152">
        <ele>1236.1</ele>
        <time>2021-06-09T10:21:54Z</time>
      </trkpt>
      <trkpt lat="45.38908" lon="4.61523">
        <ele>1236.24</ele>
        <time>2021-06-09T10:22:23Z</time>
      </trkpt>
      <trkpt lat="45.38909" lon="4.61524">
        <ele>1236.3</ele>
        <time>2021-06-09T10:22:53Z</time>
      </trkpt>
      <trkpt lat="45.3891" lon="4.61518">
        <ele>1236.57</ele>
        <time>2021-06-09T10:23:20Z</time>
      </trkpt>
      <trkpt lat="45.38913" lon="4.61518">
        <ele>1236.19</ele>
        <time>2021-06-09T10:23:57Z</time>
      </trkpt>
      <trkpt lat="45.38913" lon="4.61517">
        <ele>1236.62</ele>
        <time>2021-06-09T10:24:48Z</time>
      </trkpt>
      <trkpt lat="45.38912" lon="4.61519">
        <ele>1236.69</ele>
        <time>2021-06-09T10:25:20Z</time>
      </trkpt>
      <trkpt lat="45.38916" lon="4.61518">
        <ele>1236.72</ele>
        <time>2021-06-09T10:25:50Z</time>
      </trkpt>
      <trkpt lat="45.38916" lon="4.61519">
        <ele>1236.9</ele>
        <time>2021-06-09T10:26:33Z</time>
      </trkpt>
      <trkpt lat="45.38911" lon="4.61519">
        <ele>1236.88</ele>
        <time>2021-06-09T10:27:02Z</time>
      </trkpt>
      <trkpt lat="45.38911" lon="4.61519">
        <ele>1237.19</ele>
        <time>2021-06-09T10:27:39Z</time>
      </trkpt>
      <trkpt lat="45.38912" lon="4.61517">
        <ele>1237.33</ele>
        <time>2021-06-09T10:28:28Z</time>
      </trkpt>
      <trkpt lat="45.38912" lon="4.61516">
        <ele>1237.88</ele>
        <time>2021-06-09T10:29:18Z</time>
      </trkpt>
      <trkpt lat="45.38913" lon="4.61515">
        <ele>1238.49</ele>
        <time>2021-06-09T10:30:18Z</time>
      </trkpt>
      <trkpt lat="45.38914" lon="4.61518">
        <ele>1238.7</ele>
        <time>2021-06-09T10:31:06Z</time>
      </trkpt>
      <trkpt lat="45.38909" lon="4.61516">
        <ele>1239.14</ele>
        <time>2021-06-09T10:31:53Z</time>
      </trkpt>
      <trkpt lat="45.38912" lon="4.61516">
        <ele>1239.49</ele>
        <time>2021-06-09T10:32:24Z</time>
      </trkpt>
      <trkpt lat="45.38915" lon="4.61516">
        <ele>1239.77</ele>
        <time>2021-06-09T10:32:53Z</time>
      </trkpt>
      <trkpt lat="45.38915" lon="4.61522">
        <ele>1239.7</ele>
        <time>2021-06-09T10:33:51Z</time>
      </trkpt>
      <trkpt lat="45.38915" lon="4.61522">
        <ele>1239.82</ele>
        <time>2021-06-09T10:34:45Z</time>
      </trkpt>
      <trkpt lat="45.38913" lon="4.61522">
        <ele>1240.43</ele>
        <time>2021-06-09T10:35:31Z</time>
      </trkpt>
      <trkpt lat="45.38915" lon="4.61521">
        <ele>1240.34</ele>
        <time>2021-06-09T10:36:13Z</time>
      </trkpt>
      <trkpt lat="45.38916" lon="4.61522">
        <ele>1240.47</ele>
        <time>2021-06-09T10:37:02Z</time>
      </trkpt>
      <trkpt lat="45.38916" lon="4.61523">
        <ele>1241.24</ele>
        <time>2021-06-09T10:37:50Z</time>
      </trkpt>
      <trkpt lat="45.38915" lon="4.6152">
        <ele>1241.22</ele>
        <time>2021-06-09T10:38:47Z</time>
      </trkpt>
      <trkpt lat="45.38915" lon="4.61521">
        <ele>1241.32</ele>
        <time>2021-06-09T10:39:14Z</time>
      </trkpt>
      <trkpt lat="45.3891" lon="4.61519">
        <ele>1241.79</ele>
        <time>2021-06-09T10:39:52Z</time>
      </trkpt>
      <trkpt lat="45.38909" lon="4.6152">
        <ele>1241.8</ele>
        <time>2021-06-09T10:40:46Z</time>
      </trkpt>
      <trkpt lat="45.38913" lon="4.61519">
        <ele>1242.25</ele>
        <time>2021-06-09T10:41:34Z</time>
      </trkpt>
      <trkpt lat="45.38911" lon="4.61516">
        <ele>1242.56</ele>
        <time>2021-06-09T10:42:28Z</time>
      </trkpt>
      <trkpt lat="45.38911" lon="4.61515">
        <ele>1242.66</ele>
        <time>2021-06-09T10:43:31Z</time>
      </trkpt>
      <trkpt lat="45.38915" lon="4.61519">
        <ele>1242.92</ele>
        <time>2021-06-09T10:44:30Z</time>
      </trkpt>
      <trkpt lat="45.38913" lon="4.61522">
        <ele>1243.19</ele>
        <time>2021-06-09T10:45:19Z</time>
      </trkpt>
      <trkpt lat="45.38915" lon="4.61519">
        <ele>1243.2</ele>
        <time>2021-06-09T10:45:58Z</time>
      </trkpt>
      <trkpt lat="45.38916" lon="4.6152">
        <ele>1243.49</ele>
        <time>2021-06-09T10:46:50Z</time>
      </trkpt>
      <trkpt lat="45.38913" lon="4.61521">
        <ele>1243.5</ele>
        <time>2021-06-09T10:47:22Z</time>
      </trkpt>
      <trkpt lat="45.38915" lon="4.6152">
        <ele>1243.23</ele>
        <time>2021-06-09T10:47:53Z</time>
      </trkpt>
      <trkpt lat="45.38912" lon="4.61521">
        <ele>1243.69</ele>
        <time>2021-06-09T10:48:37Z</time>
      </trkpt>
      <trkpt lat="45.38914" lon="4.61526">
        <ele>1243.89</ele>
        <time>2021-06-09T10:49:16Z</time>
      </trkpt>
      <trkpt lat="45.38916" lon="4.61524">
        <ele>1244.01</ele>
        <time>2021-06-09T10:49:46Z</time>
      </trkpt>
      <trkpt lat="45.38914" lon="4.61523">
        <ele>1244.16</ele>
        <time>2021-06-09T10:50:17Z</time>
      </trkpt>
      <trkpt lat="45.3891" lon="4.61529">
        <ele>1243.92</ele>
        <time>2021-06-09T10:50:49Z</time>
      </trkpt>
      <trkpt lat="45.38914" lon="4.61525">
        <ele>1244.08</ele>
        <time>2021-06-09T10:51:18Z</time>
      </trkpt>
      <trkpt lat="45.38913" lon="4.61526">
        <ele>1244.35</ele>
        <time>2021-06-09T10:51:51Z</time>
      </trkpt>
      <trkpt lat="45.38914" lon="4.61526">
        <ele>1245.61</ele>
        <time>2021-06-09T10:52:15Z</time>
      </trkpt>
      <trkpt lat="45.38912" lon="4.61528">
        <ele>1245.07</ele>
        <time>2021-06-09T10:52:42Z</time>
      </trkpt>
      <trkpt lat="45.38914" lon="4.61525">
        <ele>1245.19</ele>
        <time>2021-06-09T10:53:05Z</time>
      </trkpt>
      <trkpt lat="45.38918" lon="4.61526">
        <ele>1244.94</ele>
        <time>2021-06-09T10:53:29Z</time>
      </trkpt>
      <trkpt lat="45.38918" lon="4.61527">
        <ele>1244.51</ele>
        <time>2021-06-09T10:53:54Z</time>
      </trkpt>
      <trkpt lat="45.38911" lon="4.61521">
        <ele>1244.5</ele>
        <time>2021-06-09T10:54:20Z</time>
      </trkpt>
      <trkpt lat="45.38911" lon="4.61516">
        <ele>1244.73</ele>
        <time>2021-06-09T10:54:38Z</time>
      </trkpt>
      <trkpt lat="45.38912" lon="4.61519">
        <ele>1244.96</ele>
        <time>2021-06-09T10:55:06Z</time>
      </trkpt>
      <trkpt lat="45.38912" lon="4.6152">
        <ele>1245.49</ele>
        <time>2021-06-09T10:55:36Z</time>
      </trkpt>
      <trkpt lat="45.38911" lon="4.6152">
        <ele>1245.3</ele>
        <time>2021-06-09T10:56:01Z</time>
      </trkpt>
      <trkpt lat="45.38915" lon="4.61506">
        <ele>1246.98</ele>
        <time>2021-06-09T10:56:18Z</time>
      </trkpt>
      <trkpt lat="45.3892" lon="4.61509">
        <ele>1247</ele>
        <time>2021-06-09T10:56:34Z</time>
      </trkpt>
      <trkpt lat="45.38926" lon="4.61515">
        <ele>1246.94</ele>
        <time>2021-06-09T10:56:53Z</time>
      </trkpt>
      <trkpt lat="45.38935" lon="4.61504">
        <ele>1248.5</ele>
        <time>2021-06-09T10:57:12Z</time>
      </trkpt>
      <trkpt lat="45.38943" lon="4.61483">
        <ele>1250.99</ele>
        <time>2021-06-09T10:57:33Z</time>
      </trkpt>
      <trkpt lat="45.38949" lon="4.61465">
        <ele>1252.92</ele>
        <time>2021-06-09T10:57:54Z</time>
      </trkpt>
      <trkpt lat="45.38959" lon="4.6144">
        <ele>1255.78</ele>
        <time>2021-06-09T10:58:18Z</time>
      </trkpt>
      <trkpt lat="45.38966" lon="4.61431">
        <ele>1257.71</ele>
        <time>2021-06-09T10:58:36Z</time>
      </trkpt>
      <trkpt lat="45.38978" lon="4.61415">
        <ele>1260.47</ele>
        <time>2021-06-09T10:58:59Z</time>
      </trkpt>
      <trkpt lat="45.38986" lon="4.61406">
        <ele>1261.85</ele>
        <time>2021-06-09T10:59:12Z</time>
      </trkpt>
      <trkpt lat="45.38994" lon="4.61396">
        <ele>1263.8</ele>
        <time>2021-06-09T10:59:33Z</time>
      </trkpt>
      <trkpt lat="45.38997" lon="4.61394">
        <ele>1264.49</ele>
        <time>2021-06-09T10:59:39Z</time>
      </trkpt>
      <trkpt lat="45.39006" lon="4.61387">
        <ele>1267.65</ele>
        <time>2021-06-09T11:00:00Z</time>
      </trkpt>
      <trkpt lat="45.39011" lon="4.61384">
        <ele>1268.52</ele>
        <time>2021-06-09T11:00:11Z</time>
      </trkpt>
      <trkpt lat="45.39017" lon="4.61378">
        <ele>1270.14</ele>
        <time>2021-06-09T11:00:21Z</time>
      </trkpt>
      <trkpt lat="45.39033" lon="4.61369">
        <ele>1272.22</ele>
        <time>2021-06-09T11:00:41Z</time>
      </trkpt>
      <trkpt lat="45.39043" lon="4.61357">
        <ele>1275.06</ele>
        <time>2021-06-09T11:01:06Z</time>
      </trkpt>
      <trkpt lat="45.39048" lon="4.61354">
        <ele>1276.8</ele>
        <time>2021-06-09T11:01:28Z</time>
      </trkpt>
      <trkpt lat="45.39055" lon="4.61355">
        <ele>1279.96</ele>
        <time>2021-06-09T11:01:45Z</time>
      </trkpt>
      <trkpt lat="45.39058" lon="4.6135">
        <ele>1282.23</ele>
        <time>2021-06-09T11:02:00Z</time>
      </trkpt>
      <trkpt lat="45.3906" lon="4.61334">
        <ele>1282.85</ele>
        <time>2021-06-09T11:02:17Z</time>
      </trkpt>
      <trkpt lat="45.39058" lon="4.61329">
        <ele>1282.7</ele>
        <time>2021-06-09T11:02:34Z</time>
      </trkpt>
      <trkpt lat="45.39055" lon="4.61326">
        <ele>1282.3</ele>
        <time>2021-06-09T11:02:51Z</time>
      </trkpt>
      <trkpt lat="45.3906" lon="4.61329">
        <ele>1282.65</ele>
        <time>2021-06-09T11:03:08Z</time>
      </trkpt>
      <trkpt lat="45.39068" lon="4.61348">
        <ele>1283.45</ele>
        <time>2021-06-09T11:03:17Z</time>
      </trkpt>
      <trkpt lat="45.3908" lon="4.61354">
        <ele>1284.92</ele>
        <time>2021-06-09T11:03:22Z</time>
      </trkpt>
      <trkpt lat="45.39087" lon="4.61344">
        <ele>1286.66</ele>
        <time>2021-06-09T11:03:27Z</time>
      </trkpt>
      <trkpt lat="45.39084" lon="4.6133">
        <ele>1288.15</ele>
        <time>2021-06-09T11:03:38Z</time>
      </trkpt>
      <trkpt lat="45.39082" lon="4.61312">
        <ele>1289.38</ele>
        <time>2021-06-09T11:03:52Z</time>
      </trkpt>
      <trkpt lat="45.39081" lon="4.61303">
        <ele>1290.05</ele>
        <time>2021-06-09T11:04:07Z</time>
      </trkpt>
      <trkpt lat="45.39082" lon="4.61296">
        <ele>1290.51</ele>
        <time>2021-06-09T11:04:26Z</time>
      </trkpt>
      <trkpt lat="45.3908" lon="4.61286">
        <ele>1291.32</ele>
        <time>2021-06-09T11:04:35Z</time>
      </trkpt>
      <trkpt lat="45.3908" lon="4.61267">
        <ele>1292.85</ele>
        <time>2021-06-09T11:04:49Z</time>
      </trkpt>
      <trkpt lat="45.39079" lon="4.61246">
        <ele>1294.43</ele>
        <time>2021-06-09T11:05:06Z</time>
      </trkpt>
      <trkpt lat="45.3908" lon="4.61244">
        <ele>1294.14</ele>
        <time>2021-06-09T11:05:25Z</time>
      </trkpt>
      <trkpt lat="45.3908" lon="4.61244">
        <ele>1293.16</ele>
        <time>2021-06-09T11:05:44Z</time>
      </trkpt>
      <trkpt lat="45.39079" lon="4.61245">
        <ele>1293.03</ele>
        <time>2021-06-09T11:06:08Z</time>
      </trkpt>
      <trkpt lat="45.39079" lon="4.61244">
        <ele>1294.27</ele>
        <time>2021-06-09T11:06:14Z</time>
      </trkpt>
      <trkpt lat="45.39078" lon="4.61228">
        <ele>1294.93</ele>
        <time>2021-06-09T11:06:28Z</time>
      </trkpt>
      <trkpt lat="45.3908" lon="4.61206">
        <ele>1296.73</ele>
        <time>2021-06-09T11:06:43Z</time>
      </trkpt>
      <trkpt lat="45.39082" lon="4.61187">
        <ele>1296.72</ele>
        <time>2021-06-09T11:06:55Z</time>
      </trkpt>
      <trkpt lat="45.39084" lon="4.6117">
        <ele>1298.09</ele>
        <time>2021-06-09T11:07:08Z</time>
      </trkpt>
      <trkpt lat="45.39089" lon="4.61154">
        <ele>1300.35</ele>
        <time>2021-06-09T11:07:23Z</time>
      </trkpt>
      <trkpt lat="45.39089" lon="4.61152">
        <ele>1300.71</ele>
        <time>2021-06-09T11:07:32Z</time>
      </trkpt>
      <trkpt lat="45.3909" lon="4.61144">
        <ele>1300.87</ele>
        <time>2021-06-09T11:07:37Z</time>
      </trkpt>
      <trkpt lat="45.3909" lon="4.61136">
        <ele>1301.62</ele>
        <time>2021-06-09T11:07:42Z</time>
      </trkpt>
      <trkpt lat="45.39096" lon="4.61114">
        <ele>1304.06</ele>
        <time>2021-06-09T11:07:58Z</time>
      </trkpt>
      <trkpt lat="45.39099" lon="4.61101">
        <ele>1304.46</ele>
        <time>2021-06-09T11:08:07Z</time>
      </trkpt>
      <trkpt lat="45.39101" lon="4.61089">
        <ele>1304.89</ele>
        <time>2021-06-09T11:08:15Z</time>
      </trkpt>
      <trkpt lat="45.39107" lon="4.61067">
        <ele>1307.21</ele>
        <time>2021-06-09T11:08:29Z</time>
      </trkpt>
      <trkpt lat="45.39109" lon="4.61055">
        <ele>1308.29</ele>
        <time>2021-06-09T11:08:37Z</time>
      </trkpt>
      <trkpt lat="45.39109" lon="4.6105">
        <ele>1308.46</ele>
        <time>2021-06-09T11:08:40Z</time>
      </trkpt>
      <trkpt lat="45.3911" lon="4.61043">
        <ele>1308.7</ele>
        <time>2021-06-09T11:08:45Z</time>
      </trkpt>
      <trkpt lat="45.39112" lon="4.6104">
        <ele>1308.99</ele>
        <time>2021-06-09T11:08:47Z</time>
      </trkpt>
      <trkpt lat="45.39114" lon="4.61034">
        <ele>1310.03</ele>
        <time>2021-06-09T11:08:59Z</time>
      </trkpt>
      <trkpt lat="45.39118" lon="4.61024">
        <ele>1310.81</ele>
        <time>2021-06-09T11:09:12Z</time>
      </trkpt>
      <trkpt lat="45.3912" lon="4.61006">
        <ele>1312.65</ele>
        <time>2021-06-09T11:09:25Z</time>
      </trkpt>
      <trkpt lat="45.39122" lon="4.61">
        <ele>1313.39</ele>
        <time>2021-06-09T11:09:30Z</time>
      </trkpt>
      <trkpt lat="45.39124" lon="4.60981">
        <ele>1314.47</ele>
        <time>2021-06-09T11:09:45Z</time>
      </trkpt>
      <trkpt lat="45.39124" lon="4.60978">
        <ele>1314.76</ele>
        <time>2021-06-09T11:09:47Z</time>
      </trkpt>
      <trkpt lat="45.39123" lon="4.60973">
        <ele>1315.15</ele>
        <time>2021-06-09T11:09:51Z</time>
      </trkpt>
      <trkpt lat="45.39124" lon="4.60954">
        <ele>1316.41</ele>
        <time>2021-06-09T11:10:05Z</time>
      </trkpt>
      <trkpt lat="45.39125" lon="4.60944">
        <ele>1316.95</ele>
        <time>2021-06-09T11:10:11Z</time>
      </trkpt>
      <trkpt lat="45.39123" lon="4.60926">
        <ele>1317.97</ele>
        <time>2021-06-09T11:10:27Z</time>
      </trkpt>
      <trkpt lat="45.39123" lon="4.60918">
        <ele>1318.52</ele>
        <time>2021-06-09T11:10:39Z</time>
      </trkpt>
      <trkpt lat="45.39125" lon="4.60902">
        <ele>1320.06</ele>
        <time>2021-06-09T11:10:50Z</time>
      </trkpt>
      <trkpt lat="45.39128" lon="4.60889">
        <ele>1321.25</ele>
        <time>2021-06-09T11:10:58Z</time>
      </trkpt>
      <trkpt lat="45.39134" lon="4.60868">
        <ele>1322.7</ele>
        <time>2021-06-09T11:11:11Z</time>
      </trkpt>
      <trkpt lat="45.39146" lon="4.6086">
        <ele>1324.41</ele>
        <time>2021-06-09T11:11:26Z</time>
      </trkpt>
      <trkpt lat="45.3915" lon="4.60867">
        <ele>1326.25</ele>
        <time>2021-06-09T11:11:36Z</time>
      </trkpt>
      <trkpt lat="45.39154" lon="4.60875">
        <ele>1328.14</ele>
        <time>2021-06-09T11:11:48Z</time>
      </trkpt>
      <trkpt lat="45.39159" lon="4.60885">
        <ele>1331.02</ele>
        <time>2021-06-09T11:12:04Z</time>
      </trkpt>
      <trkpt lat="45.39166" lon="4.60895">
        <ele>1332.8</ele>
        <time>2021-06-09T11:12:17Z</time>
      </trkpt>
      <trkpt lat="45.39171" lon="4.60905">
        <ele>1335.02</ele>
        <time>2021-06-09T11:12:28Z</time>
      </trkpt>
      <trkpt lat="45.39172" lon="4.6091">
        <ele>1335.5</ele>
        <time>2021-06-09T11:12:32Z</time>
      </trkpt>
      <trkpt lat="45.39177" lon="4.60916">
        <ele>1336.73</ele>
        <time>2021-06-09T11:12:38Z</time>
      </trkpt>
      <trkpt lat="45.39186" lon="4.60928">
        <ele>1338.14</ele>
        <time>2021-06-09T11:12:50Z</time>
      </trkpt>
      <trkpt lat="45.39193" lon="4.60938">
        <ele>1339.55</ele>
        <time>2021-06-09T11:13:01Z</time>
      </trkpt>
      <trkpt lat="45.39195" lon="4.60939">
        <ele>1340.03</ele>
        <time>2021-06-09T11:13:03Z</time>
      </trkpt>
      <trkpt lat="45.392" lon="4.60945">
        <ele>1341.2</ele>
        <time>2021-06-09T11:13:10Z</time>
      </trkpt>
      <trkpt lat="45.39208" lon="4.60956">
        <ele>1342.58</ele>
        <time>2021-06-09T11:13:22Z</time>
      </trkpt>
      <trkpt lat="45.39214" lon="4.60967">
        <ele>1344.35</ele>
        <time>2021-06-09T11:13:35Z</time>
      </trkpt>
      <trkpt lat="45.39216" lon="4.6098">
        <ele>1347.26</ele>
        <time>2021-06-09T11:13:51Z</time>
      </trkpt>
      <trkpt lat="45.39221" lon="4.6099">
        <ele>1350.22</ele>
        <time>2021-06-09T11:14:07Z</time>
      </trkpt>
      <trkpt lat="45.39223" lon="4.61004">
        <ele>1352.43</ele>
        <time>2021-06-09T11:14:25Z</time>
      </trkpt>
      <trkpt lat="45.39223" lon="4.61005">
        <ele>1352.44</ele>
        <time>2021-06-09T11:14:26Z</time>
      </trkpt>
      <trkpt lat="45.39228" lon="4.61024">
        <ele>1353.5</ele>
        <time>2021-06-09T11:14:42Z</time>
      </trkpt>
      <trkpt lat="45.39228" lon="4.61026">
        <ele>1353.55</ele>
        <time>2021-06-09T11:14:44Z</time>
      </trkpt>
      <trkpt lat="45.39229" lon="4.61045">
        <ele>1354.85</ele>
        <time>2021-06-09T11:14:59Z</time>
      </trkpt>
      <trkpt lat="45.39231" lon="4.61046">
        <ele>1354.71</ele>
        <time>2021-06-09T11:15:11Z</time>
      </trkpt>
      <trkpt lat="45.39239" lon="4.61044">
        <ele>1357.16</ele>
        <time>2021-06-09T11:15:25Z</time>
      </trkpt>
      <trkpt lat="45.39244" lon="4.61045">
        <ele>1358.55</ele>
        <time>2021-06-09T11:15:38Z</time>
      </trkpt>
      <trkpt lat="45.39247" lon="4.61048">
        <ele>1359.96</ele>
        <time>2021-06-09T11:15:54Z</time>
      </trkpt>
      <trkpt lat="45.39254" lon="4.61048">
        <ele>1359.82</ele>
        <time>2021-06-09T11:16:09Z</time>
      </trkpt>
      <trkpt lat="45.39255" lon="4.6105">
        <ele>1359.82</ele>
        <time>2021-06-09T11:16:11Z</time>
      </trkpt>
      <trkpt lat="45.39263" lon="4.61068">
        <ele>1359.98</ele>
        <time>2021-06-09T11:16:29Z</time>
      </trkpt>
      <trkpt lat="45.39265" lon="4.61077">
        <ele>1360.42</ele>
        <time>2021-06-09T11:16:41Z</time>
      </trkpt>
      <trkpt lat="45.39266" lon="4.61087">
        <ele>1360.18</ele>
        <time>2021-06-09T11:16:48Z</time>
      </trkpt>
      <trkpt lat="45.39267" lon="4.61094">
        <ele>1360.55</ele>
        <time>2021-06-09T11:16:53Z</time>
      </trkpt>
      <trkpt lat="45.39268" lon="4.61097">
        <ele>1360.84</ele>
        <time>2021-06-09T11:16:55Z</time>
      </trkpt>
      <trkpt lat="45.39268" lon="4.61103">
        <ele>1360.69</ele>
        <time>2021-06-09T11:16:59Z</time>
      </trkpt>
      <trkpt lat="45.3927" lon="4.61117">
        <ele>1360.32</ele>
        <time>2021-06-09T11:17:13Z</time>
      </trkpt>
      <trkpt lat="45.3927" lon="4.61118">
        <ele>1359.78</ele>
        <time>2021-06-09T11:17:15Z</time>
      </trkpt>
      <trkpt lat="45.39271" lon="4.61122">
        <ele>1359.95</ele>
        <time>2021-06-09T11:17:18Z</time>
      </trkpt>
      <trkpt lat="45.39274" lon="4.61145">
        <ele>1361.71</ele>
        <time>2021-06-09T11:17:32Z</time>
      </trkpt>
      <trkpt lat="45.39277" lon="4.61169">
        <ele>1361.96</ele>
        <time>2021-06-09T11:17:49Z</time>
      </trkpt>
      <trkpt lat="45.39277" lon="4.61171">
        <ele>1362.23</ele>
        <time>2021-06-09T11:17:50Z</time>
      </trkpt>
      <trkpt lat="45.39277" lon="4.61178">
        <ele>1361.53</ele>
        <time>2021-06-09T11:17:55Z</time>
      </trkpt>
      <trkpt lat="45.39276" lon="4.61182">
        <ele>1361.74</ele>
        <time>2021-06-09T11:17:58Z</time>
      </trkpt>
      <trkpt lat="45.39272" lon="4.61194">
        <ele>1362.21</ele>
        <time>2021-06-09T11:18:11Z</time>
      </trkpt>
      <trkpt lat="45.39269" lon="4.61198">
        <ele>1362.61</ele>
        <time>2021-06-09T11:18:22Z</time>
      </trkpt>
      <trkpt lat="45.39272" lon="4.61202">
        <ele>1361.61</ele>
        <time>2021-06-09T11:18:37Z</time>
      </trkpt>
      <trkpt lat="45.39271" lon="4.61218">
        <ele>1361.67</ele>
        <time>2021-06-09T11:18:52Z</time>
      </trkpt>
      <trkpt lat="45.39268" lon="4.61222">
        <ele>1361.64</ele>
        <time>2021-06-09T11:19:12Z</time>
      </trkpt>
      <trkpt lat="45.39266" lon="4.61223">
        <ele>1361.58</ele>
        <time>2021-06-09T11:19:39Z</time>
      </trkpt>
      <trkpt lat="45.39266" lon="4.61223">
        <ele>1360.57</ele>
        <time>2021-06-09T11:20:04Z</time>
      </trkpt>
      <trkpt lat="45.39269" lon="4.6123">
        <ele>1360.62</ele>
        <time>2021-06-09T11:20:34Z</time>
      </trkpt>
      <trkpt lat="45.39269" lon="4.61233">
        <ele>1359.59</ele>
        <time>2021-06-09T11:20:58Z</time>
      </trkpt>
      <trkpt lat="45.39269" lon="4.61231">
        <ele>1359.67</ele>
        <time>2021-06-09T11:21:45Z</time>
      </trkpt>
      <trkpt lat="45.39269" lon="4.61226">
        <ele>1360.46</ele>
        <time>2021-06-09T11:22:13Z</time>
      </trkpt>
      <trkpt lat="45.39271" lon="4.6122">
        <ele>1362.74</ele>
        <time>2021-06-09T11:22:23Z</time>
      </trkpt>
      <trkpt lat="45.39272" lon="4.61219">
        <ele>1361.68</ele>
        <time>2021-06-09T11:22:56Z</time>
      </trkpt>
      <trkpt lat="45.3927" lon="4.61219">
        <ele>1361.12</ele>
        <time>2021-06-09T11:23:33Z</time>
      </trkpt>
      <trkpt lat="45.39271" lon="4.61218">
        <ele>1360.25</ele>
        <time>2021-06-09T11:23:37Z</time>
      </trkpt>
      <trkpt lat="45.3927" lon="4.61209">
        <ele>1361.38</ele>
        <time>2021-06-09T11:23:52Z</time>
      </trkpt>
      <trkpt lat="45.39266" lon="4.61207">
        <ele>1362.14</ele>
        <time>2021-06-09T11:24:11Z</time>
      </trkpt>
      <trkpt lat="45.39271" lon="4.61214">
        <ele>1361.95</ele>
        <time>2021-06-09T11:24:31Z</time>
      </trkpt>
      <trkpt lat="45.39269" lon="4.61216">
        <ele>1360.26</ele>
        <time>2021-06-09T11:24:47Z</time>
      </trkpt>
      <trkpt lat="45.39271" lon="4.61217">
        <ele>1361.93</ele>
        <time>2021-06-09T11:25:10Z</time>
      </trkpt>
      <trkpt lat="45.39273" lon="4.61219">
        <ele>1359.67</ele>
        <time>2021-06-09T11:25:27Z</time>
      </trkpt>
      <trkpt lat="45.39271" lon="4.61219">
        <ele>1361.34</ele>
        <time>2021-06-09T11:25:50Z</time>
      </trkpt>
      <trkpt lat="45.39271" lon="4.61218">
        <ele>1360.86</ele>
        <time>2021-06-09T11:26:06Z</time>
      </trkpt>
      <trkpt lat="45.39271" lon="4.61216">
        <ele>1361.42</ele>
        <time>2021-06-09T11:26:27Z</time>
      </trkpt>
      <trkpt lat="45.39271" lon="4.61211">
        <ele>1361.66</ele>
        <time>2021-06-09T11:26:52Z</time>
      </trkpt>
      <trkpt lat="45.39272" lon="4.61209">
        <ele>1361.75</ele>
        <time>2021-06-09T11:26:54Z</time>
      </trkpt>
      <trkpt lat="45.39268" lon="4.61194">
        <ele>1361.52</ele>
        <time>2021-06-09T11:27:08Z</time>
      </trkpt>
      <trkpt lat="45.39268" lon="4.61182">
        <ele>1362.75</ele>
        <time>2021-06-09T11:27:25Z</time>
      </trkpt>
      <trkpt lat="45.39267" lon="4.61178">
        <ele>1362.55</ele>
        <time>2021-06-09T11:27:38Z</time>
      </trkpt>
      <trkpt lat="45.39261" lon="4.61173">
        <ele>1361.78</ele>
        <time>2021-06-09T11:27:56Z</time>
      </trkpt>
      <trkpt lat="45.39254" lon="4.61173">
        <ele>1360.75</ele>
        <time>2021-06-09T11:28:11Z</time>
      </trkpt>
      <trkpt lat="45.39244" lon="4.61175">
        <ele>1358.34</ele>
        <time>2021-06-09T11:28:28Z</time>
      </trkpt>
      <trkpt lat="45.39239" lon="4.61175">
        <ele>1357.59</ele>
        <time>2021-06-09T11:28:42Z</time>
      </trkpt>
      <trkpt lat="45.39233" lon="4.61177">
        <ele>1357.25</ele>
        <time>2021-06-09T11:29:00Z</time>
      </trkpt>
      <trkpt lat="45.39229" lon="4.61175">
        <ele>1356.64</ele>
        <time>2021-06-09T11:29:18Z</time>
      </trkpt>
      <trkpt lat="45.39229" lon="4.6117">
        <ele>1356.31</ele>
        <time>2021-06-09T11:29:35Z</time>
      </trkpt>
      <trkpt lat="45.39229" lon="4.6117">
        <ele>1355.93</ele>
        <time>2021-06-09T11:29:40Z</time>
      </trkpt>
      <trkpt lat="45.39228" lon="4.61159">
        <ele>1356.69</ele>
        <time>2021-06-09T11:29:53Z</time>
      </trkpt>
      <trkpt lat="45.39227" lon="4.61147">
        <ele>1356.15</ele>
        <time>2021-06-09T11:30:07Z</time>
      </trkpt>
      <trkpt lat="45.39226" lon="4.61136">
        <ele>1355.6</ele>
        <time>2021-06-09T11:30:21Z</time>
      </trkpt>
      <trkpt lat="45.39225" lon="4.6113">
        <ele>1355.15</ele>
        <time>2021-06-09T11:30:40Z</time>
      </trkpt>
      <trkpt lat="45.39225" lon="4.61126">
        <ele>1355.01</ele>
        <time>2021-06-09T11:30:43Z</time>
      </trkpt>
      <trkpt lat="45.39224" lon="4.61121">
        <ele>1354.62</ele>
        <time>2021-06-09T11:30:59Z</time>
      </trkpt>
      <trkpt lat="45.39225" lon="4.61117">
        <ele>1354.4</ele>
        <time>2021-06-09T11:31:05Z</time>
      </trkpt>
      <trkpt lat="45.39225" lon="4.61106">
        <ele>1354.46</ele>
        <time>2021-06-09T11:31:18Z</time>
      </trkpt>
      <trkpt lat="45.39227" lon="4.61094">
        <ele>1353.33</ele>
        <time>2021-06-09T11:31:33Z</time>
      </trkpt>
      <trkpt lat="45.39227" lon="4.61081">
        <ele>1354.06</ele>
        <time>2021-06-09T11:31:46Z</time>
      </trkpt>
      <trkpt lat="45.39226" lon="4.61064">
        <ele>1353.17</ele>
        <time>2021-06-09T11:32:07Z</time>
      </trkpt>
      <trkpt lat="45.39227" lon="4.61049">
        <ele>1352.7</ele>
        <time>2021-06-09T11:32:26Z</time>
      </trkpt>
      <trkpt lat="45.39229" lon="4.61038">
        <ele>1352.07</ele>
        <time>2021-06-09T11:32:40Z</time>
      </trkpt>
      <trkpt lat="45.39228" lon="4.61035">
        <ele>1351.75</ele>
        <time>2021-06-09T11:32:43Z</time>
      </trkpt>
      <trkpt lat="45.39224" lon="4.61027">
        <ele>1351.4</ele>
        <time>2021-06-09T11:33:02Z</time>
      </trkpt>
      <trkpt lat="45.39225" lon="4.61022">
        <ele>1351.05</ele>
        <time>2021-06-09T11:33:17Z</time>
      </trkpt>
      <trkpt lat="45.39224" lon="4.61018">
        <ele>1351.08</ele>
        <time>2021-06-09T11:33:20Z</time>
      </trkpt>
      <trkpt lat="45.39222" lon="4.60997">
        <ele>1349.01</ele>
        <time>2021-06-09T11:33:36Z</time>
      </trkpt>
      <trkpt lat="45.39222" lon="4.60991">
        <ele>1349.63</ele>
        <time>2021-06-09T11:33:50Z</time>
      </trkpt>
      <trkpt lat="45.39221" lon="4.60992">
        <ele>1348.84</ele>
        <time>2021-06-09T11:34:14Z</time>
      </trkpt>
      <trkpt lat="45.39218" lon="4.60985">
        <ele>1346.99</ele>
        <time>2021-06-09T11:34:29Z</time>
      </trkpt>
      <trkpt lat="45.39216" lon="4.60973">
        <ele>1344.37</ele>
        <time>2021-06-09T11:34:43Z</time>
      </trkpt>
      <trkpt lat="45.3921" lon="4.6096">
        <ele>1342.01</ele>
        <time>2021-06-09T11:34:57Z</time>
      </trkpt>
      <trkpt lat="45.39209" lon="4.60959">
        <ele>1341.84</ele>
        <time>2021-06-09T11:34:59Z</time>
      </trkpt>
      <trkpt lat="45.39199" lon="4.60946">
        <ele>1339.84</ele>
        <time>2021-06-09T11:35:16Z</time>
      </trkpt>
      <trkpt lat="45.39192" lon="4.60937">
        <ele>1338.38</ele>
        <time>2021-06-09T11:35:27Z</time>
      </trkpt>
      <trkpt lat="45.39183" lon="4.60925">
        <ele>1337.21</ele>
        <time>2021-06-09T11:35:47Z</time>
      </trkpt>
      <trkpt lat="45.39182" lon="4.60923">
        <ele>1337.2</ele>
        <time>2021-06-09T11:36:04Z</time>
      </trkpt>
      <trkpt lat="45.39181" lon="4.60922">
        <ele>1337.18</ele>
        <time>2021-06-09T11:36:08Z</time>
      </trkpt>
      <trkpt lat="45.39174" lon="4.60914">
        <ele>1335.59</ele>
        <time>2021-06-09T11:36:22Z</time>
      </trkpt>
      <trkpt lat="45.39167" lon="4.60901">
        <ele>1333.37</ele>
        <time>2021-06-09T11:36:38Z</time>
      </trkpt>
      <trkpt lat="45.39161" lon="4.6089">
        <ele>1331.55</ele>
        <time>2021-06-09T11:36:52Z</time>
      </trkpt>
      <trkpt lat="45.39155" lon="4.60882">
        <ele>1329.64</ele>
        <time>2021-06-09T11:37:03Z</time>
      </trkpt>
      <trkpt lat="45.39148" lon="4.60867">
        <ele>1326.51</ele>
        <time>2021-06-09T11:37:18Z</time>
      </trkpt>
      <trkpt lat="45.39143" lon="4.60862">
        <ele>1324.84</ele>
        <time>2021-06-09T11:37:31Z</time>
      </trkpt>
      <trkpt lat="45.39138" lon="4.60852">
        <ele>1323.54</ele>
        <time>2021-06-09T11:37:45Z</time>
      </trkpt>
      <trkpt lat="45.39134" lon="4.60856">
        <ele>1323</ele>
        <time>2021-06-09T11:37:52Z</time>
      </trkpt>
      <trkpt lat="45.39131" lon="4.60865">
        <ele>1322.71</ele>
        <time>2021-06-09T11:38:07Z</time>
      </trkpt>
      <trkpt lat="45.39129" lon="4.60863">
        <ele>1322.5</ele>
        <time>2021-06-09T11:38:29Z</time>
      </trkpt>
      <trkpt lat="45.39125" lon="4.60865">
        <ele>1321.94</ele>
        <time>2021-06-09T11:38:41Z</time>
      </trkpt>
      <trkpt lat="45.39124" lon="4.6088">
        <ele>1321.98</ele>
        <time>2021-06-09T11:38:57Z</time>
      </trkpt>
      <trkpt lat="45.39124" lon="4.60886">
        <ele>1321.03</ele>
        <time>2021-06-09T11:39:01Z</time>
      </trkpt>
      <trkpt lat="45.39123" lon="4.60902">
        <ele>1320.15</ele>
        <time>2021-06-09T11:39:12Z</time>
      </trkpt>
      <trkpt lat="45.39122" lon="4.60926">
        <ele>1318.22</ele>
        <time>2021-06-09T11:39:28Z</time>
      </trkpt>
      <trkpt lat="45.39122" lon="4.60931">
        <ele>1317.76</ele>
        <time>2021-06-09T11:39:31Z</time>
      </trkpt>
      <trkpt lat="45.39122" lon="4.60959">
        <ele>1316.06</ele>
        <time>2021-06-09T11:39:50Z</time>
      </trkpt>
      <trkpt lat="45.39123" lon="4.60993">
        <ele>1313.8</ele>
        <time>2021-06-09T11:40:11Z</time>
      </trkpt>
      <trkpt lat="45.39122" lon="4.61005">
        <ele>1312.95</ele>
        <time>2021-06-09T11:40:19Z</time>
      </trkpt>
      <trkpt lat="45.3912" lon="4.61012">
        <ele>1312.35</ele>
        <time>2021-06-09T11:40:24Z</time>
      </trkpt>
      <trkpt lat="45.39114" lon="4.61044">
        <ele>1309.78</ele>
        <time>2021-06-09T11:40:46Z</time>
      </trkpt>
      <trkpt lat="45.39106" lon="4.61076">
        <ele>1307.32</ele>
        <time>2021-06-09T11:41:07Z</time>
      </trkpt>
      <trkpt lat="45.39098" lon="4.61108">
        <ele>1304.72</ele>
        <time>2021-06-09T11:41:29Z</time>
      </trkpt>
      <trkpt lat="45.3909" lon="4.61142">
        <ele>1302.13</ele>
        <time>2021-06-09T11:41:51Z</time>
      </trkpt>
      <trkpt lat="45.39089" lon="4.61143">
        <ele>1302.22</ele>
        <time>2021-06-09T11:41:54Z</time>
      </trkpt>
      <trkpt lat="45.39088" lon="4.61146">
        <ele>1301.96</ele>
        <time>2021-06-09T11:41:56Z</time>
      </trkpt>
      <trkpt lat="45.39083" lon="4.61175">
        <ele>1300.1</ele>
        <time>2021-06-09T11:42:16Z</time>
      </trkpt>
      <trkpt lat="45.39083" lon="4.61176">
        <ele>1299.99</ele>
        <time>2021-06-09T11:42:17Z</time>
      </trkpt>
      <trkpt lat="45.39082" lon="4.6118">
        <ele>1299.67</ele>
        <time>2021-06-09T11:42:20Z</time>
      </trkpt>
      <trkpt lat="45.3908" lon="4.61208">
        <ele>1297.73</ele>
        <time>2021-06-09T11:42:40Z</time>
      </trkpt>
      <trkpt lat="45.39079" lon="4.6121">
        <ele>1297.66</ele>
        <time>2021-06-09T11:42:43Z</time>
      </trkpt>
      <trkpt lat="45.3908" lon="4.61216">
        <ele>1296.96</ele>
        <time>2021-06-09T11:42:47Z</time>
      </trkpt>
      <trkpt lat="45.39078" lon="4.61247">
        <ele>1295.1</ele>
        <time>2021-06-09T11:43:09Z</time>
      </trkpt>
      <trkpt lat="45.39072" lon="4.61246">
        <ele>1292.09</ele>
        <time>2021-06-09T11:43:21Z</time>
      </trkpt>
      <trkpt lat="45.39071" lon="4.61247">
        <ele>1291.19</ele>
        <time>2021-06-09T11:43:23Z</time>
      </trkpt>
      <trkpt lat="45.39068" lon="4.61249">
        <ele>1289.9</ele>
        <time>2021-06-09T11:43:26Z</time>
      </trkpt>
      <trkpt lat="45.39062" lon="4.61251">
        <ele>1286.75</ele>
        <time>2021-06-09T11:43:35Z</time>
      </trkpt>
      <trkpt lat="45.39058" lon="4.61255">
        <ele>1285.48</ele>
        <time>2021-06-09T11:43:41Z</time>
      </trkpt>
      <trkpt lat="45.39055" lon="4.61256">
        <ele>1284.82</ele>
        <time>2021-06-09T11:43:43Z</time>
      </trkpt>
      <trkpt lat="45.39046" lon="4.61262">
        <ele>1281.33</ele>
        <time>2021-06-09T11:43:54Z</time>
      </trkpt>
      <trkpt lat="45.39044" lon="4.61263">
        <ele>1281.08</ele>
        <time>2021-06-09T11:43:55Z</time>
      </trkpt>
      <trkpt lat="45.3903" lon="4.61268">
        <ele>1280.07</ele>
        <time>2021-06-09T11:44:10Z</time>
      </trkpt>
      <trkpt lat="45.39028" lon="4.61268">
        <ele>1279.54</ele>
        <time>2021-06-09T11:44:18Z</time>
      </trkpt>
      <trkpt lat="45.39024" lon="4.61268">
        <ele>1277.79</ele>
        <time>2021-06-09T11:44:22Z</time>
      </trkpt>
      <trkpt lat="45.39018" lon="4.61269">
        <ele>1276.05</ele>
        <time>2021-06-09T11:44:26Z</time>
      </trkpt>
      <trkpt lat="45.39014" lon="4.61272">
        <ele>1274.56</ele>
        <time>2021-06-09T11:44:29Z</time>
      </trkpt>
      <trkpt lat="45.39005" lon="4.61282">
        <ele>1271.13</ele>
        <time>2021-06-09T11:44:38Z</time>
      </trkpt>
      <trkpt lat="45.39003" lon="4.61284">
        <ele>1270.44</ele>
        <time>2021-06-09T11:44:40Z</time>
      </trkpt>
      <trkpt lat="45.38997" lon="4.61288">
        <ele>1268.15</ele>
        <time>2021-06-09T11:44:47Z</time>
      </trkpt>
      <trkpt lat="45.3899" lon="4.61291">
        <ele>1266.62</ele>
        <time>2021-06-09T11:44:56Z</time>
      </trkpt>
      <trkpt lat="45.38988" lon="4.61307">
        <ele>1264.88</ele>
        <time>2021-06-09T11:45:10Z</time>
      </trkpt>
      <trkpt lat="45.38977" lon="4.6132">
        <ele>1261.85</ele>
        <time>2021-06-09T11:45:28Z</time>
      </trkpt>
      <trkpt lat="45.38966" lon="4.61327">
        <ele>1259.46</ele>
        <time>2021-06-09T11:45:44Z</time>
      </trkpt>
      <trkpt lat="45.38957" lon="4.61335">
        <ele>1256.66</ele>
        <time>2021-06-09T11:45:59Z</time>
      </trkpt>
      <trkpt lat="45.38956" lon="4.6135">
        <ele>1255.08</ele>
        <time>2021-06-09T11:46:14Z</time>
      </trkpt>
      <trkpt lat="45.38953" lon="4.61369">
        <ele>1253.2</ele>
        <time>2021-06-09T11:46:29Z</time>
      </trkpt>
      <trkpt lat="45.38955" lon="4.61388">
        <ele>1252.62</ele>
        <time>2021-06-09T11:46:48Z</time>
      </trkpt>
      <trkpt lat="45.38952" lon="4.61407">
        <ele>1252.53</ele>
        <time>2021-06-09T11:47:11Z</time>
      </trkpt>
      <trkpt lat="45.38949" lon="4.61423">
        <ele>1250.8</ele>
        <time>2021-06-09T11:47:28Z</time>
      </trkpt>
      <trkpt lat="45.38944" lon="4.61442">
        <ele>1248.26</ele>
        <time>2021-06-09T11:47:45Z</time>
      </trkpt>
      <trkpt lat="45.38934" lon="4.61463">
        <ele>1246.1</ele>
        <time>2021-06-09T11:48:03Z</time>
      </trkpt>
      <trkpt lat="45.38931" lon="4.6147">
        <ele>1245.53</ele>
        <time>2021-06-09T11:48:21Z</time>
      </trkpt>
      <trkpt lat="45.38928" lon="4.61482">
        <ele>1244.61</ele>
        <time>2021-06-09T11:48:34Z</time>
      </trkpt>
      <trkpt lat="45.38921" lon="4.61502">
        <ele>1243.04</ele>
        <time>2021-06-09T11:48:52Z</time>
      </trkpt>
      <trkpt lat="45.38914" lon="4.61511">
        <ele>1241.5</ele>
        <time>2021-06-09T11:49:06Z</time>
      </trkpt>
      <trkpt lat="45.38905" lon="4.61521">
        <ele>1239.62</ele>
        <time>2021-06-09T11:49:17Z</time>
      </trkpt>
      <trkpt lat="45.38899" lon="4.61532">
        <ele>1239.08</ele>
        <time>2021-06-09T11:49:30Z</time>
      </trkpt>
      <trkpt lat="45.38895" lon="4.6154">
        <ele>1238.46</ele>
        <time>2021-06-09T11:49:36Z</time>
      </trkpt>
      <trkpt lat="45.38892" lon="4.61547">
        <ele>1238.08</ele>
        <time>2021-06-09T11:49:42Z</time>
      </trkpt>
      <trkpt lat="45.38891" lon="4.61551">
        <ele>1237.91</ele>
        <time>2021-06-09T11:49:45Z</time>
      </trkpt>
      <trkpt lat="45.38881" lon="4.61569">
        <ele>1235.41</ele>
        <time>2021-06-09T11:50:05Z</time>
      </trkpt>
      <trkpt lat="45.38878" lon="4.6157">
        <ele>1235.98</ele>
        <time>2021-06-09T11:50:10Z</time>
      </trkpt>
      <trkpt lat="45.38876" lon="4.61571">
        <ele>1235.72</ele>
        <time>2021-06-09T11:50:12Z</time>
      </trkpt>
      <trkpt lat="45.38868" lon="4.61573">
        <ele>1234.89</ele>
        <time>2021-06-09T11:50:27Z</time>
      </trkpt>
      <trkpt lat="45.38866" lon="4.61573">
        <ele>1234.09</ele>
        <time>2021-06-09T11:50:30Z</time>
      </trkpt>
      <trkpt lat="45.38855" lon="4.61569">
        <ele>1234.45</ele>
        <time>2021-06-09T11:50:46Z</time>
      </trkpt>
      <trkpt lat="45.3885" lon="4.61562">
        <ele>1233.48</ele>
        <time>2021-06-09T11:51:01Z</time>
      </trkpt>
      <trkpt lat="45.38848" lon="4.61559">
        <ele>1233.99</ele>
        <time>2021-06-09T11:51:04Z</time>
      </trkpt>
      <trkpt lat="45.38842" lon="4.61539">
        <ele>1234.09</ele>
        <time>2021-06-09T11:51:21Z</time>
      </trkpt>
      <trkpt lat="45.38842" lon="4.61538">
        <ele>1234.36</ele>
        <time>2021-06-09T11:51:22Z</time>
      </trkpt>
      <trkpt lat="45.38837" lon="4.61521">
        <ele>1233.31</ele>
        <time>2021-06-09T11:51:37Z</time>
      </trkpt>
      <trkpt lat="45.38834" lon="4.6152">
        <ele>1232.78</ele>
        <time>2021-06-09T11:51:52Z</time>
      </trkpt>
      <trkpt lat="45.38832" lon="4.6152">
        <ele>1232.8</ele>
        <time>2021-06-09T11:51:54Z</time>
      </trkpt>
      <trkpt lat="45.3882" lon="4.61513">
        <ele>1231.24</ele>
        <time>2021-06-09T11:52:10Z</time>
      </trkpt>
      <trkpt lat="45.38818" lon="4.61511">
        <ele>1231.68</ele>
        <time>2021-06-09T11:52:13Z</time>
      </trkpt>
      <trkpt lat="45.38806" lon="4.61491">
        <ele>1229.98</ele>
        <time>2021-06-09T11:52:33Z</time>
      </trkpt>
      <trkpt lat="45.38805" lon="4.61488">
        <ele>1229.94</ele>
        <time>2021-06-09T11:52:35Z</time>
      </trkpt>
      <trkpt lat="45.38797" lon="4.61469">
        <ele>1228.23</ele>
        <time>2021-06-09T11:52:53Z</time>
      </trkpt>
      <trkpt lat="45.3879" lon="4.61452">
        <ele>1226.35</ele>
        <time>2021-06-09T11:53:09Z</time>
      </trkpt>
      <trkpt lat="45.3878" lon="4.61448">
        <ele>1225.48</ele>
        <time>2021-06-09T11:53:23Z</time>
      </trkpt>
      <trkpt lat="45.38769" lon="4.61456">
        <ele>1224.32</ele>
        <time>2021-06-09T11:53:40Z</time>
      </trkpt>
      <trkpt lat="45.38757" lon="4.61464">
        <ele>1223.04</ele>
        <time>2021-06-09T11:54:00Z</time>
      </trkpt>
      <trkpt lat="45.38752" lon="4.61468">
        <ele>1222.64</ele>
        <time>2021-06-09T11:54:18Z</time>
      </trkpt>
      <trkpt lat="45.38733" lon="4.61478">
        <ele>1220.91</ele>
        <time>2021-06-09T11:54:39Z</time>
      </trkpt>
      <trkpt lat="45.38716" lon="4.61486">
        <ele>1219.71</ele>
        <time>2021-06-09T11:54:58Z</time>
      </trkpt>
      <trkpt lat="45.38696" lon="4.61496">
        <ele>1218.03</ele>
        <time>2021-06-09T11:55:20Z</time>
      </trkpt>
      <trkpt lat="45.38678" lon="4.61503">
        <ele>1216.68</ele>
        <time>2021-06-09T11:55:39Z</time>
      </trkpt>
      <trkpt lat="45.38661" lon="4.61505">
        <ele>1215.84</ele>
        <time>2021-06-09T11:55:55Z</time>
      </trkpt>
      <trkpt lat="45.38643" lon="4.61506">
        <ele>1215.07</ele>
        <time>2021-06-09T11:56:13Z</time>
      </trkpt>
      <trkpt lat="45.38624" lon="4.61509">
        <ele>1213.52</ele>
        <time>2021-06-09T11:56:31Z</time>
      </trkpt>
      <trkpt lat="45.38606" lon="4.61513">
        <ele>1212.91</ele>
        <time>2021-06-09T11:56:48Z</time>
      </trkpt>
      <trkpt lat="45.38588" lon="4.61519">
        <ele>1212.01</ele>
        <time>2021-06-09T11:57:06Z</time>
      </trkpt>
      <trkpt lat="45.3857" lon="4.61525">
        <ele>1210.65</ele>
        <time>2021-06-09T11:57:24Z</time>
      </trkpt>
      <trkpt lat="45.38552" lon="4.61533">
        <ele>1210.29</ele>
        <time>2021-06-09T11:57:42Z</time>
      </trkpt>
      <trkpt lat="45.38535" lon="4.6154">
        <ele>1209.16</ele>
        <time>2021-06-09T11:58:00Z</time>
      </trkpt>
      <trkpt lat="45.38521" lon="4.61549">
        <ele>1209.57</ele>
        <time>2021-06-09T11:58:17Z</time>
      </trkpt>
      <trkpt lat="45.38519" lon="4.6155">
        <ele>1209.48</ele>
        <time>2021-06-09T11:58:19Z</time>
      </trkpt>
      <trkpt lat="45.38498" lon="4.61558">
        <ele>1209.41</ele>
        <time>2021-06-09T11:58:40Z</time>
      </trkpt>
      <trkpt lat="45.38494" lon="4.61563">
        <ele>1210.29</ele>
        <time>2021-06-09T11:58:58Z</time>
      </trkpt>
      <trkpt lat="45.38495" lon="4.61564">
        <ele>1210.11</ele>
        <time>2021-06-09T11:59:21Z</time>
      </trkpt>
      <trkpt lat="45.38496" lon="4.61564">
        <ele>1210.37</ele>
        <time>2021-06-09T11:59:50Z</time>
      </trkpt>
      <trkpt lat="45.38496" lon="4.61564">
        <ele>1209.97</ele>
        <time>2021-06-09T12:00:26Z</time>
      </trkpt>
      <trkpt lat="45.38496" lon="4.61564">
        <ele>1210.35</ele>
        <time>2021-06-09T12:01:06Z</time>
      </trkpt>
      <trkpt lat="45.38496" lon="4.61565">
        <ele>1210.08</ele>
        <time>2021-06-09T12:01:43Z</time>
      </trkpt>
      <trkpt lat="45.38495" lon="4.61565">
        <ele>1210.41</ele>
        <time>2021-06-09T12:02:20Z</time>
      </trkpt>
      <trkpt lat="45.38495" lon="4.61565">
        <ele>1210.03</ele>
        <time>2021-06-09T12:02:50Z</time>
      </trkpt>
      <trkpt lat="45.3849" lon="4.61556">
        <ele>1210.27</ele>
        <time>2021-06-09T12:03:04Z</time>
      </trkpt>
      <trkpt lat="45.3849" lon="4.61554">
        <ele>1210.23</ele>
        <time>2021-06-09T12:03:15Z</time>
      </trkpt>
      <trkpt lat="45.38494" lon="4.61563">
        <ele>1209.73</ele>
        <time>2021-06-09T12:03:31Z</time>
      </trkpt>
      <trkpt lat="45.38493" lon="4.61562">
        <ele>1209.14</ele>
        <time>2021-06-09T12:04:06Z</time>
      </trkpt>
      <trkpt lat="45.38488" lon="4.61548">
        <ele>1209.09</ele>
        <time>2021-06-09T12:04:22Z</time>
      </trkpt>
      <trkpt lat="45.38496" lon="4.61541">
        <ele>1209.87</ele>
        <time>2021-06-09T12:04:38Z</time>
      </trkpt>
      <trkpt lat="45.38499" lon="4.61539">
        <ele>1207.26</ele>
        <time>2021-06-09T12:04:48Z</time>
      </trkpt>
      <trkpt lat="45.385" lon="4.61529">
        <ele>1207.64</ele>
        <time>2021-06-09T12:04:55Z</time>
      </trkpt>
      <trkpt lat="45.38502" lon="4.61525">
        <ele>1208.88</ele>
        <time>2021-06-09T12:05:00Z</time>
      </trkpt>
      <trkpt lat="45.38504" lon="4.61529">
        <ele>1209.2</ele>
        <time>2021-06-09T12:05:04Z</time>
      </trkpt>
      <trkpt lat="45.38507" lon="4.61529">
        <ele>1208.31</ele>
        <time>2021-06-09T12:05:17Z</time>
      </trkpt>
      <trkpt lat="45.38502" lon="4.6153">
        <ele>1208.85</ele>
        <time>2021-06-09T12:05:24Z</time>
      </trkpt>
      <trkpt lat="45.385" lon="4.61526">
        <ele>1208.39</ele>
        <time>2021-06-09T12:05:28Z</time>
      </trkpt>
      <trkpt lat="45.38491" lon="4.61523">
        <ele>1207.11</ele>
        <time>2021-06-09T12:05:44Z</time>
      </trkpt>
      <trkpt lat="45.38485" lon="4.6153">
        <ele>1205.91</ele>
        <time>2021-06-09T12:05:58Z</time>
      </trkpt>
      <trkpt lat="45.38477" lon="4.61535">
        <ele>1205.35</ele>
        <time>2021-06-09T12:06:12Z</time>
      </trkpt>
      <trkpt lat="45.38477" lon="4.61536">
        <ele>1203.75</ele>
        <time>2021-06-09T12:06:14Z</time>
      </trkpt>
      <trkpt lat="45.38476" lon="4.61536">
        <ele>1203.93</ele>
        <time>2021-06-09T12:06:36Z</time>
      </trkpt>
      <trkpt lat="45.38477" lon="4.61537">
        <ele>1203.66</ele>
        <time>2021-06-09T12:06:43Z</time>
      </trkpt>
      <trkpt lat="45.38467" lon="4.61544">
        <ele>1201.76</ele>
        <time>2021-06-09T12:06:52Z</time>
      </trkpt>
      <trkpt lat="45.38451" lon="4.61543">
        <ele>1200.06</ele>
        <time>2021-06-09T12:07:07Z</time>
      </trkpt>
      <trkpt lat="45.38448" lon="4.61544">
        <ele>1199.83</ele>
        <time>2021-06-09T12:07:14Z</time>
      </trkpt>
      <trkpt lat="45.38442" lon="4.61544">
        <ele>1199.43</ele>
        <time>2021-06-09T12:07:20Z</time>
      </trkpt>
      <trkpt lat="45.38433" lon="4.61542">
        <ele>1198.47</ele>
        <time>2021-06-09T12:07:34Z</time>
      </trkpt>
      <trkpt lat="45.38432" lon="4.61541">
        <ele>1198.41</ele>
        <time>2021-06-09T12:07:40Z</time>
      </trkpt>
      <trkpt lat="45.38425" lon="4.6154">
        <ele>1197.72</ele>
        <time>2021-06-09T12:07:47Z</time>
      </trkpt>
      <trkpt lat="45.3842" lon="4.61539">
        <ele>1197.27</ele>
        <time>2021-06-09T12:07:55Z</time>
      </trkpt>
      <trkpt lat="45.38413" lon="4.61539">
        <ele>1196.35</ele>
        <time>2021-06-09T12:08:11Z</time>
      </trkpt>
      <trkpt lat="45.38409" lon="4.61537">
        <ele>1196.5</ele>
        <time>2021-06-09T12:08:15Z</time>
      </trkpt>
      <trkpt lat="45.38404" lon="4.61537">
        <ele>1195.73</ele>
        <time>2021-06-09T12:08:35Z</time>
      </trkpt>
      <trkpt lat="45.38401" lon="4.61536">
        <ele>1195.82</ele>
        <time>2021-06-09T12:08:39Z</time>
      </trkpt>
      <trkpt lat="45.3839" lon="4.61534">
        <ele>1194.86</ele>
        <time>2021-06-09T12:08:49Z</time>
      </trkpt>
      <trkpt lat="45.38374" lon="4.6153">
        <ele>1193.48</ele>
        <time>2021-06-09T12:09:03Z</time>
      </trkpt>
      <trkpt lat="45.38356" lon="4.61525">
        <ele>1192.29</ele>
        <time>2021-06-09T12:09:19Z</time>
      </trkpt>
      <trkpt lat="45.38342" lon="4.61521">
        <ele>1190.66</ele>
        <time>2021-06-09T12:09:35Z</time>
      </trkpt>
      <trkpt lat="45.38336" lon="4.61521">
        <ele>1190.4</ele>
        <time>2021-06-09T12:09:50Z</time>
      </trkpt>
      <trkpt lat="45.38333" lon="4.6152">
        <ele>1190.33</ele>
        <time>2021-06-09T12:10:04Z</time>
      </trkpt>
      <trkpt lat="45.38328" lon="4.61519">
        <ele>1189.89</ele>
        <time>2021-06-09T12:10:09Z</time>
      </trkpt>
      <trkpt lat="45.3831" lon="4.61518">
        <ele>1188.64</ele>
        <time>2021-06-09T12:10:27Z</time>
      </trkpt>
      <trkpt lat="45.3829" lon="4.61518">
        <ele>1186.65</ele>
        <time>2021-06-09T12:10:46Z</time>
      </trkpt>
      <trkpt lat="45.38271" lon="4.61517">
        <ele>1184.11</ele>
        <time>2021-06-09T12:11:05Z</time>
      </trkpt>
      <trkpt lat="45.3827" lon="4.61517">
        <ele>1183.82</ele>
        <time>2021-06-09T12:11:09Z</time>
      </trkpt>
      <trkpt lat="45.38253" lon="4.6152">
        <ele>1183.09</ele>
        <time>2021-06-09T12:11:24Z</time>
      </trkpt>
      <trkpt lat="45.38236" lon="4.61524">
        <ele>1180.89</ele>
        <time>2021-06-09T12:11:42Z</time>
      </trkpt>
      <trkpt lat="45.3822" lon="4.61529">
        <ele>1179.17</ele>
        <time>2021-06-09T12:12:00Z</time>
      </trkpt>
      <trkpt lat="45.38215" lon="4.61533">
        <ele>1178.41</ele>
        <time>2021-06-09T12:12:05Z</time>
      </trkpt>
      <trkpt lat="45.38198" lon="4.61539">
        <ele>1176.97</ele>
        <time>2021-06-09T12:12:23Z</time>
      </trkpt>
      <trkpt lat="45.38194" lon="4.61539">
        <ele>1176.7</ele>
        <time>2021-06-09T12:12:28Z</time>
      </trkpt>
      <trkpt lat="45.38192" lon="4.6154">
        <ele>1176.55</ele>
        <time>2021-06-09T12:12:30Z</time>
      </trkpt>
      <trkpt lat="45.38184" lon="4.61541">
        <ele>1175.81</ele>
        <time>2021-06-09T12:12:38Z</time>
      </trkpt>
      <trkpt lat="45.38175" lon="4.61545">
        <ele>1174.83</ele>
        <time>2021-06-09T12:12:45Z</time>
      </trkpt>
      <trkpt lat="45.38157" lon="4.61552">
        <ele>1173.16</ele>
        <time>2021-06-09T12:13:02Z</time>
      </trkpt>
      <trkpt lat="45.38144" lon="4.61552">
        <ele>1171.74</ele>
        <time>2021-06-09T12:13:18Z</time>
      </trkpt>
      <trkpt lat="45.38139" lon="4.61555">
        <ele>1171.25</ele>
        <time>2021-06-09T12:13:32Z</time>
      </trkpt>
      <trkpt lat="45.38135" lon="4.61555">
        <ele>1170.92</ele>
        <time>2021-06-09T12:13:36Z</time>
      </trkpt>
      <trkpt lat="45.38121" lon="4.61558">
        <ele>1168.91</ele>
        <time>2021-06-09T12:13:50Z</time>
      </trkpt>
      <trkpt lat="45.38106" lon="4.61561">
        <ele>1168.12</ele>
        <time>2021-06-09T12:14:05Z</time>
      </trkpt>
      <trkpt lat="45.38087" lon="4.61562">
        <ele>1167.67</ele>
        <time>2021-06-09T12:14:22Z</time>
      </trkpt>
      <trkpt lat="45.38066" lon="4.61563">
        <ele>1167.64</ele>
        <time>2021-06-09T12:14:38Z</time>
      </trkpt>
      <trkpt lat="45.38052" lon="4.61565">
        <ele>1168.2</ele>
        <time>2021-06-09T12:14:51Z</time>
      </trkpt>
      <trkpt lat="45.38039" lon="4.61563">
        <ele>1169.4</ele>
        <time>2021-06-09T12:15:09Z</time>
      </trkpt>
      <trkpt lat="45.38032" lon="4.61561">
        <ele>1169.24</ele>
        <time>2021-06-09T12:15:34Z</time>
      </trkpt>
      <trkpt lat="45.38026" lon="4.61569">
        <ele>1169.71</ele>
        <time>2021-06-09T12:15:58Z</time>
      </trkpt>
      <trkpt lat="45.38012" lon="4.61575">
        <ele>1170.89</ele>
        <time>2021-06-09T12:16:16Z</time>
      </trkpt>
      <trkpt lat="45.37997" lon="4.61585">
        <ele>1171.52</ele>
        <time>2021-06-09T12:16:33Z</time>
      </trkpt>
      <trkpt lat="45.37991" lon="4.61591">
        <ele>1171.69</ele>
        <time>2021-06-09T12:16:40Z</time>
      </trkpt>
      <trkpt lat="45.37972" lon="4.61608">
        <ele>1171.29</ele>
        <time>2021-06-09T12:17:01Z</time>
      </trkpt>
      <trkpt lat="45.37966" lon="4.61612">
        <ele>1171.15</ele>
        <time>2021-06-09T12:17:07Z</time>
      </trkpt>
      <trkpt lat="45.37963" lon="4.61615">
        <ele>1171.17</ele>
        <time>2021-06-09T12:17:10Z</time>
      </trkpt>
      <trkpt lat="45.37949" lon="4.61623">
        <ele>1170.24</ele>
        <time>2021-06-09T12:17:26Z</time>
      </trkpt>
      <trkpt lat="45.37942" lon="4.61628">
        <ele>1169.65</ele>
        <time>2021-06-09T12:17:33Z</time>
      </trkpt>
      <trkpt lat="45.37925" lon="4.61638">
        <ele>1167.59</ele>
        <time>2021-06-09T12:17:51Z</time>
      </trkpt>
      <trkpt lat="45.37912" lon="4.61649">
        <ele>1165.52</ele>
        <time>2021-06-09T12:18:06Z</time>
      </trkpt>
      <trkpt lat="45.37907" lon="4.61651">
        <ele>1165.04</ele>
        <time>2021-06-09T12:18:12Z</time>
      </trkpt>
      <trkpt lat="45.37888" lon="4.6166">
        <ele>1165.1</ele>
        <time>2021-06-09T12:18:30Z</time>
      </trkpt>
      <trkpt lat="45.37884" lon="4.61664">
        <ele>1164.65</ele>
        <time>2021-06-09T12:18:36Z</time>
      </trkpt>
      <trkpt lat="45.37882" lon="4.61665">
        <ele>1164.48</ele>
        <time>2021-06-09T12:18:38Z</time>
      </trkpt>
      <trkpt lat="45.37878" lon="4.61668">
        <ele>1164</ele>
        <time>2021-06-09T12:18:42Z</time>
      </trkpt>
      <trkpt lat="45.37867" lon="4.61675">
        <ele>1162.88</ele>
        <time>2021-06-09T12:18:57Z</time>
      </trkpt>
      <trkpt lat="45.37858" lon="4.61679">
        <ele>1162.51</ele>
        <time>2021-06-09T12:19:08Z</time>
      </trkpt>
      <trkpt lat="45.37848" lon="4.61689">
        <ele>1161.3</ele>
        <time>2021-06-09T12:19:21Z</time>
      </trkpt>
      <trkpt lat="45.37831" lon="4.61697">
        <ele>1159.64</ele>
        <time>2021-06-09T12:19:37Z</time>
      </trkpt>
      <trkpt lat="45.37819" lon="4.61695">
        <ele>1159.72</ele>
        <time>2021-06-09T12:19:51Z</time>
      </trkpt>
      <trkpt lat="45.37808" lon="4.61695">
        <ele>1159.88</ele>
        <time>2021-06-09T12:20:03Z</time>
      </trkpt>
      <trkpt lat="45.37799" lon="4.61696">
        <ele>1159.96</ele>
        <time>2021-06-09T12:20:15Z</time>
      </trkpt>
      <trkpt lat="45.37785" lon="4.61699">
        <ele>1159.89</ele>
        <time>2021-06-09T12:20:31Z</time>
      </trkpt>
      <trkpt lat="45.37772" lon="4.617">
        <ele>1159.74</ele>
        <time>2021-06-09T12:20:47Z</time>
      </trkpt>
      <trkpt lat="45.37757" lon="4.61705">
        <ele>1160.27</ele>
        <time>2021-06-09T12:21:05Z</time>
      </trkpt>
      <trkpt lat="45.37744" lon="4.61709">
        <ele>1159.7</ele>
        <time>2021-06-09T12:21:20Z</time>
      </trkpt>
      <trkpt lat="45.3773" lon="4.61713">
        <ele>1158.61</ele>
        <time>2021-06-09T12:21:38Z</time>
      </trkpt>
      <trkpt lat="45.3771" lon="4.61713">
        <ele>1158.59</ele>
        <time>2021-06-09T12:22:00Z</time>
      </trkpt>
      <trkpt lat="45.37693" lon="4.6172">
        <ele>1158.72</ele>
        <time>2021-06-09T12:22:18Z</time>
      </trkpt>
      <trkpt lat="45.3768" lon="4.6172">
        <ele>1158.21</ele>
        <time>2021-06-09T12:22:31Z</time>
      </trkpt>
      <trkpt lat="45.3767" lon="4.61718">
        <ele>1157.63</ele>
        <time>2021-06-09T12:22:39Z</time>
      </trkpt>
      <trkpt lat="45.37655" lon="4.61712">
        <ele>1156.68</ele>
        <time>2021-06-09T12:22:57Z</time>
      </trkpt>
      <trkpt lat="45.37642" lon="4.61694">
        <ele>1155.95</ele>
        <time>2021-06-09T12:23:13Z</time>
      </trkpt>
      <trkpt lat="45.37634" lon="4.6169">
        <ele>1155.66</ele>
        <time>2021-06-09T12:23:24Z</time>
      </trkpt>
      <trkpt lat="45.37627" lon="4.61694">
        <ele>1154.16</ele>
        <time>2021-06-09T12:23:41Z</time>
      </trkpt>
      <trkpt lat="45.37615" lon="4.61703">
        <ele>1150.9</ele>
        <time>2021-06-09T12:23:55Z</time>
      </trkpt>
      <trkpt lat="45.37605" lon="4.6171">
        <ele>1147.44</ele>
        <time>2021-06-09T12:24:10Z</time>
      </trkpt>
      <trkpt lat="45.37597" lon="4.61711">
        <ele>1144.4</ele>
        <time>2021-06-09T12:24:24Z</time>
      </trkpt>
      <trkpt lat="45.37574" lon="4.61715">
        <ele>1141.23</ele>
        <time>2021-06-09T12:24:40Z</time>
      </trkpt>
      <trkpt lat="45.37559" lon="4.61721">
        <ele>1138.32</ele>
        <time>2021-06-09T12:24:56Z</time>
      </trkpt>
      <trkpt lat="45.37548" lon="4.61729">
        <ele>1136.77</ele>
        <time>2021-06-09T12:25:15Z</time>
      </trkpt>
      <trkpt lat="45.37535" lon="4.61731">
        <ele>1134.52</ele>
        <time>2021-06-09T12:25:32Z</time>
      </trkpt>
      <trkpt lat="45.3752" lon="4.61738">
        <ele>1131.87</ele>
        <time>2021-06-09T12:25:48Z</time>
      </trkpt>
      <trkpt lat="45.37505" lon="4.61739">
        <ele>1129.22</ele>
        <time>2021-06-09T12:26:05Z</time>
      </trkpt>
      <trkpt lat="45.37492" lon="4.61745">
        <ele>1126.18</ele>
        <time>2021-06-09T12:26:22Z</time>
      </trkpt>
      <trkpt lat="45.37475" lon="4.6175">
        <ele>1123.58</ele>
        <time>2021-06-09T12:26:41Z</time>
      </trkpt>
      <trkpt lat="45.37462" lon="4.6175">
        <ele>1121.35</ele>
        <time>2021-06-09T12:26:57Z</time>
      </trkpt>
      <trkpt lat="45.37446" lon="4.61751">
        <ele>1119.27</ele>
        <time>2021-06-09T12:27:15Z</time>
      </trkpt>
      <trkpt lat="45.37436" lon="4.61748">
        <ele>1117.47</ele>
        <time>2021-06-09T12:27:28Z</time>
      </trkpt>
      <trkpt lat="45.37424" lon="4.61749">
        <ele>1114.37</ele>
        <time>2021-06-09T12:27:44Z</time>
      </trkpt>
      <trkpt lat="45.37412" lon="4.61756">
        <ele>1111.35</ele>
        <time>2021-06-09T12:28:03Z</time>
      </trkpt>
      <trkpt lat="45.37401" lon="4.61758">
        <ele>1108.91</ele>
        <time>2021-06-09T12:28:21Z</time>
      </trkpt>
      <trkpt lat="45.37395" lon="4.61756">
        <ele>1107.51</ele>
        <time>2021-06-09T12:28:38Z</time>
      </trkpt>
      <trkpt lat="45.3739" lon="4.61758">
        <ele>1106.73</ele>
        <time>2021-06-09T12:28:50Z</time>
      </trkpt>
      <trkpt lat="45.37386" lon="4.61759">
        <ele>1106.02</ele>
        <time>2021-06-09T12:28:54Z</time>
      </trkpt>
      <trkpt lat="45.37369" lon="4.61768">
        <ele>1103.86</ele>
        <time>2021-06-09T12:29:11Z</time>
      </trkpt>
      <trkpt lat="45.37357" lon="4.61763">
        <ele>1101.69</ele>
        <time>2021-06-09T12:29:28Z</time>
      </trkpt>
      <trkpt lat="45.37342" lon="4.61757">
        <ele>1099</ele>
        <time>2021-06-09T12:29:47Z</time>
      </trkpt>
      <trkpt lat="45.37321" lon="4.6175">
        <ele>1096.17</ele>
        <time>2021-06-09T12:30:06Z</time>
      </trkpt>
      <trkpt lat="45.37302" lon="4.6174">
        <ele>1093.33</ele>
        <time>2021-06-09T12:30:28Z</time>
      </trkpt>
      <trkpt lat="45.37285" lon="4.61727">
        <ele>1091.76</ele>
        <time>2021-06-09T12:30:46Z</time>
      </trkpt>
      <trkpt lat="45.37272" lon="4.61717">
        <ele>1089.75</ele>
        <time>2021-06-09T12:31:03Z</time>
      </trkpt>
      <trkpt lat="45.37257" lon="4.6171">
        <ele>1087.26</ele>
        <time>2021-06-09T12:31:23Z</time>
      </trkpt>
      <trkpt lat="45.37243" lon="4.61706">
        <ele>1085.16</ele>
        <time>2021-06-09T12:31:39Z</time>
      </trkpt>
      <trkpt lat="45.37229" lon="4.61702">
        <ele>1082.64</ele>
        <time>2021-06-09T12:31:58Z</time>
      </trkpt>
      <trkpt lat="45.37215" lon="4.61694">
        <ele>1080.33</ele>
        <time>2021-06-09T12:32:19Z</time>
      </trkpt>
      <trkpt lat="45.372" lon="4.61692">
        <ele>1078.25</ele>
        <time>2021-06-09T12:32:37Z</time>
      </trkpt>
      <trkpt lat="45.3719" lon="4.61692">
        <ele>1077.2</ele>
        <time>2021-06-09T12:32:53Z</time>
      </trkpt>
      <trkpt lat="45.37178" lon="4.61689">
        <ele>1075.51</ele>
        <time>2021-06-09T12:33:10Z</time>
      </trkpt>
      <trkpt lat="45.37169" lon="4.61689">
        <ele>1073.75</ele>
        <time>2021-06-09T12:33:24Z</time>
      </trkpt>
      <trkpt lat="45.37158" lon="4.61687">
        <ele>1072.28</ele>
        <time>2021-06-09T12:33:36Z</time>
      </trkpt>
      <trkpt lat="45.37143" lon="4.61681">
        <ele>1070.36</ele>
        <time>2021-06-09T12:33:56Z</time>
      </trkpt>
      <trkpt lat="45.3713" lon="4.61677">
        <ele>1068.17</ele>
        <time>2021-06-09T12:34:14Z</time>
      </trkpt>
      <trkpt lat="45.37119" lon="4.61672">
        <ele>1066.2</ele>
        <time>2021-06-09T12:34:27Z</time>
      </trkpt>
      <trkpt lat="45.37109" lon="4.61664">
        <ele>1064.37</ele>
        <time>2021-06-09T12:34:39Z</time>
      </trkpt>
      <trkpt lat="45.37097" lon="4.61654">
        <ele>1062.81</ele>
        <time>2021-06-09T12:34:55Z</time>
      </trkpt>
      <trkpt lat="45.37088" lon="4.61647">
        <ele>1061.71</ele>
        <time>2021-06-09T12:35:07Z</time>
      </trkpt>
      <trkpt lat="45.37077" lon="4.61636">
        <ele>1060.62</ele>
        <time>2021-06-09T12:35:23Z</time>
      </trkpt>
      <trkpt lat="45.37064" lon="4.61621">
        <ele>1059.33</ele>
        <time>2021-06-09T12:35:40Z</time>
      </trkpt>
      <trkpt lat="45.37051" lon="4.61609">
        <ele>1058.1</ele>
        <time>2021-06-09T12:35:55Z</time>
      </trkpt>
      <trkpt lat="45.37038" lon="4.61597">
        <ele>1056.68</ele>
        <time>2021-06-09T12:36:12Z</time>
      </trkpt>
      <trkpt lat="45.37022" lon="4.61591">
        <ele>1054.66</ele>
        <time>2021-06-09T12:36:30Z</time>
      </trkpt>
      <trkpt lat="45.37004" lon="4.61597">
        <ele>1052.86</ele>
        <time>2021-06-09T12:36:47Z</time>
      </trkpt>
      <trkpt lat="45.36985" lon="4.61607">
        <ele>1050.71</ele>
        <time>2021-06-09T12:37:07Z</time>
      </trkpt>
      <trkpt lat="45.3697" lon="4.61613">
        <ele>1049.2</ele>
        <time>2021-06-09T12:37:24Z</time>
      </trkpt>
      <trkpt lat="45.36959" lon="4.61616">
        <ele>1048.45</ele>
        <time>2021-06-09T12:37:42Z</time>
      </trkpt>
      <trkpt lat="45.36957" lon="4.61616">
        <ele>1048.71</ele>
        <time>2021-06-09T12:38:00Z</time>
      </trkpt>
      <trkpt lat="45.36944" lon="4.61618">
        <ele>1047.6</ele>
        <time>2021-06-09T12:38:15Z</time>
      </trkpt>
      <trkpt lat="45.36935" lon="4.61622">
        <ele>1047.43</ele>
        <time>2021-06-09T12:38:25Z</time>
      </trkpt>
      <trkpt lat="45.36916" lon="4.61641">
        <ele>1047.3</ele>
        <time>2021-06-09T12:38:47Z</time>
      </trkpt>
      <trkpt lat="45.36903" lon="4.61655">
        <ele>1047.22</ele>
        <time>2021-06-09T12:39:03Z</time>
      </trkpt>
      <trkpt lat="45.36888" lon="4.61669">
        <ele>1047.76</ele>
        <time>2021-06-09T12:39:19Z</time>
      </trkpt>
      <trkpt lat="45.36883" lon="4.61678">
        <ele>1047.98</ele>
        <time>2021-06-09T12:39:35Z</time>
      </trkpt>
      <trkpt lat="45.36873" lon="4.61683">
        <ele>1048.88</ele>
        <time>2021-06-09T12:39:54Z</time>
      </trkpt>
      <trkpt lat="45.36866" lon="4.61695">
        <ele>1049.29</ele>
        <time>2021-06-09T12:40:08Z</time>
      </trkpt>
      <trkpt lat="45.36854" lon="4.61714">
        <ele>1050.71</ele>
        <time>2021-06-09T12:40:28Z</time>
      </trkpt>
      <trkpt lat="45.36845" lon="4.61725">
        <ele>1052.2</ele>
        <time>2021-06-09T12:40:43Z</time>
      </trkpt>
      <trkpt lat="45.36832" lon="4.61741">
        <ele>1054.32</ele>
        <time>2021-06-09T12:41:05Z</time>
      </trkpt>
      <trkpt lat="45.36818" lon="4.61748">
        <ele>1056.53</ele>
        <time>2021-06-09T12:41:26Z</time>
      </trkpt>
      <trkpt lat="45.36806" lon="4.6175">
        <ele>1057.79</ele>
        <time>2021-06-09T12:41:46Z</time>
      </trkpt>
      <trkpt lat="45.36793" lon="4.61753">
        <ele>1059.09</ele>
        <time>2021-06-09T12:42:05Z</time>
      </trkpt>
      <trkpt lat="45.36783" lon="4.61762">
        <ele>1061.13</ele>
        <time>2021-06-09T12:42:25Z</time>
      </trkpt>
      <trkpt lat="45.36778" lon="4.61778">
        <ele>1063.23</ele>
        <time>2021-06-09T12:42:47Z</time>
      </trkpt>
      <trkpt lat="45.36772" lon="4.61798">
        <ele>1065.43</ele>
        <time>2021-06-09T12:43:09Z</time>
      </trkpt>
      <trkpt lat="45.36774" lon="4.61817">
        <ele>1067.32</ele>
        <time>2021-06-09T12:43:30Z</time>
      </trkpt>
      <trkpt lat="45.36778" lon="4.61839">
        <ele>1070.43</ele>
        <time>2021-06-09T12:43:51Z</time>
      </trkpt>
      <trkpt lat="45.36787" lon="4.6186">
        <ele>1071.75</ele>
        <time>2021-06-09T12:44:09Z</time>
      </trkpt>
      <trkpt lat="45.36787" lon="4.61868">
        <ele>1072.25</ele>
        <time>2021-06-09T12:44:17Z</time>
      </trkpt>
      <trkpt lat="45.36784" lon="4.61888">
        <ele>1074.79</ele>
        <time>2021-06-09T12:44:41Z</time>
      </trkpt>
      <trkpt lat="45.36788" lon="4.61913">
        <ele>1076.16</ele>
        <time>2021-06-09T12:45:01Z</time>
      </trkpt>
      <trkpt lat="45.36788" lon="4.61927">
        <ele>1077.36</ele>
        <time>2021-06-09T12:45:18Z</time>
      </trkpt>
      <trkpt lat="45.36779" lon="4.61951">
        <ele>1079.48</ele>
        <time>2021-06-09T12:45:40Z</time>
      </trkpt>
      <trkpt lat="45.36776" lon="4.6197">
        <ele>1081.76</ele>
        <time>2021-06-09T12:45:57Z</time>
      </trkpt>
      <trkpt lat="45.36778" lon="4.61988">
        <ele>1083.52</ele>
        <time>2021-06-09T12:46:12Z</time>
      </trkpt>
      <trkpt lat="45.36779" lon="4.62005">
        <ele>1084.64</ele>
        <time>2021-06-09T12:46:27Z</time>
      </trkpt>
      <trkpt lat="45.36775" lon="4.62013">
        <ele>1086.54</ele>
        <time>2021-06-09T12:46:42Z</time>
      </trkpt>
      <trkpt lat="45.36768" lon="4.62011">
        <ele>1088.22</ele>
        <time>2021-06-09T12:46:56Z</time>
      </trkpt>
      <trkpt lat="45.3676" lon="4.62004">
        <ele>1090.57</ele>
        <time>2021-06-09T12:47:09Z</time>
      </trkpt>
      <trkpt lat="45.36751" lon="4.62001">
        <ele>1092.39</ele>
        <time>2021-06-09T12:47:24Z</time>
      </trkpt>
      <trkpt lat="45.3674" lon="4.61993">
        <ele>1094.78</ele>
        <time>2021-06-09T12:47:42Z</time>
      </trkpt>
      <trkpt lat="45.36729" lon="4.61988">
        <ele>1096.48</ele>
        <time>2021-06-09T12:48:00Z</time>
      </trkpt>
      <trkpt lat="45.36727" lon="4.61998">
        <ele>1099.7</ele>
        <time>2021-06-09T12:48:16Z</time>
      </trkpt>
      <trkpt lat="45.36729" lon="4.6202">
        <ele>1101.89</ele>
        <time>2021-06-09T12:48:36Z</time>
      </trkpt>
      <trkpt lat="45.36727" lon="4.62034">
        <ele>1104.09</ele>
        <time>2021-06-09T12:48:50Z</time>
      </trkpt>
      <trkpt lat="45.36726" lon="4.62041">
        <ele>1104.84</ele>
        <time>2021-06-09T12:49:03Z</time>
      </trkpt>
      <trkpt lat="45.3672" lon="4.62058">
        <ele>1105.34</ele>
        <time>2021-06-09T12:49:20Z</time>
      </trkpt>
      <trkpt lat="45.36719" lon="4.62066">
        <ele>1104.95</ele>
        <time>2021-06-09T12:49:38Z</time>
      </trkpt>
      <trkpt lat="45.36724" lon="4.6207">
        <ele>1105.02</ele>
        <time>2021-06-09T12:49:52Z</time>
      </trkpt>
      <trkpt lat="45.36726" lon="4.62075">
        <ele>1104.81</ele>
        <time>2021-06-09T12:50:09Z</time>
      </trkpt>
      <trkpt lat="45.36723" lon="4.62075">
        <ele>1104.38</ele>
        <time>2021-06-09T12:50:25Z</time>
      </trkpt>
      <trkpt lat="45.36725" lon="4.62079">
        <ele>1104.16</ele>
        <time>2021-06-09T12:50:55Z</time>
      </trkpt>
      <trkpt lat="45.36726" lon="4.6208">
        <ele>1104.89</ele>
        <time>2021-06-09T12:51:11Z</time>
      </trkpt>
      <trkpt lat="45.36728" lon="4.62081">
        <ele>1104.58</ele>
        <time>2021-06-09T12:51:34Z</time>
      </trkpt>
      <trkpt lat="45.36735" lon="4.62077">
        <ele>1104.15</ele>
        <time>2021-06-09T12:52:02Z</time>
      </trkpt>
      <trkpt lat="45.36746" lon="4.62082">
        <ele>1103.19</ele>
        <time>2021-06-09T12:52:18Z</time>
      </trkpt>
      <trkpt lat="45.36748" lon="4.62084">
        <ele>1102.86</ele>
        <time>2021-06-09T12:52:40Z</time>
      </trkpt>
      <trkpt lat="45.3675" lon="4.62082">
        <ele>1103.01</ele>
        <time>2021-06-09T12:52:54Z</time>
      </trkpt>
      <trkpt lat="45.3675" lon="4.62085">
        <ele>1102.94</ele>
        <time>2021-06-09T12:53:11Z</time>
      </trkpt>
      <trkpt lat="45.3675" lon="4.62084">
        <ele>1103.05</ele>
        <time>2021-06-09T12:53:33Z</time>
      </trkpt>
      <trkpt lat="45.36751" lon="4.62086">
        <ele>1102.47</ele>
        <time>2021-06-09T12:53:52Z</time>
      </trkpt>
      <trkpt lat="45.3675" lon="4.62088">
        <ele>1102.83</ele>
        <time>2021-06-09T12:54:12Z</time>
      </trkpt>
      <trkpt lat="45.36747" lon="4.62084">
        <ele>1103.24</ele>
        <time>2021-06-09T12:54:31Z</time>
      </trkpt>
      <trkpt lat="45.36743" lon="4.62079">
        <ele>1104.32</ele>
        <time>2021-06-09T12:55:00Z</time>
      </trkpt>
      <trkpt lat="45.3674" lon="4.62077">
        <ele>1105.4</ele>
        <time>2021-06-09T12:55:15Z</time>
      </trkpt>
      <trkpt lat="45.36735" lon="4.62076">
        <ele>1106.03</ele>
        <time>2021-06-09T12:55:30Z</time>
      </trkpt>
      <trkpt lat="45.36731" lon="4.62078">
        <ele>1106.31</ele>
        <time>2021-06-09T12:55:47Z</time>
      </trkpt>
      <trkpt lat="45.36726" lon="4.62079">
        <ele>1106.32</ele>
        <time>2021-06-09T12:56:07Z</time>
      </trkpt>
      <trkpt lat="45.36724" lon="4.62069">
        <ele>1107.75</ele>
        <time>2021-06-09T12:56:21Z</time>
      </trkpt>
      <trkpt lat="45.36723" lon="4.62064">
        <ele>1107.25</ele>
        <time>2021-06-09T12:56:42Z</time>
      </trkpt>
      <trkpt lat="45.36723" lon="4.62062">
        <ele>1107.28</ele>
        <time>2021-06-09T12:57:07Z</time>
      </trkpt>
      <trkpt lat="45.36723" lon="4.62063">
        <ele>1107.53</ele>
        <time>2021-06-09T12:57:36Z</time>
      </trkpt>
      <trkpt lat="45.36723" lon="4.62066">
        <ele>1108.2</ele>
        <time>2021-06-09T12:58:09Z</time>
      </trkpt>
      <trkpt lat="45.36719" lon="4.62064">
        <ele>1108.03</ele>
        <time>2021-06-09T12:58:28Z</time>
      </trkpt>
      <trkpt lat="45.36718" lon="4.62063">
        <ele>1108.17</ele>
        <time>2021-06-09T12:58:47Z</time>
      </trkpt>
      <trkpt lat="45.36719" lon="4.62063">
        <ele>1108.96</ele>
        <time>2021-06-09T12:59:14Z</time>
      </trkpt>
      <trkpt lat="45.36718" lon="4.62062">
        <ele>1108.54</ele>
        <time>2021-06-09T12:59:31Z</time>
      </trkpt>
      <trkpt lat="45.36715" lon="4.62063">
        <ele>1109.01</ele>
        <time>2021-06-09T12:59:46Z</time>
      </trkpt>
      <trkpt lat="45.36718" lon="4.62063">
        <ele>1109.23</ele>
        <time>2021-06-09T13:00:11Z</time>
      </trkpt>
      <trkpt lat="45.36719" lon="4.62064">
        <ele>1109.57</ele>
        <time>2021-06-09T13:00:34Z</time>
      </trkpt>
      <trkpt lat="45.36719" lon="4.62061">
        <ele>1109.39</ele>
        <time>2021-06-09T13:01:01Z</time>
      </trkpt>
      <trkpt lat="45.36721" lon="4.62058">
        <ele>1109.48</ele>
        <time>2021-06-09T13:01:22Z</time>
      </trkpt>
      <trkpt lat="45.36722" lon="4.62056">
        <ele>1110.24</ele>
        <time>2021-06-09T13:01:37Z</time>
      </trkpt>
      <trkpt lat="45.36725" lon="4.62043">
        <ele>1109.4</ele>
        <time>2021-06-09T13:01:50Z</time>
      </trkpt>
      <trkpt lat="45.36725" lon="4.62042">
        <ele>1109.3</ele>
        <time>2021-06-09T13:01:51Z</time>
      </trkpt>
      <trkpt lat="45.36727" lon="4.62036">
        <ele>1108.94</ele>
        <time>2021-06-09T13:01:55Z</time>
      </trkpt>
      <trkpt lat="45.36727" lon="4.62017">
        <ele>1106.45</ele>
        <time>2021-06-09T13:02:12Z</time>
      </trkpt>
      <trkpt lat="45.36727" lon="4.62001">
        <ele>1103.76</ele>
        <time>2021-06-09T13:02:26Z</time>
      </trkpt>
      <trkpt lat="45.36733" lon="4.61992">
        <ele>1100.41</ele>
        <time>2021-06-09T13:02:42Z</time>
      </trkpt>
      <trkpt lat="45.36739" lon="4.61994">
        <ele>1099.67</ele>
        <time>2021-06-09T13:02:48Z</time>
      </trkpt>
      <trkpt lat="45.3675" lon="4.62002">
        <ele>1097.43</ele>
        <time>2021-06-09T13:03:01Z</time>
      </trkpt>
      <trkpt lat="45.36762" lon="4.62008">
        <ele>1095.63</ele>
        <time>2021-06-09T13:03:14Z</time>
      </trkpt>
      <trkpt lat="45.36769" lon="4.62018">
        <ele>1093.42</ele>
        <time>2021-06-09T13:03:28Z</time>
      </trkpt>
      <trkpt lat="45.36769" lon="4.62019">
        <ele>1093.22</ele>
        <time>2021-06-09T13:03:29Z</time>
      </trkpt>
      <trkpt lat="45.36775" lon="4.62018">
        <ele>1091.18</ele>
        <time>2021-06-09T13:03:43Z</time>
      </trkpt>
      <trkpt lat="45.36775" lon="4.62017">
        <ele>1091.22</ele>
        <time>2021-06-09T13:03:46Z</time>
      </trkpt>
      <trkpt lat="45.36776" lon="4.62013">
        <ele>1090.64</ele>
        <time>2021-06-09T13:03:49Z</time>
      </trkpt>
      <trkpt lat="45.36777" lon="4.62007">
        <ele>1089.92</ele>
        <time>2021-06-09T13:03:53Z</time>
      </trkpt>
      <trkpt lat="45.36775" lon="4.61992">
        <ele>1089.02</ele>
        <time>2021-06-09T13:04:07Z</time>
      </trkpt>
      <trkpt lat="45.36774" lon="4.61976">
        <ele>1085.96</ele>
        <time>2021-06-09T13:04:26Z</time>
      </trkpt>
      <trkpt lat="45.36777" lon="4.6196">
        <ele>1084.01</ele>
        <time>2021-06-09T13:04:41Z</time>
      </trkpt>
      <trkpt lat="45.36777" lon="4.61959">
        <ele>1083.88</ele>
        <time>2021-06-09T13:04:42Z</time>
      </trkpt>
      <trkpt lat="45.36781" lon="4.6194">
        <ele>1081.55</ele>
        <time>2021-06-09T13:04:59Z</time>
      </trkpt>
      <trkpt lat="45.36783" lon="4.61937">
        <ele>1081.08</ele>
        <time>2021-06-09T13:05:26Z</time>
      </trkpt>
      <trkpt lat="45.36782" lon="4.61937">
        <ele>1081.02</ele>
        <time>2021-06-09T13:05:53Z</time>
      </trkpt>
      <trkpt lat="45.36785" lon="4.61935">
        <ele>1082.52</ele>
        <time>2021-06-09T13:06:14Z</time>
      </trkpt>
      <trkpt lat="45.36784" lon="4.61932">
        <ele>1082.37</ele>
        <time>2021-06-09T13:06:23Z</time>
      </trkpt>
      <trkpt lat="45.36784" lon="4.61933">
        <ele>1082.58</ele>
        <time>2021-06-09T13:06:31Z</time>
      </trkpt>
      <trkpt lat="45.36785" lon="4.61931">
        <ele>1082.33</ele>
        <time>2021-06-09T13:06:49Z</time>
      </trkpt>
      <trkpt lat="45.36792" lon="4.61922">
        <ele>1080.35</ele>
        <time>2021-06-09T13:07:09Z</time>
      </trkpt>
      <trkpt lat="45.36798" lon="4.61912">
        <ele>1077.31</ele>
        <time>2021-06-09T13:07:24Z</time>
      </trkpt>
      <trkpt lat="45.36806" lon="4.61901">
        <ele>1074.41</ele>
        <time>2021-06-09T13:07:45Z</time>
      </trkpt>
      <trkpt lat="45.36818" lon="4.61897">
        <ele>1071.41</ele>
        <time>2021-06-09T13:08:03Z</time>
      </trkpt>
      <trkpt lat="45.3683" lon="4.6189">
        <ele>1068.37</ele>
        <time>2021-06-09T13:08:23Z</time>
      </trkpt>
      <trkpt lat="45.36842" lon="4.61885">
        <ele>1066.59</ele>
        <time>2021-06-09T13:08:40Z</time>
      </trkpt>
      <trkpt lat="45.36852" lon="4.61872">
        <ele>1064.22</ele>
        <time>2021-06-09T13:08:59Z</time>
      </trkpt>
      <trkpt lat="45.36864" lon="4.61858">
        <ele>1061.07</ele>
        <time>2021-06-09T13:09:20Z</time>
      </trkpt>
      <trkpt lat="45.36872" lon="4.61855">
        <ele>1058.56</ele>
        <time>2021-06-09T13:09:36Z</time>
      </trkpt>
      <trkpt lat="45.36884" lon="4.61855">
        <ele>1056.41</ele>
        <time>2021-06-09T13:09:54Z</time>
      </trkpt>
      <trkpt lat="45.36892" lon="4.61859">
        <ele>1056.74</ele>
        <time>2021-06-09T13:10:13Z</time>
      </trkpt>
      <trkpt lat="45.36895" lon="4.61857">
        <ele>1056.72</ele>
        <time>2021-06-09T13:10:36Z</time>
      </trkpt>
      <trkpt lat="45.36896" lon="4.61856">
        <ele>1056.35</ele>
        <time>2021-06-09T13:10:37Z</time>
      </trkpt>
      <trkpt lat="45.36898" lon="4.61853">
        <ele>1055.55</ele>
        <time>2021-06-09T13:10:40Z</time>
      </trkpt>
      <trkpt lat="45.36905" lon="4.6184">
        <ele>1052.24</ele>
        <time>2021-06-09T13:10:56Z</time>
      </trkpt>
      <trkpt lat="45.36917" lon="4.6183">
        <ele>1050.67</ele>
        <time>2021-06-09T13:11:16Z</time>
      </trkpt>
      <trkpt lat="45.36918" lon="4.6183">
        <ele>1050.69</ele>
        <time>2021-06-09T13:11:17Z</time>
      </trkpt>
      <trkpt lat="45.36916" lon="4.61827">
        <ele>1050.88</ele>
        <time>2021-06-09T13:11:25Z</time>
      </trkpt>
      <trkpt lat="45.36917" lon="4.61826">
        <ele>1051.05</ele>
        <time>2021-06-09T13:11:42Z</time>
      </trkpt>
      <trkpt lat="45.3692" lon="4.61829">
        <ele>1050.94</ele>
        <time>2021-06-09T13:11:59Z</time>
      </trkpt>
      <trkpt lat="45.36922" lon="4.61823">
        <ele>1050.53</ele>
        <time>2021-06-09T13:12:17Z</time>
      </trkpt>
      <trkpt lat="45.36932" lon="4.61811">
        <ele>1049.06</ele>
        <time>2021-06-09T13:12:33Z</time>
      </trkpt>
      <trkpt lat="45.3694" lon="4.61814">
        <ele>1047.86</ele>
        <time>2021-06-09T13:12:49Z</time>
      </trkpt>
      <trkpt lat="45.36945" lon="4.61816">
        <ele>1047.17</ele>
        <time>2021-06-09T13:12:55Z</time>
      </trkpt>
      <trkpt lat="45.36949" lon="4.61816">
        <ele>1046.8</ele>
        <time>2021-06-09T13:12:59Z</time>
      </trkpt>
      <trkpt lat="45.36962" lon="4.61815">
        <ele>1045.32</ele>
        <time>2021-06-09T13:13:15Z</time>
      </trkpt>
      <trkpt lat="45.36976" lon="4.61813">
        <ele>1043.67</ele>
        <time>2021-06-09T13:13:31Z</time>
      </trkpt>
      <trkpt lat="45.36982" lon="4.61813">
        <ele>1043.29</ele>
        <time>2021-06-09T13:13:37Z</time>
      </trkpt>
      <trkpt lat="45.36999" lon="4.61816">
        <ele>1041.29</ele>
        <time>2021-06-09T13:13:56Z</time>
      </trkpt>
      <trkpt lat="45.37008" lon="4.61819">
        <ele>1041.03</ele>
        <time>2021-06-09T13:14:13Z</time>
      </trkpt>
      <trkpt lat="45.37012" lon="4.61819">
        <ele>1041.02</ele>
        <time>2021-06-09T13:14:22Z</time>
      </trkpt>
      <trkpt lat="45.37023" lon="4.6181">
        <ele>1041.76</ele>
        <time>2021-06-09T13:14:34Z</time>
      </trkpt>
      <trkpt lat="45.37032" lon="4.61806">
        <ele>1041.65</ele>
        <time>2021-06-09T13:14:49Z</time>
      </trkpt>
      <trkpt lat="45.37026" lon="4.61813">
        <ele>1041.81</ele>
        <time>2021-06-09T13:15:05Z</time>
      </trkpt>
      <trkpt lat="45.37021" lon="4.61824">
        <ele>1040.79</ele>
        <time>2021-06-09T13:15:21Z</time>
      </trkpt>
      <trkpt lat="45.37022" lon="4.61829">
        <ele>1040.33</ele>
        <time>2021-06-09T13:15:40Z</time>
      </trkpt>
      <trkpt lat="45.37026" lon="4.61825">
        <ele>1040.17</ele>
        <time>2021-06-09T13:15:54Z</time>
      </trkpt>
      <trkpt lat="45.37024" lon="4.61824">
        <ele>1040.01</ele>
        <time>2021-06-09T13:16:16Z</time>
      </trkpt>
      <trkpt lat="45.37024" lon="4.61824">
        <ele>1040.36</ele>
        <time>2021-06-09T13:17:01Z</time>
      </trkpt>
      <trkpt lat="45.37025" lon="4.61823">
        <ele>1040.68</ele>
        <time>2021-06-09T13:17:35Z</time>
      </trkpt>
      <trkpt lat="45.37025" lon="4.61823">
        <ele>1040.72</ele>
        <time>2021-06-09T13:17:37Z</time>
      </trkpt>
      <trkpt lat="45.37025" lon="4.61823">
        <ele>1040.82</ele>
        <time>2021-06-09T13:17:47Z</time>
      </trkpt>
      <trkpt lat="45.37026" lon="4.61824">
        <ele>1041.03</ele>
        <time>2021-06-09T13:18:09Z</time>
      </trkpt>
      <trkpt lat="45.37024" lon="4.61824">
        <ele>1041.52</ele>
        <time>2021-06-09T13:18:57Z</time>
      </trkpt>
      <trkpt lat="45.37025" lon="4.61825">
        <ele>1041.65</ele>
        <time>2021-06-09T13:19:57Z</time>
      </trkpt>
      <trkpt lat="45.37025" lon="4.61824">
        <ele>1042.03</ele>
        <time>2021-06-09T13:21:03Z</time>
      </trkpt>
      <trkpt lat="45.37023" lon="4.61824">
        <ele>1041.9</ele>
        <time>2021-06-09T13:22:11Z</time>
      </trkpt>
      <trkpt lat="45.37023" lon="4.61821">
        <ele>1042.21</ele>
        <time>2021-06-09T13:23:21Z</time>
      </trkpt>
      <trkpt lat="45.37022" lon="4.61822">
        <ele>1042.01</ele>
        <time>2021-06-09T13:24:29Z</time>
      </trkpt>
      <trkpt lat="45.37021" lon="4.61823">
        <ele>1042.06</ele>
        <time>2021-06-09T13:25:30Z</time>
      </trkpt>
      <trkpt lat="45.37023" lon="4.61822">
        <ele>1042.46</ele>
        <time>2021-06-09T13:26:36Z</time>
      </trkpt>
      <trkpt lat="45.37023" lon="4.61822">
        <ele>1042.27</ele>
        <time>2021-06-09T13:27:25Z</time>
      </trkpt>
      <trkpt lat="45.37025" lon="4.61824">
        <ele>1042.1</ele>
        <time>2021-06-09T13:28:23Z</time>
      </trkpt>
      <trkpt lat="45.37026" lon="4.61823">
        <ele>1042.2</ele>
        <time>2021-06-09T13:29:16Z</time>
      </trkpt>
      <trkpt lat="45.37025" lon="4.61822">
        <ele>1042.51</ele>
        <time>2021-06-09T13:30:14Z</time>
      </trkpt>
      <trkpt lat="45.37023" lon="4.61822">
        <ele>1042.93</ele>
        <time>2021-06-09T13:31:08Z</time>
      </trkpt>
      <trkpt lat="45.37023" lon="4.61824">
        <ele>1043.18</ele>
        <time>2021-06-09T13:32:10Z</time>
      </trkpt>
      <trkpt lat="45.37022" lon="4.61822">
        <ele>1043.41</ele>
        <time>2021-06-09T13:33:10Z</time>
      </trkpt>
      <trkpt lat="45.37022" lon="4.61824">
        <ele>1043.66</ele>
        <time>2021-06-09T13:34:06Z</time>
      </trkpt>
      <trkpt lat="45.37022" lon="4.61823">
        <ele>1043.28</ele>
        <time>2021-06-09T13:34:54Z</time>
      </trkpt>
      <trkpt lat="45.37024" lon="4.61822">
        <ele>1043.57</ele>
        <time>2021-06-09T13:35:55Z</time>
      </trkpt>
      <trkpt lat="45.37025" lon="4.61822">
        <ele>1043.14</ele>
        <time>2021-06-09T13:36:53Z</time>
      </trkpt>
      <trkpt lat="45.37023" lon="4.6182">
        <ele>1043.64</ele>
        <time>2021-06-09T13:37:43Z</time>
      </trkpt>
      <trkpt lat="45.37023" lon="4.61821">
        <ele>1044.53</ele>
        <time>2021-06-09T13:38:36Z</time>
      </trkpt>
      <trkpt lat="45.37022" lon="4.61823">
        <ele>1044.91</ele>
        <time>2021-06-09T13:39:25Z</time>
      </trkpt>
      <trkpt lat="45.37023" lon="4.61821">
        <ele>1044.73</ele>
        <time>2021-06-09T13:40:19Z</time>
      </trkpt>
      <trkpt lat="45.37027" lon="4.61821">
        <ele>1044.9</ele>
        <time>2021-06-09T13:41:04Z</time>
      </trkpt>
      <trkpt lat="45.37029" lon="4.61822">
        <ele>1044.74</ele>
        <time>2021-06-09T13:42:00Z</time>
      </trkpt>
      <trkpt lat="45.37023" lon="4.61822">
        <ele>1044.63</ele>
        <time>2021-06-09T13:42:55Z</time>
      </trkpt>
      <trkpt lat="45.37025" lon="4.61822">
        <ele>1045.21</ele>
        <time>2021-06-09T13:43:41Z</time>
      </trkpt>
      <trkpt lat="45.37024" lon="4.61822">
        <ele>1045.52</ele>
        <time>2021-06-09T13:44:18Z</time>
      </trkpt>
      <trkpt lat="45.37024" lon="4.61819">
        <ele>1046.28</ele>
        <time>2021-06-09T13:44:56Z</time>
      </trkpt>
      <trkpt lat="45.37026" lon="4.6182">
        <ele>1047.11</ele>
        <time>2021-06-09T13:45:23Z</time>
      </trkpt>
      <trkpt lat="45.37029" lon="4.61822">
        <ele>1047.45</ele>
        <time>2021-06-09T13:45:39Z</time>
      </trkpt>
      <trkpt lat="45.37031" lon="4.61824">
        <ele>1047.3</ele>
        <time>2021-06-09T13:45:57Z</time>
      </trkpt>
      <trkpt lat="45.37031" lon="4.61825">
        <ele>1047.22</ele>
        <time>2021-06-09T13:46:22Z</time>
      </trkpt>
      <trkpt lat="45.37028" lon="4.61824">
        <ele>1047.83</ele>
        <time>2021-06-09T13:46:42Z</time>
      </trkpt>
      <trkpt lat="45.37025" lon="4.61827">
        <ele>1048.15</ele>
        <time>2021-06-09T13:46:54Z</time>
      </trkpt>
      <trkpt lat="45.37022" lon="4.61818">
        <ele>1048.97</ele>
        <time>2021-06-09T13:47:07Z</time>
      </trkpt>
      <trkpt lat="45.37023" lon="4.61814">
        <ele>1049.21</ele>
        <time>2021-06-09T13:47:24Z</time>
      </trkpt>
      <trkpt lat="45.37024" lon="4.61812">
        <ele>1049.3</ele>
        <time>2021-06-09T13:47:26Z</time>
      </trkpt>
      <trkpt lat="45.37028" lon="4.61809">
        <ele>1049.51</ele>
        <time>2021-06-09T13:47:31Z</time>
      </trkpt>
      <trkpt lat="45.37042" lon="4.61803">
        <ele>1048.79</ele>
        <time>2021-06-09T13:47:49Z</time>
      </trkpt>
      <trkpt lat="45.37049" lon="4.6181">
        <ele>1046.51</ele>
        <time>2021-06-09T13:48:05Z</time>
      </trkpt>
      <trkpt lat="45.37054" lon="4.61823">
        <ele>1044.14</ele>
        <time>2021-06-09T13:48:22Z</time>
      </trkpt>
      <trkpt lat="45.37062" lon="4.61829">
        <ele>1041.95</ele>
        <time>2021-06-09T13:48:39Z</time>
      </trkpt>
      <trkpt lat="45.37071" lon="4.61838">
        <ele>1040.06</ele>
        <time>2021-06-09T13:48:53Z</time>
      </trkpt>
      <trkpt lat="45.37084" lon="4.61847">
        <ele>1037.01</ele>
        <time>2021-06-09T13:49:11Z</time>
      </trkpt>
      <trkpt lat="45.37091" lon="4.61849">
        <ele>1035.52</ele>
        <time>2021-06-09T13:49:35Z</time>
      </trkpt>
      <trkpt lat="45.37101" lon="4.61857">
        <ele>1032.12</ele>
        <time>2021-06-09T13:49:54Z</time>
      </trkpt>
      <trkpt lat="45.37107" lon="4.61868">
        <ele>1028.84</ele>
        <time>2021-06-09T13:50:07Z</time>
      </trkpt>
      <trkpt lat="45.3711" lon="4.61869">
        <ele>1028.47</ele>
        <time>2021-06-09T13:50:09Z</time>
      </trkpt>
      <trkpt lat="45.37119" lon="4.61879">
        <ele>1025.32</ele>
        <time>2021-06-09T13:50:20Z</time>
      </trkpt>
      <trkpt lat="45.37128" lon="4.61893">
        <ele>1022.05</ele>
        <time>2021-06-09T13:50:36Z</time>
      </trkpt>
      <trkpt lat="45.37138" lon="4.61908">
        <ele>1019.04</ele>
        <time>2021-06-09T13:50:54Z</time>
      </trkpt>
      <trkpt lat="45.37142" lon="4.61918">
        <ele>1017.82</ele>
        <time>2021-06-09T13:51:04Z</time>
      </trkpt>
      <trkpt lat="45.37155" lon="4.61935">
        <ele>1014.5</ele>
        <time>2021-06-09T13:51:22Z</time>
      </trkpt>
      <trkpt lat="45.37171" lon="4.61955">
        <ele>1011.21</ele>
        <time>2021-06-09T13:51:42Z</time>
      </trkpt>
      <trkpt lat="45.37177" lon="4.61971">
        <ele>1008.05</ele>
        <time>2021-06-09T13:51:56Z</time>
      </trkpt>
      <trkpt lat="45.37183" lon="4.61985">
        <ele>1004.75</ele>
        <time>2021-06-09T13:52:10Z</time>
      </trkpt>
      <trkpt lat="45.37188" lon="4.61999">
        <ele>1001.6</ele>
        <time>2021-06-09T13:52:25Z</time>
      </trkpt>
      <trkpt lat="45.37197" lon="4.62017">
        <ele>998.45</ele>
        <time>2021-06-09T13:52:40Z</time>
      </trkpt>
      <trkpt lat="45.37201" lon="4.62023">
        <ele>997.18</ele>
        <time>2021-06-09T13:52:47Z</time>
      </trkpt>
      <trkpt lat="45.37216" lon="4.62035">
        <ele>993.94</ele>
        <time>2021-06-09T13:53:06Z</time>
      </trkpt>
      <trkpt lat="45.37226" lon="4.62052">
        <ele>990.93</ele>
        <time>2021-06-09T13:53:23Z</time>
      </trkpt>
      <trkpt lat="45.37238" lon="4.62062">
        <ele>988.05</ele>
        <time>2021-06-09T13:53:37Z</time>
      </trkpt>
      <trkpt lat="45.37256" lon="4.62077">
        <ele>985.44</ele>
        <time>2021-06-09T13:53:54Z</time>
      </trkpt>
      <trkpt lat="45.37264" lon="4.62088">
        <ele>983.95</ele>
        <time>2021-06-09T13:54:07Z</time>
      </trkpt>
      <trkpt lat="45.37277" lon="4.62102">
        <ele>981.57</ele>
        <time>2021-06-09T13:54:26Z</time>
      </trkpt>
      <trkpt lat="45.37278" lon="4.62111">
        <ele>978.62</ele>
        <time>2021-06-09T13:54:43Z</time>
      </trkpt>
      <trkpt lat="45.37277" lon="4.62113">
        <ele>978.14</ele>
        <time>2021-06-09T13:54:57Z</time>
      </trkpt>
      <trkpt lat="45.37263" lon="4.62104">
        <ele>977.09</ele>
        <time>2021-06-09T13:55:15Z</time>
      </trkpt>
      <trkpt lat="45.37249" lon="4.62107">
        <ele>973.82</ele>
        <time>2021-06-09T13:55:31Z</time>
      </trkpt>
      <trkpt lat="45.37246" lon="4.62112">
        <ele>973.17</ele>
        <time>2021-06-09T13:55:36Z</time>
      </trkpt>
      <trkpt lat="45.37232" lon="4.62123">
        <ele>970.47</ele>
        <time>2021-06-09T13:55:50Z</time>
      </trkpt>
      <trkpt lat="45.37229" lon="4.6213">
        <ele>969.34</ele>
        <time>2021-06-09T13:56:07Z</time>
      </trkpt>
      <trkpt lat="45.37219" lon="4.62137">
        <ele>967.47</ele>
        <time>2021-06-09T13:56:25Z</time>
      </trkpt>
      <trkpt lat="45.3721" lon="4.62139">
        <ele>965.34</ele>
        <time>2021-06-09T13:56:42Z</time>
      </trkpt>
      <trkpt lat="45.37205" lon="4.62141">
        <ele>964.25</ele>
        <time>2021-06-09T13:56:48Z</time>
      </trkpt>
      <trkpt lat="45.37209" lon="4.6215">
        <ele>961.52</ele>
        <time>2021-06-09T13:57:04Z</time>
      </trkpt>
      <trkpt lat="45.37221" lon="4.62161">
        <ele>958.46</ele>
        <time>2021-06-09T13:57:23Z</time>
      </trkpt>
      <trkpt lat="45.37234" lon="4.6217">
        <ele>955.43</ele>
        <time>2021-06-09T13:57:40Z</time>
      </trkpt>
      <trkpt lat="45.37247" lon="4.62181">
        <ele>952.76</ele>
        <time>2021-06-09T13:57:57Z</time>
      </trkpt>
      <trkpt lat="45.37258" lon="4.62193">
        <ele>949.67</ele>
        <time>2021-06-09T13:58:16Z</time>
      </trkpt>
      <trkpt lat="45.37267" lon="4.62208">
        <ele>946.62</ele>
        <time>2021-06-09T13:58:35Z</time>
      </trkpt>
      <trkpt lat="45.37271" lon="4.62216">
        <ele>945.26</ele>
        <time>2021-06-09T13:58:53Z</time>
      </trkpt>
      <trkpt lat="45.37275" lon="4.62228">
        <ele>942.71</ele>
        <time>2021-06-09T13:59:13Z</time>
      </trkpt>
      <trkpt lat="45.37272" lon="4.62245">
        <ele>939.82</ele>
        <time>2021-06-09T13:59:33Z</time>
      </trkpt>
      <trkpt lat="45.37276" lon="4.62266">
        <ele>936.69</ele>
        <time>2021-06-09T13:59:53Z</time>
      </trkpt>
      <trkpt lat="45.37276" lon="4.62269">
        <ele>937.21</ele>
        <time>2021-06-09T14:00:14Z</time>
      </trkpt>
      <trkpt lat="45.3728" lon="4.62278">
        <ele>936.72</ele>
        <time>2021-06-09T14:00:39Z</time>
      </trkpt>
      <trkpt lat="45.3728" lon="4.62293">
        <ele>933.7</ele>
        <time>2021-06-09T14:00:53Z</time>
      </trkpt>
      <trkpt lat="45.37277" lon="4.62311">
        <ele>930.61</ele>
        <time>2021-06-09T14:01:08Z</time>
      </trkpt>
      <trkpt lat="45.37269" lon="4.62326">
        <ele>927.38</ele>
        <time>2021-06-09T14:01:24Z</time>
      </trkpt>
      <trkpt lat="45.37261" lon="4.62344">
        <ele>924.14</ele>
        <time>2021-06-09T14:01:42Z</time>
      </trkpt>
      <trkpt lat="45.37258" lon="4.62366">
        <ele>921.5</ele>
        <time>2021-06-09T14:01:57Z</time>
      </trkpt>
      <trkpt lat="45.37256" lon="4.62392">
        <ele>918.48</ele>
        <time>2021-06-09T14:02:15Z</time>
      </trkpt>
      <trkpt lat="45.37256" lon="4.62416">
        <ele>915.53</ele>
        <time>2021-06-09T14:02:34Z</time>
      </trkpt>
      <trkpt lat="45.37254" lon="4.62436">
        <ele>912.52</ele>
        <time>2021-06-09T14:02:54Z</time>
      </trkpt>
      <trkpt lat="45.37261" lon="4.62455">
        <ele>909.74</ele>
        <time>2021-06-09T14:03:13Z</time>
      </trkpt>
      <trkpt lat="45.37262" lon="4.62458">
        <ele>909.52</ele>
        <time>2021-06-09T14:03:15Z</time>
      </trkpt>
      <trkpt lat="45.37263" lon="4.62463">
        <ele>909.09</ele>
        <time>2021-06-09T14:03:18Z</time>
      </trkpt>
      <trkpt lat="45.37273" lon="4.62477">
        <ele>908.68</ele>
        <time>2021-06-09T14:03:32Z</time>
      </trkpt>
      <trkpt lat="45.37277" lon="4.62482">
        <ele>908.7</ele>
        <time>2021-06-09T14:03:39Z</time>
      </trkpt>
      <trkpt lat="45.37279" lon="4.62486">
        <ele>908.42</ele>
        <time>2021-06-09T14:03:42Z</time>
      </trkpt>
      <trkpt lat="45.37285" lon="4.62497">
        <ele>908.77</ele>
        <time>2021-06-09T14:03:53Z</time>
      </trkpt>
      <trkpt lat="45.37288" lon="4.625">
        <ele>908.71</ele>
        <time>2021-06-09T14:03:57Z</time>
      </trkpt>
      <trkpt lat="45.37295" lon="4.62513">
        <ele>908.6</ele>
        <time>2021-06-09T14:04:08Z</time>
      </trkpt>
      <trkpt lat="45.37301" lon="4.62535">
        <ele>908.09</ele>
        <time>2021-06-09T14:04:23Z</time>
      </trkpt>
      <trkpt lat="45.37303" lon="4.62554">
        <ele>906.34</ele>
        <time>2021-06-09T14:04:37Z</time>
      </trkpt>
      <trkpt lat="45.37306" lon="4.62576">
        <ele>903.14</ele>
        <time>2021-06-09T14:04:58Z</time>
      </trkpt>
      <trkpt lat="45.37304" lon="4.62596">
        <ele>901.15</ele>
        <time>2021-06-09T14:05:17Z</time>
      </trkpt>
      <trkpt lat="45.37303" lon="4.62616">
        <ele>898.24</ele>
        <time>2021-06-09T14:05:37Z</time>
      </trkpt>
      <trkpt lat="45.37304" lon="4.62631">
        <ele>896.24</ele>
        <time>2021-06-09T14:05:56Z</time>
      </trkpt>
      <trkpt lat="45.37303" lon="4.62649">
        <ele>893.53</ele>
        <time>2021-06-09T14:06:13Z</time>
      </trkpt>
      <trkpt lat="45.37304" lon="4.62669">
        <ele>890.6</ele>
        <time>2021-06-09T14:06:33Z</time>
      </trkpt>
      <trkpt lat="45.37307" lon="4.6269">
        <ele>887.88</ele>
        <time>2021-06-09T14:06:54Z</time>
      </trkpt>
      <trkpt lat="45.37306" lon="4.62699">
        <ele>887.04</ele>
        <time>2021-06-09T14:07:10Z</time>
      </trkpt>
      <trkpt lat="45.37307" lon="4.62714">
        <ele>885.53</ele>
        <time>2021-06-09T14:07:31Z</time>
      </trkpt>
      <trkpt lat="45.37307" lon="4.62734">
        <ele>883.46</ele>
        <time>2021-06-09T14:07:49Z</time>
      </trkpt>
      <trkpt lat="45.37309" lon="4.62751">
        <ele>881.69</ele>
        <time>2021-06-09T14:08:05Z</time>
      </trkpt>
      <trkpt lat="45.37309" lon="4.62763">
        <ele>880.04</ele>
        <time>2021-06-09T14:08:17Z</time>
      </trkpt>
      <trkpt lat="45.37312" lon="4.62779">
        <ele>878.32</ele>
        <time>2021-06-09T14:08:31Z</time>
      </trkpt>
      <trkpt lat="45.37314" lon="4.62795">
        <ele>877.71</ele>
        <time>2021-06-09T14:08:47Z</time>
      </trkpt>
      <trkpt lat="45.37313" lon="4.62807">
        <ele>876.2</ele>
        <time>2021-06-09T14:08:59Z</time>
      </trkpt>
      <trkpt lat="45.37313" lon="4.62815">
        <ele>875.12</ele>
        <time>2021-06-09T14:09:14Z</time>
      </trkpt>
      <trkpt lat="45.37309" lon="4.62831">
        <ele>873.22</ele>
        <time>2021-06-09T14:09:28Z</time>
      </trkpt>
      <trkpt lat="45.373" lon="4.62843">
        <ele>870.86</ele>
        <time>2021-06-09T14:09:44Z</time>
      </trkpt>
      <trkpt lat="45.37295" lon="4.62848">
        <ele>870.39</ele>
        <time>2021-06-09T14:10:00Z</time>
      </trkpt>
      <trkpt lat="45.37281" lon="4.62869">
        <ele>867.34</ele>
        <time>2021-06-09T14:10:21Z</time>
      </trkpt>
      <trkpt lat="45.37272" lon="4.62885">
        <ele>865.6</ele>
        <time>2021-06-09T14:10:37Z</time>
      </trkpt>
      <trkpt lat="45.37263" lon="4.62898">
        <ele>864.59</ele>
        <time>2021-06-09T14:10:50Z</time>
      </trkpt>
      <trkpt lat="45.37251" lon="4.62913">
        <ele>863.91</ele>
        <time>2021-06-09T14:11:05Z</time>
      </trkpt>
      <trkpt lat="45.37234" lon="4.62928">
        <ele>862.11</ele>
        <time>2021-06-09T14:11:23Z</time>
      </trkpt>
      <trkpt lat="45.37224" lon="4.62936">
        <ele>860.68</ele>
        <time>2021-06-09T14:11:38Z</time>
      </trkpt>
      <trkpt lat="45.37221" lon="4.62937">
        <ele>860.32</ele>
        <time>2021-06-09T14:11:48Z</time>
      </trkpt>
      <trkpt lat="45.37218" lon="4.62939">
        <ele>859.8</ele>
        <time>2021-06-09T14:11:52Z</time>
      </trkpt>
      <trkpt lat="45.372" lon="4.6295">
        <ele>856.63</ele>
        <time>2021-06-09T14:12:12Z</time>
      </trkpt>
      <trkpt lat="45.37191" lon="4.62955">
        <ele>855</ele>
        <time>2021-06-09T14:12:27Z</time>
      </trkpt>
      <trkpt lat="45.37181" lon="4.62962">
        <ele>853.17</ele>
        <time>2021-06-09T14:12:41Z</time>
      </trkpt>
      <trkpt lat="45.37167" lon="4.62974">
        <ele>850.63</ele>
        <time>2021-06-09T14:12:59Z</time>
      </trkpt>
      <trkpt lat="45.37154" lon="4.62985">
        <ele>847.95</ele>
        <time>2021-06-09T14:13:17Z</time>
      </trkpt>
      <trkpt lat="45.37139" lon="4.62999">
        <ele>844.75</ele>
        <time>2021-06-09T14:13:35Z</time>
      </trkpt>
      <trkpt lat="45.37125" lon="4.63017">
        <ele>842.31</ele>
        <time>2021-06-09T14:13:53Z</time>
      </trkpt>
      <trkpt lat="45.37119" lon="4.63037">
        <ele>840.25</ele>
        <time>2021-06-09T14:14:09Z</time>
      </trkpt>
      <trkpt lat="45.37113" lon="4.63055">
        <ele>837.84</ele>
        <time>2021-06-09T14:14:25Z</time>
      </trkpt>
      <trkpt lat="45.37105" lon="4.63072">
        <ele>835.47</ele>
        <time>2021-06-09T14:14:42Z</time>
      </trkpt>
      <trkpt lat="45.37097" lon="4.63085">
        <ele>833.29</ele>
        <time>2021-06-09T14:14:57Z</time>
      </trkpt>
      <trkpt lat="45.37092" lon="4.63109">
        <ele>830.7</ele>
        <time>2021-06-09T14:15:16Z</time>
      </trkpt>
      <trkpt lat="45.37087" lon="4.63119">
        <ele>829.35</ele>
        <time>2021-06-09T14:15:25Z</time>
      </trkpt>
      <trkpt lat="45.37079" lon="4.63142">
        <ele>827.26</ele>
        <time>2021-06-09T14:15:43Z</time>
      </trkpt>
      <trkpt lat="45.37078" lon="4.63143">
        <ele>827.23</ele>
        <time>2021-06-09T14:15:44Z</time>
      </trkpt>
      <trkpt lat="45.37072" lon="4.63161">
        <ele>825.43</ele>
        <time>2021-06-09T14:15:58Z</time>
      </trkpt>
      <trkpt lat="45.37069" lon="4.63168">
        <ele>824.63</ele>
        <time>2021-06-09T14:16:03Z</time>
      </trkpt>
      <trkpt lat="45.37062" lon="4.63193">
        <ele>823.03</ele>
        <time>2021-06-09T14:16:20Z</time>
      </trkpt>
      <trkpt lat="45.37059" lon="4.63203">
        <ele>821.99</ele>
        <time>2021-06-09T14:16:27Z</time>
      </trkpt>
      <trkpt lat="45.37054" lon="4.63222">
        <ele>819.64</ele>
        <time>2021-06-09T14:16:43Z</time>
      </trkpt>
      <trkpt lat="45.3705" lon="4.63242">
        <ele>817.64</ele>
        <time>2021-06-09T14:16:59Z</time>
      </trkpt>
      <trkpt lat="45.37046" lon="4.63266">
        <ele>815.69</ele>
        <time>2021-06-09T14:17:17Z</time>
      </trkpt>
      <trkpt lat="45.37043" lon="4.63287">
        <ele>812.88</ele>
        <time>2021-06-09T14:17:32Z</time>
      </trkpt>
      <trkpt lat="45.37042" lon="4.63307">
        <ele>810.33</ele>
        <time>2021-06-09T14:17:47Z</time>
      </trkpt>
      <trkpt lat="45.37042" lon="4.63329">
        <ele>807.23</ele>
        <time>2021-06-09T14:18:03Z</time>
      </trkpt>
      <trkpt lat="45.37041" lon="4.63338">
        <ele>806.3</ele>
        <time>2021-06-09T14:18:09Z</time>
      </trkpt>
      <trkpt lat="45.37037" lon="4.63355">
        <ele>804.02</ele>
        <time>2021-06-09T14:18:23Z</time>
      </trkpt>
      <trkpt lat="45.37031" lon="4.63355">
        <ele>802.26</ele>
        <time>2021-06-09T14:18:37Z</time>
      </trkpt>
      <trkpt lat="45.37022" lon="4.63346">
        <ele>800.67</ele>
        <time>2021-06-09T14:18:54Z</time>
      </trkpt>
      <trkpt lat="45.37018" lon="4.63345">
        <ele>799.8</ele>
        <time>2021-06-09T14:19:23Z</time>
      </trkpt>
      <trkpt lat="45.37021" lon="4.63332">
        <ele>799.62</ele>
        <time>2021-06-09T14:19:53Z</time>
      </trkpt>
      <trkpt lat="45.3702" lon="4.63336">
        <ele>800.79</ele>
        <time>2021-06-09T14:20:25Z</time>
      </trkpt>
      <trkpt lat="45.3701" lon="4.63329">
        <ele>798.86</ele>
        <time>2021-06-09T14:20:44Z</time>
      </trkpt>
      <trkpt lat="45.37001" lon="4.63322">
        <ele>797.32</ele>
        <time>2021-06-09T14:21:01Z</time>
      </trkpt>
      <trkpt lat="45.36995" lon="4.63324">
        <ele>796.03</ele>
        <time>2021-06-09T14:21:09Z</time>
      </trkpt>
      <trkpt lat="45.36995" lon="4.63338">
        <ele>795.41</ele>
        <time>2021-06-09T14:21:25Z</time>
      </trkpt>
      <trkpt lat="45.36989" lon="4.63347">
        <ele>794.72</ele>
        <time>2021-06-09T14:21:42Z</time>
      </trkpt>
      <trkpt lat="45.36988" lon="4.6335">
        <ele>794.71</ele>
        <time>2021-06-09T14:21:45Z</time>
      </trkpt>
      <trkpt lat="45.36988" lon="4.63356">
        <ele>794.7</ele>
        <time>2021-06-09T14:21:50Z</time>
      </trkpt>
      <trkpt lat="45.36986" lon="4.63364">
        <ele>791.83</ele>
        <time>2021-06-09T14:21:56Z</time>
      </trkpt>
      <trkpt lat="45.3698" lon="4.63385">
        <ele>789.5</ele>
        <time>2021-06-09T14:22:13Z</time>
      </trkpt>
      <trkpt lat="45.36973" lon="4.63404">
        <ele>786.25</ele>
        <time>2021-06-09T14:22:28Z</time>
      </trkpt>
      <trkpt lat="45.36965" lon="4.63421">
        <ele>783</ele>
        <time>2021-06-09T14:22:44Z</time>
      </trkpt>
      <trkpt lat="45.36956" lon="4.63435">
        <ele>779.87</ele>
        <time>2021-06-09T14:22:59Z</time>
      </trkpt>
      <trkpt lat="45.36948" lon="4.63449">
        <ele>777.39</ele>
        <time>2021-06-09T14:23:13Z</time>
      </trkpt>
      <trkpt lat="45.36935" lon="4.63465">
        <ele>774.01</ele>
        <time>2021-06-09T14:23:29Z</time>
      </trkpt>
      <trkpt lat="45.36932" lon="4.63472">
        <ele>773.03</ele>
        <time>2021-06-09T14:23:47Z</time>
      </trkpt>
      <trkpt lat="45.36929" lon="4.63482">
        <ele>772.02</ele>
        <time>2021-06-09T14:24:08Z</time>
      </trkpt>
      <trkpt lat="45.36922" lon="4.63495">
        <ele>768.99</ele>
        <time>2021-06-09T14:24:23Z</time>
      </trkpt>
      <trkpt lat="45.36916" lon="4.63508">
        <ele>767.52</ele>
        <time>2021-06-09T14:24:34Z</time>
      </trkpt>
      <trkpt lat="45.36903" lon="4.63531">
        <ele>765.11</ele>
        <time>2021-06-09T14:24:53Z</time>
      </trkpt>
      <trkpt lat="45.369" lon="4.63534">
        <ele>765.12</ele>
        <time>2021-06-09T14:24:56Z</time>
      </trkpt>
      <trkpt lat="45.36893" lon="4.63541">
        <ele>764.32</ele>
        <time>2021-06-09T14:25:03Z</time>
      </trkpt>
      <trkpt lat="45.36876" lon="4.63552">
        <ele>762.75</ele>
        <time>2021-06-09T14:25:20Z</time>
      </trkpt>
      <trkpt lat="45.3686" lon="4.6356">
        <ele>760.44</ele>
        <time>2021-06-09T14:25:36Z</time>
      </trkpt>
      <trkpt lat="45.36857" lon="4.63562">
        <ele>759.99</ele>
        <time>2021-06-09T14:25:39Z</time>
      </trkpt>
      <trkpt lat="45.36847" lon="4.63573">
        <ele>758.6</ele>
        <time>2021-06-09T14:25:54Z</time>
      </trkpt>
      <trkpt lat="45.36836" lon="4.63583">
        <ele>757.34</ele>
        <time>2021-06-09T14:26:26Z</time>
      </trkpt>
      <trkpt lat="45.36821" lon="4.63602">
        <ele>755.57</ele>
        <time>2021-06-09T14:26:45Z</time>
      </trkpt>
      <trkpt lat="45.36808" lon="4.63616">
        <ele>753.91</ele>
        <time>2021-06-09T14:27:00Z</time>
      </trkpt>
      <trkpt lat="45.36795" lon="4.63626">
        <ele>752.14</ele>
        <time>2021-06-09T14:27:15Z</time>
      </trkpt>
      <trkpt lat="45.36785" lon="4.63637">
        <ele>749.54</ele>
        <time>2021-06-09T14:27:30Z</time>
      </trkpt>
      <trkpt lat="45.36775" lon="4.63645">
        <ele>746.31</ele>
        <time>2021-06-09T14:27:45Z</time>
      </trkpt>
      <trkpt lat="45.36764" lon="4.63653">
        <ele>743.54</ele>
        <time>2021-06-09T14:28:05Z</time>
      </trkpt>
      <trkpt lat="45.36754" lon="4.63665">
        <ele>741.26</ele>
        <time>2021-06-09T14:28:25Z</time>
      </trkpt>
      <trkpt lat="45.36743" lon="4.63677">
        <ele>740.07</ele>
        <time>2021-06-09T14:28:45Z</time>
      </trkpt>
      <trkpt lat="45.36732" lon="4.63702">
        <ele>738.52</ele>
        <time>2021-06-09T14:29:07Z</time>
      </trkpt>
      <trkpt lat="45.36724" lon="4.63723">
        <ele>737.98</ele>
        <time>2021-06-09T14:29:24Z</time>
      </trkpt>
      <trkpt lat="45.36713" lon="4.6375">
        <ele>737.63</ele>
        <time>2021-06-09T14:29:44Z</time>
      </trkpt>
      <trkpt lat="45.3671" lon="4.63754">
        <ele>737.42</ele>
        <time>2021-06-09T14:29:47Z</time>
      </trkpt>
      <trkpt lat="45.36702" lon="4.6377">
        <ele>737.38</ele>
        <time>2021-06-09T14:29:57Z</time>
      </trkpt>
      <trkpt lat="45.36694" lon="4.63791">
        <ele>736.39</ele>
        <time>2021-06-09T14:30:12Z</time>
      </trkpt>
      <trkpt lat="45.36685" lon="4.63814">
        <ele>735.49</ele>
        <time>2021-06-09T14:30:28Z</time>
      </trkpt>
      <trkpt lat="45.3668" lon="4.63836">
        <ele>735.32</ele>
        <time>2021-06-09T14:30:40Z</time>
      </trkpt>
      <trkpt lat="45.36675" lon="4.63866">
        <ele>735.18</ele>
        <time>2021-06-09T14:30:57Z</time>
      </trkpt>
      <trkpt lat="45.3667" lon="4.63891">
        <ele>734.74</ele>
        <time>2021-06-09T14:31:14Z</time>
      </trkpt>
      <trkpt lat="45.36668" lon="4.63899">
        <ele>734.53</ele>
        <time>2021-06-09T14:31:18Z</time>
      </trkpt>
      <trkpt lat="45.36665" lon="4.63926">
        <ele>734.18</ele>
        <time>2021-06-09T14:31:33Z</time>
      </trkpt>
      <trkpt lat="45.36664" lon="4.63941">
        <ele>733.98</ele>
        <time>2021-06-09T14:31:42Z</time>
      </trkpt>
      <trkpt lat="45.36664" lon="4.6397">
        <ele>733.43</ele>
        <time>2021-06-09T14:32:00Z</time>
      </trkpt>
      <trkpt lat="45.36661" lon="4.63998">
        <ele>730.31</ele>
        <time>2021-06-09T14:32:19Z</time>
      </trkpt>
      <trkpt lat="45.36662" lon="4.64008">
        <ele>728.94</ele>
        <time>2021-06-09T14:32:25Z</time>
      </trkpt>
      <trkpt lat="45.36657" lon="4.6403">
        <ele>726.1</ele>
        <time>2021-06-09T14:32:42Z</time>
      </trkpt>
      <trkpt lat="45.36658" lon="4.64051">
        <ele>723.04</ele>
        <time>2021-06-09T14:33:00Z</time>
      </trkpt>
      <trkpt lat="45.36658" lon="4.64078">
        <ele>719.99</ele>
        <time>2021-06-09T14:33:16Z</time>
      </trkpt>
      <trkpt lat="45.36659" lon="4.64094">
        <ele>718.82</ele>
        <time>2021-06-09T14:33:25Z</time>
      </trkpt>
      <trkpt lat="45.3666" lon="4.64118">
        <ele>716.49</ele>
        <time>2021-06-09T14:33:40Z</time>
      </trkpt>
      <trkpt lat="45.36658" lon="4.64141">
        <ele>713.22</ele>
        <time>2021-06-09T14:33:56Z</time>
      </trkpt>
      <trkpt lat="45.36654" lon="4.64161">
        <ele>710.32</ele>
        <time>2021-06-09T14:34:11Z</time>
      </trkpt>
      <trkpt lat="45.36655" lon="4.64182">
        <ele>707.28</ele>
        <time>2021-06-09T14:34:27Z</time>
      </trkpt>
      <trkpt lat="45.36651" lon="4.64208">
        <ele>704.87</ele>
        <time>2021-06-09T14:34:45Z</time>
      </trkpt>
      <trkpt lat="45.36651" lon="4.64213">
        <ele>704.61</ele>
        <time>2021-06-09T14:34:48Z</time>
      </trkpt>
      <trkpt lat="45.36649" lon="4.64231">
        <ele>703.5</ele>
        <time>2021-06-09T14:35:00Z</time>
      </trkpt>
      <trkpt lat="45.36647" lon="4.64234">
        <ele>703.23</ele>
        <time>2021-06-09T14:35:02Z</time>
      </trkpt>
      <trkpt lat="45.36636" lon="4.64259">
        <ele>702.19</ele>
        <time>2021-06-09T14:35:18Z</time>
      </trkpt>
      <trkpt lat="45.36625" lon="4.64278">
        <ele>700.03</ele>
        <time>2021-06-09T14:35:35Z</time>
      </trkpt>
      <trkpt lat="45.36614" lon="4.64297">
        <ele>697.86</ele>
        <time>2021-06-09T14:35:52Z</time>
      </trkpt>
      <trkpt lat="45.3661" lon="4.64318">
        <ele>695.34</ele>
        <time>2021-06-09T14:36:09Z</time>
      </trkpt>
      <trkpt lat="45.36612" lon="4.64339">
        <ele>692.25</ele>
        <time>2021-06-09T14:36:28Z</time>
      </trkpt>
      <trkpt lat="45.36617" lon="4.64355">
        <ele>689.12</ele>
        <time>2021-06-09T14:36:46Z</time>
      </trkpt>
      <trkpt lat="45.36618" lon="4.6438">
        <ele>686.36</ele>
        <time>2021-06-09T14:37:06Z</time>
      </trkpt>
      <trkpt lat="45.36615" lon="4.644">
        <ele>683.19</ele>
        <time>2021-06-09T14:37:27Z</time>
      </trkpt>
      <trkpt lat="45.36611" lon="4.64417">
        <ele>680.4</ele>
        <time>2021-06-09T14:37:44Z</time>
      </trkpt>
      <trkpt lat="45.36606" lon="4.64438">
        <ele>679.39</ele>
        <time>2021-06-09T14:38:05Z</time>
      </trkpt>
      <trkpt lat="45.36605" lon="4.6444">
        <ele>677.11</ele>
        <time>2021-06-09T14:38:08Z</time>
      </trkpt>
      <trkpt lat="45.36602" lon="4.64456">
        <ele>674.1</ele>
        <time>2021-06-09T14:38:24Z</time>
      </trkpt>
      <trkpt lat="45.36597" lon="4.64473">
        <ele>670.96</ele>
        <time>2021-06-09T14:38:41Z</time>
      </trkpt>
      <trkpt lat="45.36593" lon="4.64495">
        <ele>668.17</ele>
        <time>2021-06-09T14:39:01Z</time>
      </trkpt>
      <trkpt lat="45.36598" lon="4.64502">
        <ele>667.41</ele>
        <time>2021-06-09T14:39:12Z</time>
      </trkpt>
      <trkpt lat="45.36613" lon="4.6451">
        <ele>665.43</ele>
        <time>2021-06-09T14:39:31Z</time>
      </trkpt>
      <trkpt lat="45.36621" lon="4.64515">
        <ele>664.09</ele>
        <time>2021-06-09T14:39:40Z</time>
      </trkpt>
      <trkpt lat="45.36637" lon="4.64516">
        <ele>662.06</ele>
        <time>2021-06-09T14:39:56Z</time>
      </trkpt>
      <trkpt lat="45.36652" lon="4.64523">
        <ele>658.99</ele>
        <time>2021-06-09T14:40:12Z</time>
      </trkpt>
      <trkpt lat="45.36667" lon="4.64527">
        <ele>656.54</ele>
        <time>2021-06-09T14:40:30Z</time>
      </trkpt>
      <trkpt lat="45.36684" lon="4.64531">
        <ele>653.53</ele>
        <time>2021-06-09T14:40:48Z</time>
      </trkpt>
      <trkpt lat="45.36702" lon="4.64534">
        <ele>651.12</ele>
        <time>2021-06-09T14:41:06Z</time>
      </trkpt>
      <trkpt lat="45.36718" lon="4.64538">
        <ele>647.99</ele>
        <time>2021-06-09T14:41:24Z</time>
      </trkpt>
      <trkpt lat="45.3672" lon="4.64544">
        <ele>646.25</ele>
        <time>2021-06-09T14:41:44Z</time>
      </trkpt>
      <trkpt lat="45.36721" lon="4.64547">
        <ele>646.93</ele>
        <time>2021-06-09T14:42:14Z</time>
      </trkpt>
      <trkpt lat="45.36718" lon="4.64566">
        <ele>643.67</ele>
        <time>2021-06-09T14:42:30Z</time>
      </trkpt>
      <trkpt lat="45.36718" lon="4.64568">
        <ele>642.98</ele>
        <time>2021-06-09T14:42:32Z</time>
      </trkpt>
      <trkpt lat="45.36716" lon="4.6458">
        <ele>641.51</ele>
        <time>2021-06-09T14:42:41Z</time>
      </trkpt>
      <trkpt lat="45.36712" lon="4.64611">
        <ele>637.99</ele>
        <time>2021-06-09T14:43:00Z</time>
      </trkpt>
      <trkpt lat="45.36708" lon="4.64636">
        <ele>635.45</ele>
        <time>2021-06-09T14:43:17Z</time>
      </trkpt>
      <trkpt lat="45.36706" lon="4.64646">
        <ele>634.08</ele>
        <time>2021-06-09T14:43:23Z</time>
      </trkpt>
      <trkpt lat="45.36702" lon="4.64673">
        <ele>632.06</ele>
        <time>2021-06-09T14:43:40Z</time>
      </trkpt>
      <trkpt lat="45.36699" lon="4.64703">
        <ele>628.93</ele>
        <time>2021-06-09T14:43:58Z</time>
      </trkpt>
      <trkpt lat="45.36694" lon="4.64734">
        <ele>626.05</ele>
        <time>2021-06-09T14:44:17Z</time>
      </trkpt>
      <trkpt lat="45.36688" lon="4.64762">
        <ele>622.97</ele>
        <time>2021-06-09T14:44:36Z</time>
      </trkpt>
      <trkpt lat="45.36684" lon="4.64783">
        <ele>619.96</ele>
        <time>2021-06-09T14:44:54Z</time>
      </trkpt>
      <trkpt lat="45.36682" lon="4.64794">
        <ele>618.4</ele>
        <time>2021-06-09T14:45:09Z</time>
      </trkpt>
      <trkpt lat="45.36684" lon="4.64806">
        <ele>616.9</ele>
        <time>2021-06-09T14:45:24Z</time>
      </trkpt>
      <trkpt lat="45.36681" lon="4.64804">
        <ele>617.54</ele>
        <time>2021-06-09T14:45:55Z</time>
      </trkpt>
      <trkpt lat="45.3668" lon="4.64806">
        <ele>617.21</ele>
        <time>2021-06-09T14:46:00Z</time>
      </trkpt>
      <trkpt lat="45.3668" lon="4.64824">
        <ele>615.36</ele>
        <time>2021-06-09T14:46:15Z</time>
      </trkpt>
      <trkpt lat="45.3668" lon="4.64826">
        <ele>615.34</ele>
        <time>2021-06-09T14:46:16Z</time>
      </trkpt>
      <trkpt lat="45.36677" lon="4.64844">
        <ele>613.42</ele>
        <time>2021-06-09T14:46:30Z</time>
      </trkpt>
      <trkpt lat="45.36672" lon="4.64873">
        <ele>610.07</ele>
        <time>2021-06-09T14:46:51Z</time>
      </trkpt>
      <trkpt lat="45.3667" lon="4.64896">
        <ele>610.07</ele>
        <time>2021-06-09T14:47:11Z</time>
      </trkpt>
      <trkpt lat="45.3667" lon="4.64897">
        <ele>607.22</ele>
        <time>2021-06-09T14:47:12Z</time>
      </trkpt>
      <trkpt lat="45.36669" lon="4.64905">
        <ele>606.74</ele>
        <time>2021-06-09T14:47:18Z</time>
      </trkpt>
      <trkpt lat="45.36664" lon="4.64919">
        <ele>605.77</ele>
        <time>2021-06-09T14:47:34Z</time>
      </trkpt>
      <trkpt lat="45.36666" lon="4.64924">
        <ele>605.46</ele>
        <time>2021-06-09T14:47:56Z</time>
      </trkpt>
      <trkpt lat="45.36667" lon="4.64926">
        <ele>605.42</ele>
        <time>2021-06-09T14:47:57Z</time>
      </trkpt>
      <trkpt lat="45.36671" lon="4.64937">
        <ele>604.99</ele>
        <time>2021-06-09T14:48:07Z</time>
      </trkpt>
      <trkpt lat="45.36673" lon="4.64943">
        <ele>604.52</ele>
        <time>2021-06-09T14:48:12Z</time>
      </trkpt>
      <trkpt lat="45.3668" lon="4.6497">
        <ele>604.26</ele>
        <time>2021-06-09T14:48:32Z</time>
      </trkpt>
      <trkpt lat="45.36682" lon="4.64981">
        <ele>603.35</ele>
        <time>2021-06-09T14:48:45Z</time>
      </trkpt>
      <trkpt lat="45.36687" lon="4.64999">
        <ele>602.74</ele>
        <time>2021-06-09T14:49:01Z</time>
      </trkpt>
      <trkpt lat="45.36692" lon="4.65019">
        <ele>602.23</ele>
        <time>2021-06-09T14:49:17Z</time>
      </trkpt>
      <trkpt lat="45.36697" lon="4.65038">
        <ele>600.83</ele>
        <time>2021-06-09T14:49:37Z</time>
      </trkpt>
      <trkpt lat="45.36699" lon="4.65045">
        <ele>600.39</ele>
        <time>2021-06-09T14:49:46Z</time>
      </trkpt>
      <trkpt lat="45.367" lon="4.65055">
        <ele>600.26</ele>
        <time>2021-06-09T14:49:52Z</time>
      </trkpt>
      <trkpt lat="45.36704" lon="4.65078">
        <ele>599.51</ele>
        <time>2021-06-09T14:50:07Z</time>
      </trkpt>
      <trkpt lat="45.36707" lon="4.6509">
        <ele>599.13</ele>
        <time>2021-06-09T14:50:21Z</time>
      </trkpt>
      <trkpt lat="45.36709" lon="4.65116">
        <ele>596.2</ele>
        <time>2021-06-09T14:50:40Z</time>
      </trkpt>
      <trkpt lat="45.36709" lon="4.65121">
        <ele>595.54</ele>
        <time>2021-06-09T14:50:44Z</time>
      </trkpt>
      <trkpt lat="45.36709" lon="4.65144">
        <ele>592.1</ele>
        <time>2021-06-09T14:51:01Z</time>
      </trkpt>
      <trkpt lat="45.36709" lon="4.6517">
        <ele>589.53</ele>
        <time>2021-06-09T14:51:19Z</time>
      </trkpt>
      <trkpt lat="45.36709" lon="4.65185">
        <ele>588.63</ele>
        <time>2021-06-09T14:51:35Z</time>
      </trkpt>
      <trkpt lat="45.36709" lon="4.6521">
        <ele>586.47</ele>
        <time>2021-06-09T14:51:51Z</time>
      </trkpt>
      <trkpt lat="45.36709" lon="4.65216">
        <ele>586.01</ele>
        <time>2021-06-09T14:51:55Z</time>
      </trkpt>
      <trkpt lat="45.36704" lon="4.65246">
        <ele>584.49</ele>
        <time>2021-06-09T14:52:15Z</time>
      </trkpt>
      <trkpt lat="45.36705" lon="4.6525">
        <ele>584.48</ele>
        <time>2021-06-09T14:52:30Z</time>
      </trkpt>
      <trkpt lat="45.36712" lon="4.65269">
        <ele>583.56</ele>
        <time>2021-06-09T14:52:45Z</time>
      </trkpt>
      <trkpt lat="45.36715" lon="4.653">
        <ele>582.94</ele>
        <time>2021-06-09T14:53:03Z</time>
      </trkpt>
      <trkpt lat="45.36716" lon="4.6533">
        <ele>582.09</ele>
        <time>2021-06-09T14:53:21Z</time>
      </trkpt>
      <trkpt lat="45.36715" lon="4.65359">
        <ele>581.1</ele>
        <time>2021-06-09T14:53:38Z</time>
      </trkpt>
      <trkpt lat="45.36715" lon="4.65392">
        <ele>580.13</ele>
        <time>2021-06-09T14:53:59Z</time>
      </trkpt>
      <trkpt lat="45.36714" lon="4.65421">
        <ele>578.96</ele>
        <time>2021-06-09T14:54:18Z</time>
      </trkpt>
      <trkpt lat="45.36727" lon="4.65452">
        <ele>577.86</ele>
        <time>2021-06-09T14:54:42Z</time>
      </trkpt>
      <trkpt lat="45.3674" lon="4.65471">
        <ele>576.82</ele>
        <time>2021-06-09T14:54:59Z</time>
      </trkpt>
      <trkpt lat="45.36751" lon="4.65499">
        <ele>575.28</ele>
        <time>2021-06-09T14:55:20Z</time>
      </trkpt>
      <trkpt lat="45.36751" lon="4.65503">
        <ele>575.16</ele>
        <time>2021-06-09T14:55:23Z</time>
      </trkpt>
      <trkpt lat="45.36752" lon="4.65509">
        <ele>574.91</ele>
        <time>2021-06-09T14:55:27Z</time>
      </trkpt>
      <trkpt lat="45.36751" lon="4.65549">
        <ele>573.37</ele>
        <time>2021-06-09T14:55:50Z</time>
      </trkpt>
      <trkpt lat="45.36753" lon="4.65585">
        <ele>572.17</ele>
        <time>2021-06-09T14:56:12Z</time>
      </trkpt>
      <trkpt lat="45.36761" lon="4.65622">
        <ele>571.06</ele>
        <time>2021-06-09T14:56:35Z</time>
      </trkpt>
      <trkpt lat="45.36773" lon="4.65647">
        <ele>569.79</ele>
        <time>2021-06-09T14:56:54Z</time>
      </trkpt>
      <trkpt lat="45.36785" lon="4.65672">
        <ele>568.58</ele>
        <time>2021-06-09T14:57:13Z</time>
      </trkpt>
      <trkpt lat="45.36796" lon="4.65698">
        <ele>567.52</ele>
        <time>2021-06-09T14:57:31Z</time>
      </trkpt>
      <trkpt lat="45.36808" lon="4.65727">
        <ele>567.01</ele>
        <time>2021-06-09T14:57:51Z</time>
      </trkpt>
      <trkpt lat="45.36819" lon="4.65762">
        <ele>566.31</ele>
        <time>2021-06-09T14:58:14Z</time>
      </trkpt>
      <trkpt lat="45.36824" lon="4.65794">
        <ele>566.07</ele>
        <time>2021-06-09T14:58:34Z</time>
      </trkpt>
      <trkpt lat="45.36824" lon="4.65799">
        <ele>565.61</ele>
        <time>2021-06-09T14:58:39Z</time>
      </trkpt>
      <trkpt lat="45.36825" lon="4.65809">
        <ele>565.68</ele>
        <time>2021-06-09T14:58:45Z</time>
      </trkpt>
      <trkpt lat="45.36827" lon="4.65849">
        <ele>565.66</ele>
        <time>2021-06-09T14:59:09Z</time>
      </trkpt>
      <trkpt lat="45.36829" lon="4.65883">
        <ele>565.14</ele>
        <time>2021-06-09T14:59:30Z</time>
      </trkpt>
      <trkpt lat="45.3683" lon="4.6591">
        <ele>565.31</ele>
        <time>2021-06-09T14:59:47Z</time>
      </trkpt>
      <trkpt lat="45.36828" lon="4.65934">
        <ele>564.64</ele>
        <time>2021-06-09T15:00:02Z</time>
      </trkpt>
      <trkpt lat="45.36828" lon="4.65953">
        <ele>564.19</ele>
        <time>2021-06-09T15:00:15Z</time>
      </trkpt>
      <trkpt lat="45.36829" lon="4.65982">
        <ele>564.29</ele>
        <time>2021-06-09T15:00:34Z</time>
      </trkpt>
      <trkpt lat="45.36829" lon="4.65985">
        <ele>564.29</ele>
        <time>2021-06-09T15:00:36Z</time>
      </trkpt>
      <trkpt lat="45.36827" lon="4.66017">
        <ele>564.31</ele>
        <time>2021-06-09T15:00:56Z</time>
      </trkpt>
      <trkpt lat="45.36826" lon="4.66048">
        <ele>564.34</ele>
        <time>2021-06-09T15:01:15Z</time>
      </trkpt>
      <trkpt lat="45.36826" lon="4.66063">
        <ele>564.7</ele>
        <time>2021-06-09T15:01:31Z</time>
      </trkpt>
      <trkpt lat="45.36827" lon="4.66063">
        <ele>564.64</ele>
        <time>2021-06-09T15:01:35Z</time>
      </trkpt>
      <trkpt lat="45.36826" lon="4.66066">
        <ele>564.8</ele>
        <time>2021-06-09T15:01:40Z</time>
      </trkpt>
      <trkpt lat="45.36825" lon="4.66069">
        <ele>565.03</ele>
        <time>2021-06-09T15:01:42Z</time>
      </trkpt>
      <trkpt lat="45.36825" lon="4.66071">
        <ele>564.67</ele>
        <time>2021-06-09T15:01:44Z</time>
      </trkpt>
      <trkpt lat="45.36826" lon="4.66079">
        <ele>564.92</ele>
        <time>2021-06-09T15:01:50Z</time>
      </trkpt>
      <trkpt lat="45.36825" lon="4.66094">
        <ele>565.38</ele>
        <time>2021-06-09T15:02:00Z</time>
      </trkpt>
      <trkpt lat="45.36827" lon="4.66114">
        <ele>565.53</ele>
        <time>2021-06-09T15:02:12Z</time>
      </trkpt>
      <trkpt lat="45.36828" lon="4.66118">
        <ele>565.74</ele>
        <time>2021-06-09T15:02:14Z</time>
      </trkpt>
      <trkpt lat="45.36828" lon="4.66121">
        <ele>565.77</ele>
        <time>2021-06-09T15:02:16Z</time>
      </trkpt>
      <trkpt lat="45.36828" lon="4.66125">
        <ele>565.98</ele>
        <time>2021-06-09T15:02:18Z</time>
      </trkpt>
      <trkpt lat="45.36829" lon="4.66129">
        <ele>566.11</ele>
        <time>2021-06-09T15:02:21Z</time>
      </trkpt>
      <trkpt lat="45.36828" lon="4.66151">
        <ele>566.38</ele>
        <time>2021-06-09T15:02:34Z</time>
      </trkpt>
      <trkpt lat="45.36829" lon="4.66161">
        <ele>566.23</ele>
        <time>2021-06-09T15:02:40Z</time>
      </trkpt>
      <trkpt lat="45.36826" lon="4.66179">
        <ele>567.09</ele>
        <time>2021-06-09T15:02:51Z</time>
      </trkpt>
      <trkpt lat="45.36824" lon="4.66209">
        <ele>567.67</ele>
        <time>2021-06-09T15:03:08Z</time>
      </trkpt>
      <trkpt lat="45.36824" lon="4.66212">
        <ele>567.96</ele>
        <time>2021-06-09T15:03:10Z</time>
      </trkpt>
      <trkpt lat="45.36824" lon="4.66215">
        <ele>567.83</ele>
        <time>2021-06-09T15:03:12Z</time>
      </trkpt>
      <trkpt lat="45.36823" lon="4.6624">
        <ele>568.69</ele>
        <time>2021-06-09T15:03:28Z</time>
      </trkpt>
      <trkpt lat="45.36825" lon="4.66266">
        <ele>568.59</ele>
        <time>2021-06-09T15:03:42Z</time>
      </trkpt>
      <trkpt lat="45.36833" lon="4.66291">
        <ele>568.82</ele>
        <time>2021-06-09T15:03:58Z</time>
      </trkpt>
      <trkpt lat="45.36833" lon="4.66295">
        <ele>568.7</ele>
        <time>2021-06-09T15:04:00Z</time>
      </trkpt>
      <trkpt lat="45.36834" lon="4.663">
        <ele>568.81</ele>
        <time>2021-06-09T15:04:04Z</time>
      </trkpt>
      <trkpt lat="45.36835" lon="4.66303">
        <ele>568.57</ele>
        <time>2021-06-09T15:04:06Z</time>
      </trkpt>
      <trkpt lat="45.36836" lon="4.66308">
        <ele>569.09</ele>
        <time>2021-06-09T15:04:20Z</time>
      </trkpt>
      <trkpt lat="45.36834" lon="4.66309">
        <ele>568.91</ele>
        <time>2021-06-09T15:04:34Z</time>
      </trkpt>
      <trkpt lat="45.36833" lon="4.6631">
        <ele>568.78</ele>
        <time>2021-06-09T15:04:51Z</time>
      </trkpt>
      <trkpt lat="45.36832" lon="4.66309">
        <ele>568.36</ele>
        <time>2021-06-09T15:05:13Z</time>
      </trkpt>
    </trkseg>
  </trk>
</gpx>